<?xml version="1.0" encoding="UTF-8" standalone="no" ?>
<gpx xmlns="http://www.topografix.com/GPX/1/1" xmlns:xsi="http://www.w3.org/2001/XMLSchema-instance" xsi:schemaLocation="http://www.topografix.com/GPX/1/1 http://www.topografix.com/GPX/1/1/gpx.xsd" version="1.1" creator="VisuGPX - https://www.visugpx.com">
  <metadata>
    <name>GR6 étp 58 (26)-23/07/2020 Monbazillac Saussignac</name>
  </metadata>
  <trk>
    <name><![CDATA[26-23/07/2020 Monbazillac Saussignac]]></name>
    <trkseg>
      <trkpt lat="44.79852" lon="0.47531">
        <ele>147.7</ele>
        <time>2020-07-23T06:48:28Z</time>
      </trkpt>
      <trkpt lat="44.79851" lon="0.47532">
        <ele>143.85</ele>
        <time>2020-07-23T06:48:29Z</time>
      </trkpt>
      <trkpt lat="44.79851" lon="0.47532">
        <ele>143.85</ele>
        <time>2020-07-23T06:48:31Z</time>
      </trkpt>
      <trkpt lat="44.79853" lon="0.47532">
        <ele>143.85</ele>
        <time>2020-07-23T06:48:52Z</time>
      </trkpt>
      <trkpt lat="44.79856" lon="0.47529">
        <ele>142.89</ele>
        <time>2020-07-23T06:49:13Z</time>
      </trkpt>
      <trkpt lat="44.79861" lon="0.4754">
        <ele>142.41</ele>
        <time>2020-07-23T06:49:32Z</time>
      </trkpt>
      <trkpt lat="44.79863" lon="0.47557">
        <ele>141.45</ele>
        <time>2020-07-23T06:49:56Z</time>
      </trkpt>
      <trkpt lat="44.79857" lon="0.47561">
        <ele>142.89</ele>
        <time>2020-07-23T06:50:13Z</time>
      </trkpt>
      <trkpt lat="44.79853" lon="0.47566">
        <ele>143.85</ele>
        <time>2020-07-23T06:50:36Z</time>
      </trkpt>
      <trkpt lat="44.79846" lon="0.47561">
        <ele>145.78</ele>
        <time>2020-07-23T06:50:50Z</time>
      </trkpt>
      <trkpt lat="44.79836" lon="0.47561">
        <ele>147.22</ele>
        <time>2020-07-23T06:51:05Z</time>
      </trkpt>
      <trkpt lat="44.79823" lon="0.4756">
        <ele>148.18</ele>
        <time>2020-07-23T06:51:22Z</time>
      </trkpt>
      <trkpt lat="44.79814" lon="0.47559">
        <ele>149.62</ele>
        <time>2020-07-23T06:51:37Z</time>
      </trkpt>
      <trkpt lat="44.79807" lon="0.4756">
        <ele>150.1</ele>
        <time>2020-07-23T06:51:49Z</time>
      </trkpt>
      <trkpt lat="44.79785" lon="0.47561">
        <ele>152.03</ele>
        <time>2020-07-23T06:52:11Z</time>
      </trkpt>
      <trkpt lat="44.79773" lon="0.47559">
        <ele>152.51</ele>
        <time>2020-07-23T06:52:19Z</time>
      </trkpt>
      <trkpt lat="44.79749" lon="0.47557">
        <ele>153.95</ele>
        <time>2020-07-23T06:52:40Z</time>
      </trkpt>
      <trkpt lat="44.79726" lon="0.47557">
        <ele>154.91</ele>
        <time>2020-07-23T06:53:00Z</time>
      </trkpt>
      <trkpt lat="44.79702" lon="0.47558">
        <ele>155.87</ele>
        <time>2020-07-23T06:53:23Z</time>
      </trkpt>
      <trkpt lat="44.79681" lon="0.47556">
        <ele>157.31</ele>
        <time>2020-07-23T06:53:44Z</time>
      </trkpt>
      <trkpt lat="44.79659" lon="0.47551">
        <ele>158.27</ele>
        <time>2020-07-23T06:54:07Z</time>
      </trkpt>
      <trkpt lat="44.79638" lon="0.47552">
        <ele>159.24</ele>
        <time>2020-07-23T06:54:27Z</time>
      </trkpt>
      <trkpt lat="44.79623" lon="0.47551">
        <ele>159.72</ele>
        <time>2020-07-23T06:54:44Z</time>
      </trkpt>
      <trkpt lat="44.79612" lon="0.47553">
        <ele>159.72</ele>
        <time>2020-07-23T06:55:01Z</time>
      </trkpt>
      <trkpt lat="44.79584" lon="0.47557">
        <ele>160.2</ele>
        <time>2020-07-23T06:55:24Z</time>
      </trkpt>
      <trkpt lat="44.79557" lon="0.47562">
        <ele>160.68</ele>
        <time>2020-07-23T06:55:46Z</time>
      </trkpt>
      <trkpt lat="44.79527" lon="0.47566">
        <ele>161.16</ele>
        <time>2020-07-23T06:56:13Z</time>
      </trkpt>
      <trkpt lat="44.79503" lon="0.47568">
        <ele>161.64</ele>
        <time>2020-07-23T06:56:35Z</time>
      </trkpt>
      <trkpt lat="44.79476" lon="0.4757">
        <ele>162.12</ele>
        <time>2020-07-23T06:56:57Z</time>
      </trkpt>
      <trkpt lat="44.79447" lon="0.47566">
        <ele>163.08</ele>
        <time>2020-07-23T06:57:22Z</time>
      </trkpt>
      <trkpt lat="44.79426" lon="0.47561">
        <ele>164.04</ele>
        <time>2020-07-23T06:57:41Z</time>
      </trkpt>
      <trkpt lat="44.79419" lon="0.47544">
        <ele>164.52</ele>
        <time>2020-07-23T06:57:58Z</time>
      </trkpt>
      <trkpt lat="44.79422" lon="0.47533">
        <ele>163.08</ele>
        <time>2020-07-23T06:58:05Z</time>
      </trkpt>
      <trkpt lat="44.79424" lon="0.47523">
        <ele>163.08</ele>
        <time>2020-07-23T06:58:11Z</time>
      </trkpt>
      <trkpt lat="44.79431" lon="0.47495">
        <ele>162.12</ele>
        <time>2020-07-23T06:58:30Z</time>
      </trkpt>
      <trkpt lat="44.79444" lon="0.4746">
        <ele>162.12</ele>
        <time>2020-07-23T06:58:53Z</time>
      </trkpt>
      <trkpt lat="44.79455" lon="0.47432">
        <ele>161.64</ele>
        <time>2020-07-23T06:59:12Z</time>
      </trkpt>
      <trkpt lat="44.79455" lon="0.47431">
        <ele>161.64</ele>
        <time>2020-07-23T06:59:13Z</time>
      </trkpt>
      <trkpt lat="44.79457" lon="0.47421">
        <ele>161.16</ele>
        <time>2020-07-23T06:59:19Z</time>
      </trkpt>
      <trkpt lat="44.79471" lon="0.47385">
        <ele>161.16</ele>
        <time>2020-07-23T06:59:42Z</time>
      </trkpt>
      <trkpt lat="44.7948" lon="0.47354">
        <ele>160.2</ele>
        <time>2020-07-23T07:00:03Z</time>
      </trkpt>
      <trkpt lat="44.79492" lon="0.47316">
        <ele>159.24</ele>
        <time>2020-07-23T07:00:26Z</time>
      </trkpt>
      <trkpt lat="44.79504" lon="0.47283">
        <ele>159.24</ele>
        <time>2020-07-23T07:00:50Z</time>
      </trkpt>
      <trkpt lat="44.79516" lon="0.4725">
        <ele>159.24</ele>
        <time>2020-07-23T07:01:10Z</time>
      </trkpt>
      <trkpt lat="44.79524" lon="0.4722">
        <ele>159.24</ele>
        <time>2020-07-23T07:01:29Z</time>
      </trkpt>
      <trkpt lat="44.79536" lon="0.47187">
        <ele>159.24</ele>
        <time>2020-07-23T07:01:52Z</time>
      </trkpt>
      <trkpt lat="44.79546" lon="0.4715">
        <ele>159.24</ele>
        <time>2020-07-23T07:02:13Z</time>
      </trkpt>
      <trkpt lat="44.79551" lon="0.47121">
        <ele>159.24</ele>
        <time>2020-07-23T07:02:29Z</time>
      </trkpt>
      <trkpt lat="44.79552" lon="0.47089">
        <ele>159.24</ele>
        <time>2020-07-23T07:02:48Z</time>
      </trkpt>
      <trkpt lat="44.79554" lon="0.4705">
        <ele>160.68</ele>
        <time>2020-07-23T07:03:13Z</time>
      </trkpt>
      <trkpt lat="44.7955" lon="0.47018">
        <ele>159.72</ele>
        <time>2020-07-23T07:03:32Z</time>
      </trkpt>
      <trkpt lat="44.79551" lon="0.47004">
        <ele>160.68</ele>
        <time>2020-07-23T07:03:40Z</time>
      </trkpt>
      <trkpt lat="44.79545" lon="0.46974">
        <ele>161.16</ele>
        <time>2020-07-23T07:04:01Z</time>
      </trkpt>
      <trkpt lat="44.79537" lon="0.46934">
        <ele>161.16</ele>
        <time>2020-07-23T07:04:25Z</time>
      </trkpt>
      <trkpt lat="44.79533" lon="0.46905">
        <ele>162.6</ele>
        <time>2020-07-23T07:04:46Z</time>
      </trkpt>
      <trkpt lat="44.79528" lon="0.46884">
        <ele>163.56</ele>
        <time>2020-07-23T07:05:05Z</time>
      </trkpt>
      <trkpt lat="44.79517" lon="0.46852">
        <ele>164.04</ele>
        <time>2020-07-23T07:05:25Z</time>
      </trkpt>
      <trkpt lat="44.79514" lon="0.46819">
        <ele>164.52</ele>
        <time>2020-07-23T07:05:44Z</time>
      </trkpt>
      <trkpt lat="44.79519" lon="0.46813">
        <ele>164.52</ele>
        <time>2020-07-23T07:05:58Z</time>
      </trkpt>
      <trkpt lat="44.79516" lon="0.46782">
        <ele>165.96</ele>
        <time>2020-07-23T07:06:18Z</time>
      </trkpt>
      <trkpt lat="44.79522" lon="0.46771">
        <ele>165</ele>
        <time>2020-07-23T07:06:29Z</time>
      </trkpt>
      <trkpt lat="44.79543" lon="0.4678">
        <ele>163.08</ele>
        <time>2020-07-23T07:06:48Z</time>
      </trkpt>
      <trkpt lat="44.79567" lon="0.4679">
        <ele>161.16</ele>
        <time>2020-07-23T07:07:09Z</time>
      </trkpt>
      <trkpt lat="44.79595" lon="0.46798">
        <ele>158.27</ele>
        <time>2020-07-23T07:07:32Z</time>
      </trkpt>
      <trkpt lat="44.79618" lon="0.46809">
        <ele>156.35</ele>
        <time>2020-07-23T07:07:54Z</time>
      </trkpt>
      <trkpt lat="44.79646" lon="0.46818">
        <ele>154.43</ele>
        <time>2020-07-23T07:08:17Z</time>
      </trkpt>
      <trkpt lat="44.7967" lon="0.46828">
        <ele>152.03</ele>
        <time>2020-07-23T07:08:37Z</time>
      </trkpt>
      <trkpt lat="44.79688" lon="0.46838">
        <ele>152.03</ele>
        <time>2020-07-23T07:08:53Z</time>
      </trkpt>
      <trkpt lat="44.79706" lon="0.46835">
        <ele>150.1</ele>
        <time>2020-07-23T07:09:10Z</time>
      </trkpt>
      <trkpt lat="44.79723" lon="0.46814">
        <ele>148.66</ele>
        <time>2020-07-23T07:09:29Z</time>
      </trkpt>
      <trkpt lat="44.79741" lon="0.46794">
        <ele>147.22</ele>
        <time>2020-07-23T07:09:47Z</time>
      </trkpt>
      <trkpt lat="44.79757" lon="0.46774">
        <ele>145.78</ele>
        <time>2020-07-23T07:10:05Z</time>
      </trkpt>
      <trkpt lat="44.79774" lon="0.46752">
        <ele>144.34</ele>
        <time>2020-07-23T07:10:24Z</time>
      </trkpt>
      <trkpt lat="44.79789" lon="0.46731">
        <ele>142.41</ele>
        <time>2020-07-23T07:10:43Z</time>
      </trkpt>
      <trkpt lat="44.79804" lon="0.46714">
        <ele>141.93</ele>
        <time>2020-07-23T07:11:00Z</time>
      </trkpt>
      <trkpt lat="44.79812" lon="0.46695">
        <ele>140.01</ele>
        <time>2020-07-23T07:11:15Z</time>
      </trkpt>
      <trkpt lat="44.79828" lon="0.46673">
        <ele>137.61</ele>
        <time>2020-07-23T07:11:35Z</time>
      </trkpt>
      <trkpt lat="44.79849" lon="0.46653">
        <ele>136.64</ele>
        <time>2020-07-23T07:11:53Z</time>
      </trkpt>
      <trkpt lat="44.79856" lon="0.46645">
        <ele>135.68</ele>
        <time>2020-07-23T07:12:03Z</time>
      </trkpt>
      <trkpt lat="44.7988" lon="0.46626">
        <ele>135.68</ele>
        <time>2020-07-23T07:12:25Z</time>
      </trkpt>
      <trkpt lat="44.79891" lon="0.46623">
        <ele>135.2</ele>
        <time>2020-07-23T07:12:44Z</time>
      </trkpt>
      <trkpt lat="44.79891" lon="0.46627">
        <ele>134.72</ele>
        <time>2020-07-23T07:13:17Z</time>
      </trkpt>
      <trkpt lat="44.79894" lon="0.46626">
        <ele>134.24</ele>
        <time>2020-07-23T07:13:33Z</time>
      </trkpt>
      <trkpt lat="44.79891" lon="0.46624">
        <ele>134.24</ele>
        <time>2020-07-23T07:14:01Z</time>
      </trkpt>
      <trkpt lat="44.79893" lon="0.46617">
        <ele>135.68</ele>
        <time>2020-07-23T07:14:16Z</time>
      </trkpt>
      <trkpt lat="44.79899" lon="0.46604">
        <ele>135.68</ele>
        <time>2020-07-23T07:14:32Z</time>
      </trkpt>
      <trkpt lat="44.799" lon="0.46601">
        <ele>134.24</ele>
        <time>2020-07-23T07:14:34Z</time>
      </trkpt>
      <trkpt lat="44.7991" lon="0.46584">
        <ele>133.28</ele>
        <time>2020-07-23T07:14:47Z</time>
      </trkpt>
      <trkpt lat="44.79911" lon="0.46573">
        <ele>133.28</ele>
        <time>2020-07-23T07:15:05Z</time>
      </trkpt>
      <trkpt lat="44.79912" lon="0.4657">
        <ele>132.8</ele>
        <time>2020-07-23T07:15:33Z</time>
      </trkpt>
      <trkpt lat="44.79915" lon="0.46554">
        <ele>132.8</ele>
        <time>2020-07-23T07:15:56Z</time>
      </trkpt>
      <trkpt lat="44.7992" lon="0.46538">
        <ele>132.32</ele>
        <time>2020-07-23T07:16:13Z</time>
      </trkpt>
      <trkpt lat="44.79927" lon="0.46507">
        <ele>131.36</ele>
        <time>2020-07-23T07:16:32Z</time>
      </trkpt>
      <trkpt lat="44.79935" lon="0.46477">
        <ele>130.4</ele>
        <time>2020-07-23T07:16:50Z</time>
      </trkpt>
      <trkpt lat="44.79941" lon="0.46446">
        <ele>129.92</ele>
        <time>2020-07-23T07:17:10Z</time>
      </trkpt>
      <trkpt lat="44.79945" lon="0.4641">
        <ele>129.92</ele>
        <time>2020-07-23T07:17:29Z</time>
      </trkpt>
      <trkpt lat="44.79951" lon="0.46377">
        <ele>128.47</ele>
        <time>2020-07-23T07:17:47Z</time>
      </trkpt>
      <trkpt lat="44.79955" lon="0.46362">
        <ele>127.51</ele>
        <time>2020-07-23T07:17:56Z</time>
      </trkpt>
      <trkpt lat="44.7996" lon="0.4632">
        <ele>126.07</ele>
        <time>2020-07-23T07:18:19Z</time>
      </trkpt>
      <trkpt lat="44.79965" lon="0.4629">
        <ele>125.59</ele>
        <time>2020-07-23T07:18:36Z</time>
      </trkpt>
      <trkpt lat="44.79969" lon="0.46279">
        <ele>125.11</ele>
        <time>2020-07-23T07:18:44Z</time>
      </trkpt>
      <trkpt lat="44.79971" lon="0.46273">
        <ele>125.11</ele>
        <time>2020-07-23T07:18:48Z</time>
      </trkpt>
      <trkpt lat="44.79975" lon="0.46267">
        <ele>125.11</ele>
        <time>2020-07-23T07:18:52Z</time>
      </trkpt>
      <trkpt lat="44.79995" lon="0.46249">
        <ele>124.15</ele>
        <time>2020-07-23T07:19:11Z</time>
      </trkpt>
      <trkpt lat="44.80001" lon="0.46241">
        <ele>125.11</ele>
        <time>2020-07-23T07:19:30Z</time>
      </trkpt>
      <trkpt lat="44.8001" lon="0.46221">
        <ele>126.55</ele>
        <time>2020-07-23T07:19:48Z</time>
      </trkpt>
      <trkpt lat="44.80018" lon="0.46213">
        <ele>126.55</ele>
        <time>2020-07-23T07:20:03Z</time>
      </trkpt>
      <trkpt lat="44.80021" lon="0.46214">
        <ele>127.03</ele>
        <time>2020-07-23T07:20:20Z</time>
      </trkpt>
      <trkpt lat="44.80022" lon="0.46218">
        <ele>127.03</ele>
        <time>2020-07-23T07:20:35Z</time>
      </trkpt>
      <trkpt lat="44.80034" lon="0.46219">
        <ele>127.03</ele>
        <time>2020-07-23T07:20:51Z</time>
      </trkpt>
      <trkpt lat="44.80053" lon="0.46211">
        <ele>127.99</ele>
        <time>2020-07-23T07:21:08Z</time>
      </trkpt>
      <trkpt lat="44.80071" lon="0.46207">
        <ele>129.92</ele>
        <time>2020-07-23T07:21:25Z</time>
      </trkpt>
      <trkpt lat="44.80088" lon="0.46196">
        <ele>130.88</ele>
        <time>2020-07-23T07:21:43Z</time>
      </trkpt>
      <trkpt lat="44.80093" lon="0.46188">
        <ele>131.84</ele>
        <time>2020-07-23T07:21:50Z</time>
      </trkpt>
      <trkpt lat="44.80106" lon="0.4617">
        <ele>131.84</ele>
        <time>2020-07-23T07:22:07Z</time>
      </trkpt>
      <trkpt lat="44.80115" lon="0.46151">
        <ele>133.28</ele>
        <time>2020-07-23T07:22:23Z</time>
      </trkpt>
      <trkpt lat="44.80122" lon="0.4613">
        <ele>133.76</ele>
        <time>2020-07-23T07:22:40Z</time>
      </trkpt>
      <trkpt lat="44.80124" lon="0.46119">
        <ele>134.24</ele>
        <time>2020-07-23T07:22:48Z</time>
      </trkpt>
      <trkpt lat="44.80131" lon="0.46097">
        <ele>135.2</ele>
        <time>2020-07-23T07:23:05Z</time>
      </trkpt>
      <trkpt lat="44.80136" lon="0.46076">
        <ele>136.16</ele>
        <time>2020-07-23T07:23:20Z</time>
      </trkpt>
      <trkpt lat="44.80137" lon="0.46065">
        <ele>136.64</ele>
        <time>2020-07-23T07:23:28Z</time>
      </trkpt>
      <trkpt lat="44.8014" lon="0.4604">
        <ele>138.09</ele>
        <time>2020-07-23T07:23:45Z</time>
      </trkpt>
      <trkpt lat="44.80139" lon="0.46015">
        <ele>139.05</ele>
        <time>2020-07-23T07:24:04Z</time>
      </trkpt>
      <trkpt lat="44.80135" lon="0.4599">
        <ele>140.49</ele>
        <time>2020-07-23T07:24:22Z</time>
      </trkpt>
      <trkpt lat="44.80131" lon="0.45966">
        <ele>141.45</ele>
        <time>2020-07-23T07:24:41Z</time>
      </trkpt>
      <trkpt lat="44.8013" lon="0.4596">
        <ele>141.45</ele>
        <time>2020-07-23T07:24:46Z</time>
      </trkpt>
      <trkpt lat="44.80128" lon="0.4593">
        <ele>142.89</ele>
        <time>2020-07-23T07:25:06Z</time>
      </trkpt>
      <trkpt lat="44.80126" lon="0.45902">
        <ele>144.34</ele>
        <time>2020-07-23T07:25:25Z</time>
      </trkpt>
      <trkpt lat="44.80125" lon="0.45876">
        <ele>145.78</ele>
        <time>2020-07-23T07:25:42Z</time>
      </trkpt>
      <trkpt lat="44.80121" lon="0.45849">
        <ele>146.26</ele>
        <time>2020-07-23T07:26:00Z</time>
      </trkpt>
      <trkpt lat="44.80112" lon="0.45819">
        <ele>147.7</ele>
        <time>2020-07-23T07:26:20Z</time>
      </trkpt>
      <trkpt lat="44.80103" lon="0.45799">
        <ele>148.66</ele>
        <time>2020-07-23T07:26:41Z</time>
      </trkpt>
      <trkpt lat="44.80093" lon="0.45775">
        <ele>150.58</ele>
        <time>2020-07-23T07:27:00Z</time>
      </trkpt>
      <trkpt lat="44.80083" lon="0.4575">
        <ele>151.54</ele>
        <time>2020-07-23T07:27:19Z</time>
      </trkpt>
      <trkpt lat="44.80073" lon="0.4573">
        <ele>152.03</ele>
        <time>2020-07-23T07:27:38Z</time>
      </trkpt>
      <trkpt lat="44.8006" lon="0.45714">
        <ele>153.47</ele>
        <time>2020-07-23T07:27:57Z</time>
      </trkpt>
      <trkpt lat="44.80064" lon="0.45708">
        <ele>152.51</ele>
        <time>2020-07-23T07:28:27Z</time>
      </trkpt>
      <trkpt lat="44.80064" lon="0.45711">
        <ele>152.51</ele>
        <time>2020-07-23T07:28:51Z</time>
      </trkpt>
      <trkpt lat="44.80062" lon="0.45709">
        <ele>152.99</ele>
        <time>2020-07-23T07:29:11Z</time>
      </trkpt>
      <trkpt lat="44.80063" lon="0.45707">
        <ele>152.51</ele>
        <time>2020-07-23T07:29:30Z</time>
      </trkpt>
      <trkpt lat="44.8006" lon="0.45706">
        <ele>152.51</ele>
        <time>2020-07-23T07:29:55Z</time>
      </trkpt>
      <trkpt lat="44.80064" lon="0.45703">
        <ele>152.51</ele>
        <time>2020-07-23T07:30:19Z</time>
      </trkpt>
      <trkpt lat="44.80059" lon="0.45708">
        <ele>152.51</ele>
        <time>2020-07-23T07:30:40Z</time>
      </trkpt>
      <trkpt lat="44.80055" lon="0.45706">
        <ele>152.51</ele>
        <time>2020-07-23T07:31:13Z</time>
      </trkpt>
      <trkpt lat="44.80059" lon="0.45706">
        <ele>152.51</ele>
        <time>2020-07-23T07:31:45Z</time>
      </trkpt>
      <trkpt lat="44.80054" lon="0.45705">
        <ele>152.51</ele>
        <time>2020-07-23T07:32:03Z</time>
      </trkpt>
      <trkpt lat="44.80051" lon="0.45701">
        <ele>153.47</ele>
        <time>2020-07-23T07:32:21Z</time>
      </trkpt>
      <trkpt lat="44.80051" lon="0.45691">
        <ele>153.47</ele>
        <time>2020-07-23T07:32:39Z</time>
      </trkpt>
      <trkpt lat="44.8005" lon="0.45692">
        <ele>153.47</ele>
        <time>2020-07-23T07:33:17Z</time>
      </trkpt>
      <trkpt lat="44.80051" lon="0.45672">
        <ele>153.47</ele>
        <time>2020-07-23T07:33:33Z</time>
      </trkpt>
      <trkpt lat="44.80056" lon="0.45662">
        <ele>153.47</ele>
        <time>2020-07-23T07:33:41Z</time>
      </trkpt>
      <trkpt lat="44.80058" lon="0.45655">
        <ele>153.47</ele>
        <time>2020-07-23T07:33:47Z</time>
      </trkpt>
      <trkpt lat="44.80058" lon="0.45652">
        <ele>153.47</ele>
        <time>2020-07-23T07:33:49Z</time>
      </trkpt>
      <trkpt lat="44.80065" lon="0.4563">
        <ele>153.47</ele>
        <time>2020-07-23T07:34:07Z</time>
      </trkpt>
      <trkpt lat="44.80073" lon="0.45608">
        <ele>153.47</ele>
        <time>2020-07-23T07:34:25Z</time>
      </trkpt>
      <trkpt lat="44.80081" lon="0.4559">
        <ele>153.47</ele>
        <time>2020-07-23T07:34:42Z</time>
      </trkpt>
      <trkpt lat="44.80089" lon="0.45558">
        <ele>153.47</ele>
        <time>2020-07-23T07:35:01Z</time>
      </trkpt>
      <trkpt lat="44.80102" lon="0.45526">
        <ele>153.47</ele>
        <time>2020-07-23T07:35:23Z</time>
      </trkpt>
      <trkpt lat="44.80115" lon="0.45494">
        <ele>153.47</ele>
        <time>2020-07-23T07:35:46Z</time>
      </trkpt>
      <trkpt lat="44.80126" lon="0.45463">
        <ele>153.47</ele>
        <time>2020-07-23T07:36:07Z</time>
      </trkpt>
      <trkpt lat="44.80134" lon="0.45439">
        <ele>153.95</ele>
        <time>2020-07-23T07:36:23Z</time>
      </trkpt>
      <trkpt lat="44.80141" lon="0.45414">
        <ele>153.95</ele>
        <time>2020-07-23T07:36:41Z</time>
      </trkpt>
      <trkpt lat="44.80148" lon="0.45384">
        <ele>153.95</ele>
        <time>2020-07-23T07:36:59Z</time>
      </trkpt>
      <trkpt lat="44.80151" lon="0.45376">
        <ele>152.51</ele>
        <time>2020-07-23T07:37:04Z</time>
      </trkpt>
      <trkpt lat="44.8016" lon="0.45348">
        <ele>152.03</ele>
        <time>2020-07-23T07:37:24Z</time>
      </trkpt>
      <trkpt lat="44.80166" lon="0.45328">
        <ele>152.03</ele>
        <time>2020-07-23T07:37:41Z</time>
      </trkpt>
      <trkpt lat="44.80167" lon="0.45327">
        <ele>152.03</ele>
        <time>2020-07-23T07:38:10Z</time>
      </trkpt>
      <trkpt lat="44.80162" lon="0.4532">
        <ele>151.54</ele>
        <time>2020-07-23T07:38:26Z</time>
      </trkpt>
      <trkpt lat="44.80158" lon="0.45319">
        <ele>151.54</ele>
        <time>2020-07-23T07:38:47Z</time>
      </trkpt>
      <trkpt lat="44.80156" lon="0.45318">
        <ele>151.54</ele>
        <time>2020-07-23T07:38:49Z</time>
      </trkpt>
      <trkpt lat="44.80152" lon="0.45315">
        <ele>151.54</ele>
        <time>2020-07-23T07:38:53Z</time>
      </trkpt>
      <trkpt lat="44.80135" lon="0.453">
        <ele>151.54</ele>
        <time>2020-07-23T07:39:10Z</time>
      </trkpt>
      <trkpt lat="44.80108" lon="0.45282">
        <ele>152.99</ele>
        <time>2020-07-23T07:39:34Z</time>
      </trkpt>
      <trkpt lat="44.80082" lon="0.45262">
        <ele>152.99</ele>
        <time>2020-07-23T07:39:57Z</time>
      </trkpt>
      <trkpt lat="44.80063" lon="0.45246">
        <ele>153.95</ele>
        <time>2020-07-23T07:40:16Z</time>
      </trkpt>
      <trkpt lat="44.80058" lon="0.45242">
        <ele>153.95</ele>
        <time>2020-07-23T07:40:22Z</time>
      </trkpt>
      <trkpt lat="44.80044" lon="0.4523">
        <ele>154.91</ele>
        <time>2020-07-23T07:40:42Z</time>
      </trkpt>
      <trkpt lat="44.80043" lon="0.4523">
        <ele>154.91</ele>
        <time>2020-07-23T07:40:49Z</time>
      </trkpt>
      <trkpt lat="44.8004" lon="0.4523">
        <ele>154.91</ele>
        <time>2020-07-23T07:40:52Z</time>
      </trkpt>
      <trkpt lat="44.80028" lon="0.45221">
        <ele>155.39</ele>
        <time>2020-07-23T07:41:05Z</time>
      </trkpt>
      <trkpt lat="44.80026" lon="0.45219">
        <ele>155.39</ele>
        <time>2020-07-23T07:41:07Z</time>
      </trkpt>
      <trkpt lat="44.80014" lon="0.45207">
        <ele>155.87</ele>
        <time>2020-07-23T07:41:21Z</time>
      </trkpt>
      <trkpt lat="44.80002" lon="0.45198">
        <ele>157.31</ele>
        <time>2020-07-23T07:41:35Z</time>
      </trkpt>
      <trkpt lat="44.79983" lon="0.45186">
        <ele>159.24</ele>
        <time>2020-07-23T07:41:54Z</time>
      </trkpt>
      <trkpt lat="44.7997" lon="0.45176">
        <ele>159.72</ele>
        <time>2020-07-23T07:42:09Z</time>
      </trkpt>
      <trkpt lat="44.7996" lon="0.45167">
        <ele>159.72</ele>
        <time>2020-07-23T07:42:20Z</time>
      </trkpt>
      <trkpt lat="44.79958" lon="0.45164">
        <ele>160.2</ele>
        <time>2020-07-23T07:42:22Z</time>
      </trkpt>
      <trkpt lat="44.79954" lon="0.45145">
        <ele>159.72</ele>
        <time>2020-07-23T07:42:37Z</time>
      </trkpt>
      <trkpt lat="44.79952" lon="0.45124">
        <ele>159.72</ele>
        <time>2020-07-23T07:42:52Z</time>
      </trkpt>
      <trkpt lat="44.79947" lon="0.45112">
        <ele>159.72</ele>
        <time>2020-07-23T07:43:06Z</time>
      </trkpt>
      <trkpt lat="44.79945" lon="0.45104">
        <ele>159.72</ele>
        <time>2020-07-23T07:43:19Z</time>
      </trkpt>
      <trkpt lat="44.79942" lon="0.45107">
        <ele>158.27</ele>
        <time>2020-07-23T07:43:38Z</time>
      </trkpt>
      <trkpt lat="44.79945" lon="0.45109">
        <ele>158.27</ele>
        <time>2020-07-23T07:44:04Z</time>
      </trkpt>
      <trkpt lat="44.79944" lon="0.45107">
        <ele>158.27</ele>
        <time>2020-07-23T07:44:30Z</time>
      </trkpt>
      <trkpt lat="44.79941" lon="0.45101">
        <ele>158.27</ele>
        <time>2020-07-23T07:44:59Z</time>
      </trkpt>
      <trkpt lat="44.7994" lon="0.45068">
        <ele>158.27</ele>
        <time>2020-07-23T07:45:22Z</time>
      </trkpt>
      <trkpt lat="44.79943" lon="0.45052">
        <ele>157.79</ele>
        <time>2020-07-23T07:45:31Z</time>
      </trkpt>
      <trkpt lat="44.79946" lon="0.45048">
        <ele>157.79</ele>
        <time>2020-07-23T07:45:35Z</time>
      </trkpt>
      <trkpt lat="44.79938" lon="0.45027">
        <ele>157.79</ele>
        <time>2020-07-23T07:45:54Z</time>
      </trkpt>
      <trkpt lat="44.79937" lon="0.45026">
        <ele>157.79</ele>
        <time>2020-07-23T07:45:55Z</time>
      </trkpt>
      <trkpt lat="44.79924" lon="0.45024">
        <ele>157.31</ele>
        <time>2020-07-23T07:46:10Z</time>
      </trkpt>
      <trkpt lat="44.79918" lon="0.45028">
        <ele>158.75</ele>
        <time>2020-07-23T07:46:16Z</time>
      </trkpt>
      <trkpt lat="44.79904" lon="0.45029">
        <ele>158.27</ele>
        <time>2020-07-23T07:46:29Z</time>
      </trkpt>
      <trkpt lat="44.79876" lon="0.45029">
        <ele>158.75</ele>
        <time>2020-07-23T07:46:51Z</time>
      </trkpt>
      <trkpt lat="44.79854" lon="0.45027">
        <ele>157.31</ele>
        <time>2020-07-23T07:47:09Z</time>
      </trkpt>
      <trkpt lat="44.79842" lon="0.45021">
        <ele>156.83</ele>
        <time>2020-07-23T07:47:23Z</time>
      </trkpt>
      <trkpt lat="44.79843" lon="0.45005">
        <ele>156.35</ele>
        <time>2020-07-23T07:47:37Z</time>
      </trkpt>
      <trkpt lat="44.79847" lon="0.44997">
        <ele>156.35</ele>
        <time>2020-07-23T07:47:59Z</time>
      </trkpt>
      <trkpt lat="44.79847" lon="0.45002">
        <ele>156.35</ele>
        <time>2020-07-23T07:48:33Z</time>
      </trkpt>
      <trkpt lat="44.79846" lon="0.44995">
        <ele>156.35</ele>
        <time>2020-07-23T07:48:57Z</time>
      </trkpt>
      <trkpt lat="44.79847" lon="0.44979">
        <ele>156.35</ele>
        <time>2020-07-23T07:49:10Z</time>
      </trkpt>
      <trkpt lat="44.79847" lon="0.44961">
        <ele>155.39</ele>
        <time>2020-07-23T07:49:21Z</time>
      </trkpt>
      <trkpt lat="44.7985" lon="0.44943">
        <ele>155.39</ele>
        <time>2020-07-23T07:49:32Z</time>
      </trkpt>
      <trkpt lat="44.79852" lon="0.4491">
        <ele>155.39</ele>
        <time>2020-07-23T07:49:53Z</time>
      </trkpt>
      <trkpt lat="44.79853" lon="0.44903">
        <ele>153.95</ele>
        <time>2020-07-23T07:50:29Z</time>
      </trkpt>
      <trkpt lat="44.79857" lon="0.44866">
        <ele>155.39</ele>
        <time>2020-07-23T07:50:51Z</time>
      </trkpt>
      <trkpt lat="44.79859" lon="0.44831">
        <ele>153.95</ele>
        <time>2020-07-23T07:51:12Z</time>
      </trkpt>
      <trkpt lat="44.79854" lon="0.448">
        <ele>154.43</ele>
        <time>2020-07-23T07:51:30Z</time>
      </trkpt>
      <trkpt lat="44.79846" lon="0.44766">
        <ele>154.43</ele>
        <time>2020-07-23T07:51:49Z</time>
      </trkpt>
      <trkpt lat="44.79844" lon="0.44737">
        <ele>155.87</ele>
        <time>2020-07-23T07:52:05Z</time>
      </trkpt>
      <trkpt lat="44.79843" lon="0.44714">
        <ele>154.43</ele>
        <time>2020-07-23T07:52:21Z</time>
      </trkpt>
      <trkpt lat="44.79837" lon="0.44677">
        <ele>153.95</ele>
        <time>2020-07-23T07:52:42Z</time>
      </trkpt>
      <trkpt lat="44.79833" lon="0.44641">
        <ele>151.54</ele>
        <time>2020-07-23T07:53:00Z</time>
      </trkpt>
      <trkpt lat="44.79835" lon="0.44616">
        <ele>150.1</ele>
        <time>2020-07-23T07:53:17Z</time>
      </trkpt>
      <trkpt lat="44.79836" lon="0.44612">
        <ele>151.54</ele>
        <time>2020-07-23T07:53:29Z</time>
      </trkpt>
      <trkpt lat="44.79836" lon="0.4461">
        <ele>151.54</ele>
        <time>2020-07-23T07:53:47Z</time>
      </trkpt>
      <trkpt lat="44.79834" lon="0.44607">
        <ele>151.54</ele>
        <time>2020-07-23T07:54:12Z</time>
      </trkpt>
      <trkpt lat="44.79835" lon="0.44604">
        <ele>150.1</ele>
        <time>2020-07-23T07:54:20Z</time>
      </trkpt>
      <trkpt lat="44.79835" lon="0.446">
        <ele>148.18</ele>
        <time>2020-07-23T07:54:36Z</time>
      </trkpt>
      <trkpt lat="44.79836" lon="0.44593">
        <ele>148.18</ele>
        <time>2020-07-23T07:54:58Z</time>
      </trkpt>
      <trkpt lat="44.79839" lon="0.44597">
        <ele>148.18</ele>
        <time>2020-07-23T07:55:02Z</time>
      </trkpt>
      <trkpt lat="44.79855" lon="0.44593">
        <ele>148.18</ele>
        <time>2020-07-23T07:55:18Z</time>
      </trkpt>
      <trkpt lat="44.79868" lon="0.44588">
        <ele>148.18</ele>
        <time>2020-07-23T07:55:37Z</time>
      </trkpt>
      <trkpt lat="44.79871" lon="0.44589">
        <ele>148.18</ele>
        <time>2020-07-23T07:55:56Z</time>
      </trkpt>
      <trkpt lat="44.7988" lon="0.44597">
        <ele>149.62</ele>
        <time>2020-07-23T07:56:06Z</time>
      </trkpt>
      <trkpt lat="44.79897" lon="0.44595">
        <ele>150.1</ele>
        <time>2020-07-23T07:56:23Z</time>
      </trkpt>
      <trkpt lat="44.79898" lon="0.44591">
        <ele>148.66</ele>
        <time>2020-07-23T07:56:30Z</time>
      </trkpt>
      <trkpt lat="44.79898" lon="0.44592">
        <ele>148.66</ele>
        <time>2020-07-23T07:56:42Z</time>
      </trkpt>
      <trkpt lat="44.79916" lon="0.446">
        <ele>147.7</ele>
        <time>2020-07-23T07:57:00Z</time>
      </trkpt>
      <trkpt lat="44.79918" lon="0.44601">
        <ele>149.62</ele>
        <time>2020-07-23T07:57:02Z</time>
      </trkpt>
      <trkpt lat="44.79922" lon="0.44602">
        <ele>147.7</ele>
        <time>2020-07-23T07:57:06Z</time>
      </trkpt>
      <trkpt lat="44.79928" lon="0.44604">
        <ele>148.66</ele>
        <time>2020-07-23T07:57:11Z</time>
      </trkpt>
      <trkpt lat="44.79951" lon="0.44608">
        <ele>147.7</ele>
        <time>2020-07-23T07:57:29Z</time>
      </trkpt>
      <trkpt lat="44.79952" lon="0.44608">
        <ele>147.7</ele>
        <time>2020-07-23T07:57:31Z</time>
      </trkpt>
      <trkpt lat="44.79962" lon="0.44578">
        <ele>144.82</ele>
        <time>2020-07-23T07:57:50Z</time>
      </trkpt>
      <trkpt lat="44.7997" lon="0.44559">
        <ele>143.85</ele>
        <time>2020-07-23T07:58:02Z</time>
      </trkpt>
      <trkpt lat="44.79971" lon="0.44556">
        <ele>144.82</ele>
        <time>2020-07-23T07:58:04Z</time>
      </trkpt>
      <trkpt lat="44.79972" lon="0.4455">
        <ele>143.85</ele>
        <time>2020-07-23T07:58:07Z</time>
      </trkpt>
      <trkpt lat="44.79982" lon="0.44517">
        <ele>142.89</ele>
        <time>2020-07-23T07:58:27Z</time>
      </trkpt>
      <trkpt lat="44.7999" lon="0.44491">
        <ele>141.93</ele>
        <time>2020-07-23T07:58:45Z</time>
      </trkpt>
      <trkpt lat="44.79992" lon="0.44485">
        <ele>140.01</ele>
        <time>2020-07-23T07:58:49Z</time>
      </trkpt>
      <trkpt lat="44.79993" lon="0.44482">
        <ele>140.97</ele>
        <time>2020-07-23T07:58:51Z</time>
      </trkpt>
      <trkpt lat="44.79998" lon="0.44464">
        <ele>139.53</ele>
        <time>2020-07-23T07:59:06Z</time>
      </trkpt>
      <trkpt lat="44.80002" lon="0.4445">
        <ele>138.09</ele>
        <time>2020-07-23T07:59:20Z</time>
      </trkpt>
      <trkpt lat="44.80013" lon="0.44417">
        <ele>136.64</ele>
        <time>2020-07-23T07:59:40Z</time>
      </trkpt>
      <trkpt lat="44.80025" lon="0.44384">
        <ele>135.2</ele>
        <time>2020-07-23T08:00:02Z</time>
      </trkpt>
      <trkpt lat="44.8003" lon="0.44385">
        <ele>135.2</ele>
        <time>2020-07-23T08:00:06Z</time>
      </trkpt>
      <trkpt lat="44.80037" lon="0.44391">
        <ele>136.16</ele>
        <time>2020-07-23T08:00:20Z</time>
      </trkpt>
      <trkpt lat="44.80037" lon="0.44388">
        <ele>136.16</ele>
        <time>2020-07-23T08:00:28Z</time>
      </trkpt>
      <trkpt lat="44.80048" lon="0.44397">
        <ele>136.16</ele>
        <time>2020-07-23T08:00:46Z</time>
      </trkpt>
      <trkpt lat="44.80046" lon="0.44396">
        <ele>135.68</ele>
        <time>2020-07-23T08:01:00Z</time>
      </trkpt>
      <trkpt lat="44.80049" lon="0.44396">
        <ele>135.68</ele>
        <time>2020-07-23T08:01:27Z</time>
      </trkpt>
      <trkpt lat="44.80049" lon="0.44395">
        <ele>135.2</ele>
        <time>2020-07-23T08:01:51Z</time>
      </trkpt>
      <trkpt lat="44.80049" lon="0.44393">
        <ele>135.2</ele>
        <time>2020-07-23T08:02:08Z</time>
      </trkpt>
      <trkpt lat="44.80054" lon="0.44387">
        <ele>134.72</ele>
        <time>2020-07-23T08:02:31Z</time>
      </trkpt>
      <trkpt lat="44.80058" lon="0.44381">
        <ele>134.72</ele>
        <time>2020-07-23T08:02:46Z</time>
      </trkpt>
      <trkpt lat="44.80076" lon="0.4436">
        <ele>136.16</ele>
        <time>2020-07-23T08:03:07Z</time>
      </trkpt>
      <trkpt lat="44.80078" lon="0.44363">
        <ele>136.16</ele>
        <time>2020-07-23T08:03:11Z</time>
      </trkpt>
      <trkpt lat="44.80077" lon="0.44365">
        <ele>134.72</ele>
        <time>2020-07-23T08:03:17Z</time>
      </trkpt>
      <trkpt lat="44.80084" lon="0.44346">
        <ele>136.16</ele>
        <time>2020-07-23T08:03:33Z</time>
      </trkpt>
      <trkpt lat="44.80085" lon="0.44345">
        <ele>136.64</ele>
        <time>2020-07-23T08:03:58Z</time>
      </trkpt>
      <trkpt lat="44.80093" lon="0.44335">
        <ele>138.09</ele>
        <time>2020-07-23T08:04:10Z</time>
      </trkpt>
      <trkpt lat="44.80112" lon="0.44316">
        <ele>138.57</ele>
        <time>2020-07-23T08:04:30Z</time>
      </trkpt>
      <trkpt lat="44.80112" lon="0.44315">
        <ele>139.05</ele>
        <time>2020-07-23T08:04:31Z</time>
      </trkpt>
      <trkpt lat="44.80131" lon="0.44292">
        <ele>140.97</ele>
        <time>2020-07-23T08:04:52Z</time>
      </trkpt>
      <trkpt lat="44.80147" lon="0.44269">
        <ele>141.93</ele>
        <time>2020-07-23T08:05:14Z</time>
      </trkpt>
      <trkpt lat="44.80162" lon="0.44251">
        <ele>144.34</ele>
        <time>2020-07-23T08:05:33Z</time>
      </trkpt>
      <trkpt lat="44.80177" lon="0.44227">
        <ele>146.26</ele>
        <time>2020-07-23T08:05:54Z</time>
      </trkpt>
      <trkpt lat="44.80192" lon="0.44207">
        <ele>147.22</ele>
        <time>2020-07-23T08:06:14Z</time>
      </trkpt>
      <trkpt lat="44.80206" lon="0.44189">
        <ele>148.66</ele>
        <time>2020-07-23T08:06:34Z</time>
      </trkpt>
      <trkpt lat="44.80218" lon="0.4417">
        <ele>149.62</ele>
        <time>2020-07-23T08:06:52Z</time>
      </trkpt>
      <trkpt lat="44.80231" lon="0.44154">
        <ele>151.06</ele>
        <time>2020-07-23T08:07:10Z</time>
      </trkpt>
      <trkpt lat="44.80233" lon="0.44152">
        <ele>151.54</ele>
        <time>2020-07-23T08:07:12Z</time>
      </trkpt>
      <trkpt lat="44.80245" lon="0.44135">
        <ele>152.51</ele>
        <time>2020-07-23T08:07:30Z</time>
      </trkpt>
      <trkpt lat="44.80256" lon="0.44121">
        <ele>153.47</ele>
        <time>2020-07-23T08:07:47Z</time>
      </trkpt>
      <trkpt lat="44.8026" lon="0.44117">
        <ele>153.47</ele>
        <time>2020-07-23T08:08:00Z</time>
      </trkpt>
      <trkpt lat="44.80258" lon="0.44121">
        <ele>153.95</ele>
        <time>2020-07-23T08:08:19Z</time>
      </trkpt>
      <trkpt lat="44.80259" lon="0.44121">
        <ele>153.95</ele>
        <time>2020-07-23T08:08:47Z</time>
      </trkpt>
      <trkpt lat="44.80259" lon="0.4412">
        <ele>153.95</ele>
        <time>2020-07-23T08:09:19Z</time>
      </trkpt>
      <trkpt lat="44.80262" lon="0.44114">
        <ele>154.43</ele>
        <time>2020-07-23T08:09:45Z</time>
      </trkpt>
      <trkpt lat="44.80262" lon="0.44104">
        <ele>154.43</ele>
        <time>2020-07-23T08:09:53Z</time>
      </trkpt>
      <trkpt lat="44.80244" lon="0.4409">
        <ele>152.99</ele>
        <time>2020-07-23T08:10:12Z</time>
      </trkpt>
      <trkpt lat="44.80241" lon="0.44087">
        <ele>152.99</ele>
        <time>2020-07-23T08:10:16Z</time>
      </trkpt>
      <trkpt lat="44.8024" lon="0.44075">
        <ele>153.47</ele>
        <time>2020-07-23T08:10:29Z</time>
      </trkpt>
      <trkpt lat="44.8024" lon="0.44076">
        <ele>153.47</ele>
        <time>2020-07-23T08:10:52Z</time>
      </trkpt>
      <trkpt lat="44.80239" lon="0.44075">
        <ele>153.47</ele>
        <time>2020-07-23T08:11:05Z</time>
      </trkpt>
      <trkpt lat="44.80237" lon="0.44076">
        <ele>153.47</ele>
        <time>2020-07-23T08:11:09Z</time>
      </trkpt>
      <trkpt lat="44.80227" lon="0.44075">
        <ele>153.47</ele>
        <time>2020-07-23T08:11:25Z</time>
      </trkpt>
      <trkpt lat="44.80214" lon="0.44065">
        <ele>151.06</ele>
        <time>2020-07-23T08:11:41Z</time>
      </trkpt>
      <trkpt lat="44.80203" lon="0.44058">
        <ele>152.51</ele>
        <time>2020-07-23T08:11:50Z</time>
      </trkpt>
      <trkpt lat="44.80199" lon="0.44055">
        <ele>152.03</ele>
        <time>2020-07-23T08:11:54Z</time>
      </trkpt>
      <trkpt lat="44.8018" lon="0.44043">
        <ele>152.03</ele>
        <time>2020-07-23T08:12:11Z</time>
      </trkpt>
      <trkpt lat="44.80173" lon="0.44038">
        <ele>150.58</ele>
        <time>2020-07-23T08:12:17Z</time>
      </trkpt>
      <trkpt lat="44.80149" lon="0.44021">
        <ele>150.1</ele>
        <time>2020-07-23T08:12:38Z</time>
      </trkpt>
      <trkpt lat="44.80126" lon="0.44003">
        <ele>149.14</ele>
        <time>2020-07-23T08:12:58Z</time>
      </trkpt>
      <trkpt lat="44.80101" lon="0.43988">
        <ele>149.14</ele>
        <time>2020-07-23T08:13:20Z</time>
      </trkpt>
      <trkpt lat="44.80091" lon="0.43979">
        <ele>148.66</ele>
        <time>2020-07-23T08:13:37Z</time>
      </trkpt>
      <trkpt lat="44.80066" lon="0.43957">
        <ele>148.66</ele>
        <time>2020-07-23T08:14:01Z</time>
      </trkpt>
      <trkpt lat="44.80063" lon="0.43951">
        <ele>148.66</ele>
        <time>2020-07-23T08:14:05Z</time>
      </trkpt>
      <trkpt lat="44.80045" lon="0.43928">
        <ele>148.18</ele>
        <time>2020-07-23T08:14:24Z</time>
      </trkpt>
      <trkpt lat="44.8003" lon="0.43907">
        <ele>148.18</ele>
        <time>2020-07-23T08:14:44Z</time>
      </trkpt>
      <trkpt lat="44.80018" lon="0.43888">
        <ele>149.14</ele>
        <time>2020-07-23T08:15:00Z</time>
      </trkpt>
      <trkpt lat="44.8" lon="0.43866">
        <ele>149.14</ele>
        <time>2020-07-23T08:15:20Z</time>
      </trkpt>
      <trkpt lat="44.79986" lon="0.43845">
        <ele>148.66</ele>
        <time>2020-07-23T08:15:36Z</time>
      </trkpt>
      <trkpt lat="44.79968" lon="0.43818">
        <ele>148.66</ele>
        <time>2020-07-23T08:15:58Z</time>
      </trkpt>
      <trkpt lat="44.79954" lon="0.43798">
        <ele>147.22</ele>
        <time>2020-07-23T08:16:15Z</time>
      </trkpt>
      <trkpt lat="44.79945" lon="0.43784">
        <ele>147.22</ele>
        <time>2020-07-23T08:16:28Z</time>
      </trkpt>
      <trkpt lat="44.79944" lon="0.43776">
        <ele>147.22</ele>
        <time>2020-07-23T08:16:33Z</time>
      </trkpt>
      <trkpt lat="44.79942" lon="0.43763">
        <ele>147.22</ele>
        <time>2020-07-23T08:16:41Z</time>
      </trkpt>
      <trkpt lat="44.79943" lon="0.43759">
        <ele>147.22</ele>
        <time>2020-07-23T08:16:44Z</time>
      </trkpt>
      <trkpt lat="44.79949" lon="0.43749">
        <ele>146.74</ele>
        <time>2020-07-23T08:16:51Z</time>
      </trkpt>
      <trkpt lat="44.7997" lon="0.43726">
        <ele>146.74</ele>
        <time>2020-07-23T08:17:12Z</time>
      </trkpt>
      <trkpt lat="44.79983" lon="0.43715">
        <ele>145.78</ele>
        <time>2020-07-23T08:17:28Z</time>
      </trkpt>
      <trkpt lat="44.79983" lon="0.43714">
        <ele>145.78</ele>
        <time>2020-07-23T08:17:29Z</time>
      </trkpt>
      <trkpt lat="44.79996" lon="0.43681">
        <ele>143.37</ele>
        <time>2020-07-23T08:17:50Z</time>
      </trkpt>
      <trkpt lat="44.80004" lon="0.43651">
        <ele>141.45</ele>
        <time>2020-07-23T08:18:09Z</time>
      </trkpt>
      <trkpt lat="44.80017" lon="0.43644">
        <ele>140.97</ele>
        <time>2020-07-23T08:18:25Z</time>
      </trkpt>
      <trkpt lat="44.80021" lon="0.43642">
        <ele>140.97</ele>
        <time>2020-07-23T08:18:39Z</time>
      </trkpt>
      <trkpt lat="44.8002" lon="0.43644">
        <ele>140.49</ele>
        <time>2020-07-23T08:19:04Z</time>
      </trkpt>
      <trkpt lat="44.80021" lon="0.4364">
        <ele>140.01</ele>
        <time>2020-07-23T08:19:23Z</time>
      </trkpt>
      <trkpt lat="44.80022" lon="0.43642">
        <ele>139.53</ele>
        <time>2020-07-23T08:19:45Z</time>
      </trkpt>
      <trkpt lat="44.80025" lon="0.43648">
        <ele>139.53</ele>
        <time>2020-07-23T08:20:16Z</time>
      </trkpt>
      <trkpt lat="44.80034" lon="0.4365">
        <ele>139.53</ele>
        <time>2020-07-23T08:20:32Z</time>
      </trkpt>
      <trkpt lat="44.80034" lon="0.43648">
        <ele>139.53</ele>
        <time>2020-07-23T08:20:55Z</time>
      </trkpt>
      <trkpt lat="44.80037" lon="0.43648">
        <ele>139.53</ele>
        <time>2020-07-23T08:21:24Z</time>
      </trkpt>
      <trkpt lat="44.80037" lon="0.43649">
        <ele>139.53</ele>
        <time>2020-07-23T08:21:52Z</time>
      </trkpt>
      <trkpt lat="44.80038" lon="0.4365">
        <ele>139.53</ele>
        <time>2020-07-23T08:22:30Z</time>
      </trkpt>
      <trkpt lat="44.80042" lon="0.4366">
        <ele>139.53</ele>
        <time>2020-07-23T08:22:47Z</time>
      </trkpt>
      <trkpt lat="44.80033" lon="0.4365">
        <ele>139.53</ele>
        <time>2020-07-23T08:23:03Z</time>
      </trkpt>
      <trkpt lat="44.80021" lon="0.43643">
        <ele>140.49</ele>
        <time>2020-07-23T08:23:22Z</time>
      </trkpt>
      <trkpt lat="44.80031" lon="0.43653">
        <ele>140.49</ele>
        <time>2020-07-23T08:23:37Z</time>
      </trkpt>
      <trkpt lat="44.80049" lon="0.43663">
        <ele>140.49</ele>
        <time>2020-07-23T08:23:55Z</time>
      </trkpt>
      <trkpt lat="44.80058" lon="0.4367">
        <ele>139.53</ele>
        <time>2020-07-23T08:24:08Z</time>
      </trkpt>
      <trkpt lat="44.80077" lon="0.4368">
        <ele>137.61</ele>
        <time>2020-07-23T08:24:26Z</time>
      </trkpt>
      <trkpt lat="44.80095" lon="0.43689">
        <ele>137.13</ele>
        <time>2020-07-23T08:24:45Z</time>
      </trkpt>
      <trkpt lat="44.80097" lon="0.4369">
        <ele>138.57</ele>
        <time>2020-07-23T08:24:47Z</time>
      </trkpt>
      <trkpt lat="44.80117" lon="0.43693">
        <ele>137.13</ele>
        <time>2020-07-23T08:25:01Z</time>
      </trkpt>
      <trkpt lat="44.80129" lon="0.43696">
        <ele>137.61</ele>
        <time>2020-07-23T08:25:21Z</time>
      </trkpt>
      <trkpt lat="44.80127" lon="0.43692">
        <ele>137.61</ele>
        <time>2020-07-23T08:25:45Z</time>
      </trkpt>
      <trkpt lat="44.80124" lon="0.43691">
        <ele>137.13</ele>
        <time>2020-07-23T08:26:14Z</time>
      </trkpt>
      <trkpt lat="44.80124" lon="0.43691">
        <ele>137.13</ele>
        <time>2020-07-23T08:26:38Z</time>
      </trkpt>
      <trkpt lat="44.80126" lon="0.43695">
        <ele>137.13</ele>
        <time>2020-07-23T08:27:10Z</time>
      </trkpt>
      <trkpt lat="44.80129" lon="0.43693">
        <ele>137.13</ele>
        <time>2020-07-23T08:27:45Z</time>
      </trkpt>
      <trkpt lat="44.80129" lon="0.43696">
        <ele>137.13</ele>
        <time>2020-07-23T08:28:15Z</time>
      </trkpt>
      <trkpt lat="44.80125" lon="0.43695">
        <ele>137.13</ele>
        <time>2020-07-23T08:28:59Z</time>
      </trkpt>
      <trkpt lat="44.80127" lon="0.43697">
        <ele>137.13</ele>
        <time>2020-07-23T08:29:36Z</time>
      </trkpt>
      <trkpt lat="44.80128" lon="0.43697">
        <ele>137.13</ele>
        <time>2020-07-23T08:30:04Z</time>
      </trkpt>
      <trkpt lat="44.80141" lon="0.437">
        <ele>138.09</ele>
        <time>2020-07-23T08:30:27Z</time>
      </trkpt>
      <trkpt lat="44.8016" lon="0.437">
        <ele>138.57</ele>
        <time>2020-07-23T08:30:48Z</time>
      </trkpt>
      <trkpt lat="44.80163" lon="0.43698">
        <ele>138.57</ele>
        <time>2020-07-23T08:31:09Z</time>
      </trkpt>
      <trkpt lat="44.80162" lon="0.43695">
        <ele>138.57</ele>
        <time>2020-07-23T08:31:33Z</time>
      </trkpt>
      <trkpt lat="44.8018" lon="0.43698">
        <ele>140.01</ele>
        <time>2020-07-23T08:31:52Z</time>
      </trkpt>
      <trkpt lat="44.80197" lon="0.43691">
        <ele>140.01</ele>
        <time>2020-07-23T08:32:11Z</time>
      </trkpt>
      <trkpt lat="44.802" lon="0.43689">
        <ele>138.57</ele>
        <time>2020-07-23T08:32:32Z</time>
      </trkpt>
      <trkpt lat="44.80199" lon="0.43685">
        <ele>138.57</ele>
        <time>2020-07-23T08:32:55Z</time>
      </trkpt>
      <trkpt lat="44.80201" lon="0.4368">
        <ele>138.09</ele>
        <time>2020-07-23T08:33:11Z</time>
      </trkpt>
      <trkpt lat="44.80201" lon="0.43678">
        <ele>137.13</ele>
        <time>2020-07-23T08:33:31Z</time>
      </trkpt>
      <trkpt lat="44.802" lon="0.43684">
        <ele>139.05</ele>
        <time>2020-07-23T08:33:50Z</time>
      </trkpt>
      <trkpt lat="44.80205" lon="0.43695">
        <ele>140.49</ele>
        <time>2020-07-23T08:34:08Z</time>
      </trkpt>
      <trkpt lat="44.80222" lon="0.43694">
        <ele>141.45</ele>
        <time>2020-07-23T08:34:25Z</time>
      </trkpt>
      <trkpt lat="44.80246" lon="0.43691">
        <ele>141.45</ele>
        <time>2020-07-23T08:34:47Z</time>
      </trkpt>
      <trkpt lat="44.8027" lon="0.43691">
        <ele>140.49</ele>
        <time>2020-07-23T08:35:02Z</time>
      </trkpt>
      <trkpt lat="44.8029" lon="0.43694">
        <ele>142.41</ele>
        <time>2020-07-23T08:35:22Z</time>
      </trkpt>
      <trkpt lat="44.80299" lon="0.43693">
        <ele>142.89</ele>
        <time>2020-07-23T08:35:30Z</time>
      </trkpt>
      <trkpt lat="44.8032" lon="0.43678">
        <ele>141.45</ele>
        <time>2020-07-23T08:35:48Z</time>
      </trkpt>
      <trkpt lat="44.80342" lon="0.43648">
        <ele>140.01</ele>
        <time>2020-07-23T08:36:14Z</time>
      </trkpt>
      <trkpt lat="44.80344" lon="0.43646">
        <ele>141.45</ele>
        <time>2020-07-23T08:36:16Z</time>
      </trkpt>
      <trkpt lat="44.80361" lon="0.43632">
        <ele>140.01</ele>
        <time>2020-07-23T08:36:35Z</time>
      </trkpt>
      <trkpt lat="44.80373" lon="0.4362">
        <ele>140.97</ele>
        <time>2020-07-23T08:36:56Z</time>
      </trkpt>
      <trkpt lat="44.80379" lon="0.43611">
        <ele>140.01</ele>
        <time>2020-07-23T08:37:17Z</time>
      </trkpt>
      <trkpt lat="44.80387" lon="0.43596">
        <ele>139.53</ele>
        <time>2020-07-23T08:37:37Z</time>
      </trkpt>
      <trkpt lat="44.80397" lon="0.43591">
        <ele>138.09</ele>
        <time>2020-07-23T08:37:50Z</time>
      </trkpt>
      <trkpt lat="44.804" lon="0.43587">
        <ele>136.64</ele>
        <time>2020-07-23T08:37:54Z</time>
      </trkpt>
      <trkpt lat="44.80403" lon="0.43576">
        <ele>134.24</ele>
        <time>2020-07-23T08:38:11Z</time>
      </trkpt>
      <trkpt lat="44.80405" lon="0.43564">
        <ele>133.28</ele>
        <time>2020-07-23T08:38:28Z</time>
      </trkpt>
      <trkpt lat="44.80404" lon="0.43577">
        <ele>134.72</ele>
        <time>2020-07-23T08:38:39Z</time>
      </trkpt>
      <trkpt lat="44.80413" lon="0.43588">
        <ele>134.24</ele>
        <time>2020-07-23T08:39:00Z</time>
      </trkpt>
      <trkpt lat="44.80432" lon="0.43593">
        <ele>130.88</ele>
        <time>2020-07-23T08:39:23Z</time>
      </trkpt>
      <trkpt lat="44.80454" lon="0.43596">
        <ele>127.51</ele>
        <time>2020-07-23T08:39:41Z</time>
      </trkpt>
      <trkpt lat="44.80476" lon="0.43597">
        <ele>127.99</ele>
        <time>2020-07-23T08:40:02Z</time>
      </trkpt>
      <trkpt lat="44.80489" lon="0.43601">
        <ele>127.99</ele>
        <time>2020-07-23T08:40:19Z</time>
      </trkpt>
      <trkpt lat="44.80503" lon="0.43605">
        <ele>129.92</ele>
        <time>2020-07-23T08:40:37Z</time>
      </trkpt>
      <trkpt lat="44.80513" lon="0.43608">
        <ele>131.36</ele>
        <time>2020-07-23T08:40:52Z</time>
      </trkpt>
      <trkpt lat="44.80528" lon="0.43613">
        <ele>134.72</ele>
        <time>2020-07-23T08:41:12Z</time>
      </trkpt>
      <trkpt lat="44.80544" lon="0.43612">
        <ele>136.16</ele>
        <time>2020-07-23T08:41:34Z</time>
      </trkpt>
      <trkpt lat="44.80561" lon="0.43615">
        <ele>139.53</ele>
        <time>2020-07-23T08:41:56Z</time>
      </trkpt>
      <trkpt lat="44.80575" lon="0.43612">
        <ele>139.53</ele>
        <time>2020-07-23T08:42:14Z</time>
      </trkpt>
      <trkpt lat="44.8059" lon="0.43606">
        <ele>139.53</ele>
        <time>2020-07-23T08:42:29Z</time>
      </trkpt>
      <trkpt lat="44.80596" lon="0.43605">
        <ele>139.53</ele>
        <time>2020-07-23T08:42:33Z</time>
      </trkpt>
      <trkpt lat="44.80623" lon="0.43596">
        <ele>139.05</ele>
        <time>2020-07-23T08:42:54Z</time>
      </trkpt>
      <trkpt lat="44.80644" lon="0.43593">
        <ele>139.53</ele>
        <time>2020-07-23T08:43:11Z</time>
      </trkpt>
      <trkpt lat="44.8067" lon="0.43589">
        <ele>138.57</ele>
        <time>2020-07-23T08:43:34Z</time>
      </trkpt>
      <trkpt lat="44.8069" lon="0.43582">
        <ele>138.57</ele>
        <time>2020-07-23T08:43:54Z</time>
      </trkpt>
      <trkpt lat="44.80708" lon="0.43578">
        <ele>137.13</ele>
        <time>2020-07-23T08:44:11Z</time>
      </trkpt>
      <trkpt lat="44.80737" lon="0.43574">
        <ele>136.64</ele>
        <time>2020-07-23T08:44:33Z</time>
      </trkpt>
      <trkpt lat="44.80748" lon="0.4357">
        <ele>136.64</ele>
        <time>2020-07-23T08:44:47Z</time>
      </trkpt>
      <trkpt lat="44.80757" lon="0.43557">
        <ele>136.16</ele>
        <time>2020-07-23T08:45:04Z</time>
      </trkpt>
      <trkpt lat="44.80764" lon="0.4354">
        <ele>136.16</ele>
        <time>2020-07-23T08:45:20Z</time>
      </trkpt>
      <trkpt lat="44.80765" lon="0.43536">
        <ele>136.16</ele>
        <time>2020-07-23T08:45:39Z</time>
      </trkpt>
      <trkpt lat="44.80764" lon="0.43536">
        <ele>136.16</ele>
        <time>2020-07-23T08:45:50Z</time>
      </trkpt>
      <trkpt lat="44.80753" lon="0.43529">
        <ele>136.16</ele>
        <time>2020-07-23T08:46:02Z</time>
      </trkpt>
      <trkpt lat="44.8075" lon="0.43524">
        <ele>136.16</ele>
        <time>2020-07-23T08:46:08Z</time>
      </trkpt>
      <trkpt lat="44.80744" lon="0.43502">
        <ele>135.68</ele>
        <time>2020-07-23T08:46:22Z</time>
      </trkpt>
      <trkpt lat="44.80743" lon="0.43494">
        <ele>135.68</ele>
        <time>2020-07-23T08:46:29Z</time>
      </trkpt>
      <trkpt lat="44.80741" lon="0.43476">
        <ele>135.2</ele>
        <time>2020-07-23T08:46:42Z</time>
      </trkpt>
      <trkpt lat="44.80736" lon="0.43454">
        <ele>133.28</ele>
        <time>2020-07-23T08:46:57Z</time>
      </trkpt>
      <trkpt lat="44.80728" lon="0.43424">
        <ele>131.36</ele>
        <time>2020-07-23T08:47:16Z</time>
      </trkpt>
      <trkpt lat="44.80718" lon="0.43408">
        <ele>128.95</ele>
        <time>2020-07-23T08:47:31Z</time>
      </trkpt>
      <trkpt lat="44.80702" lon="0.43386">
        <ele>125.59</ele>
        <time>2020-07-23T08:47:53Z</time>
      </trkpt>
      <trkpt lat="44.8069" lon="0.43361">
        <ele>124.15</ele>
        <time>2020-07-23T08:48:11Z</time>
      </trkpt>
      <trkpt lat="44.80684" lon="0.43356">
        <ele>124.15</ele>
        <time>2020-07-23T08:48:19Z</time>
      </trkpt>
      <trkpt lat="44.80679" lon="0.43349">
        <ele>124.15</ele>
        <time>2020-07-23T08:48:34Z</time>
      </trkpt>
      <trkpt lat="44.80678" lon="0.43353">
        <ele>123.67</ele>
        <time>2020-07-23T08:48:49Z</time>
      </trkpt>
      <trkpt lat="44.80692" lon="0.43367">
        <ele>125.11</ele>
        <time>2020-07-23T08:49:06Z</time>
      </trkpt>
      <trkpt lat="44.80707" lon="0.4339">
        <ele>127.03</ele>
        <time>2020-07-23T08:49:26Z</time>
      </trkpt>
      <trkpt lat="44.80711" lon="0.434">
        <ele>128.47</ele>
        <time>2020-07-23T08:49:46Z</time>
      </trkpt>
      <trkpt lat="44.80709" lon="0.43398">
        <ele>127.51</ele>
        <time>2020-07-23T08:49:48Z</time>
      </trkpt>
      <trkpt lat="44.80695" lon="0.4338">
        <ele>126.55</ele>
        <time>2020-07-23T08:50:06Z</time>
      </trkpt>
      <trkpt lat="44.80681" lon="0.43363">
        <ele>125.11</ele>
        <time>2020-07-23T08:50:29Z</time>
      </trkpt>
      <trkpt lat="44.80663" lon="0.43351">
        <ele>124.15</ele>
        <time>2020-07-23T08:50:44Z</time>
      </trkpt>
      <trkpt lat="44.80652" lon="0.43339">
        <ele>123.67</ele>
        <time>2020-07-23T08:50:55Z</time>
      </trkpt>
      <trkpt lat="44.80643" lon="0.43323">
        <ele>123.19</ele>
        <time>2020-07-23T08:51:09Z</time>
      </trkpt>
      <trkpt lat="44.80637" lon="0.43298">
        <ele>121.74</ele>
        <time>2020-07-23T08:51:26Z</time>
      </trkpt>
      <trkpt lat="44.80629" lon="0.43282">
        <ele>121.26</ele>
        <time>2020-07-23T08:51:43Z</time>
      </trkpt>
      <trkpt lat="44.80621" lon="0.43269">
        <ele>118.86</ele>
        <time>2020-07-23T08:51:57Z</time>
      </trkpt>
      <trkpt lat="44.80613" lon="0.43259">
        <ele>117.9</ele>
        <time>2020-07-23T08:52:13Z</time>
      </trkpt>
      <trkpt lat="44.80619" lon="0.4325">
        <ele>116.94</ele>
        <time>2020-07-23T08:52:33Z</time>
      </trkpt>
      <trkpt lat="44.80605" lon="0.4324">
        <ele>115.98</ele>
        <time>2020-07-23T08:52:46Z</time>
      </trkpt>
      <trkpt lat="44.80596" lon="0.43234">
        <ele>115.5</ele>
        <time>2020-07-23T08:53:02Z</time>
      </trkpt>
      <trkpt lat="44.80593" lon="0.43231">
        <ele>116.46</ele>
        <time>2020-07-23T08:53:08Z</time>
      </trkpt>
      <trkpt lat="44.80576" lon="0.4322">
        <ele>113.57</ele>
        <time>2020-07-23T08:53:24Z</time>
      </trkpt>
      <trkpt lat="44.80573" lon="0.43217">
        <ele>112.13</ele>
        <time>2020-07-23T08:53:27Z</time>
      </trkpt>
      <trkpt lat="44.80572" lon="0.43215">
        <ele>113.57</ele>
        <time>2020-07-23T08:53:29Z</time>
      </trkpt>
      <trkpt lat="44.80567" lon="0.4321">
        <ele>112.13</ele>
        <time>2020-07-23T08:53:35Z</time>
      </trkpt>
      <trkpt lat="44.80564" lon="0.43204">
        <ele>111.17</ele>
        <time>2020-07-23T08:53:42Z</time>
      </trkpt>
      <trkpt lat="44.80563" lon="0.432">
        <ele>111.17</ele>
        <time>2020-07-23T08:54:03Z</time>
      </trkpt>
      <trkpt lat="44.80561" lon="0.43199">
        <ele>111.17</ele>
        <time>2020-07-23T08:54:30Z</time>
      </trkpt>
      <trkpt lat="44.80558" lon="0.43198">
        <ele>110.69</ele>
        <time>2020-07-23T08:55:14Z</time>
      </trkpt>
      <trkpt lat="44.80551" lon="0.43198">
        <ele>110.21</ele>
        <time>2020-07-23T08:55:40Z</time>
      </trkpt>
      <trkpt lat="44.80542" lon="0.43191">
        <ele>106.84</ele>
        <time>2020-07-23T08:55:51Z</time>
      </trkpt>
      <trkpt lat="44.8053" lon="0.43181">
        <ele>104.92</ele>
        <time>2020-07-23T08:56:02Z</time>
      </trkpt>
      <trkpt lat="44.80513" lon="0.43173">
        <ele>101.08</ele>
        <time>2020-07-23T08:56:16Z</time>
      </trkpt>
      <trkpt lat="44.80494" lon="0.43164">
        <ele>97.71</ele>
        <time>2020-07-23T08:56:29Z</time>
      </trkpt>
      <trkpt lat="44.80488" lon="0.4316">
        <ele>96.75</ele>
        <time>2020-07-23T08:56:41Z</time>
      </trkpt>
      <trkpt lat="44.80473" lon="0.43153">
        <ele>95.31</ele>
        <time>2020-07-23T08:56:57Z</time>
      </trkpt>
      <trkpt lat="44.80461" lon="0.43151">
        <ele>94.83</ele>
        <time>2020-07-23T08:57:15Z</time>
      </trkpt>
      <trkpt lat="44.80454" lon="0.43152">
        <ele>93.87</ele>
        <time>2020-07-23T08:57:29Z</time>
      </trkpt>
      <trkpt lat="44.80443" lon="0.43139">
        <ele>93.39</ele>
        <time>2020-07-23T08:57:43Z</time>
      </trkpt>
      <trkpt lat="44.80442" lon="0.43138">
        <ele>93.39</ele>
        <time>2020-07-23T08:57:44Z</time>
      </trkpt>
      <trkpt lat="44.80439" lon="0.43134">
        <ele>94.83</ele>
        <time>2020-07-23T08:57:47Z</time>
      </trkpt>
      <trkpt lat="44.80439" lon="0.43132">
        <ele>94.83</ele>
        <time>2020-07-23T08:57:48Z</time>
      </trkpt>
      <trkpt lat="44.80426" lon="0.43107">
        <ele>97.23</ele>
        <time>2020-07-23T08:58:09Z</time>
      </trkpt>
      <trkpt lat="44.80416" lon="0.43088">
        <ele>99.63</ele>
        <time>2020-07-23T08:58:27Z</time>
      </trkpt>
      <trkpt lat="44.80416" lon="0.43084">
        <ele>99.63</ele>
        <time>2020-07-23T08:58:30Z</time>
      </trkpt>
      <trkpt lat="44.80417" lon="0.43067">
        <ele>98.67</ele>
        <time>2020-07-23T08:58:41Z</time>
      </trkpt>
      <trkpt lat="44.80418" lon="0.43061">
        <ele>100.11</ele>
        <time>2020-07-23T08:58:45Z</time>
      </trkpt>
      <trkpt lat="44.80421" lon="0.43029">
        <ele>100.11</ele>
        <time>2020-07-23T08:59:04Z</time>
      </trkpt>
      <trkpt lat="44.80427" lon="0.43011">
        <ele>100.11</ele>
        <time>2020-07-23T08:59:18Z</time>
      </trkpt>
      <trkpt lat="44.80427" lon="0.43008">
        <ele>100.11</ele>
        <time>2020-07-23T08:59:20Z</time>
      </trkpt>
      <trkpt lat="44.8044" lon="0.42987">
        <ele>98.67</ele>
        <time>2020-07-23T08:59:36Z</time>
      </trkpt>
      <trkpt lat="44.80457" lon="0.42956">
        <ele>98.67</ele>
        <time>2020-07-23T08:59:59Z</time>
      </trkpt>
      <trkpt lat="44.8047" lon="0.42932">
        <ele>97.23</ele>
        <time>2020-07-23T09:00:16Z</time>
      </trkpt>
      <trkpt lat="44.80469" lon="0.42921">
        <ele>97.71</ele>
        <time>2020-07-23T09:00:31Z</time>
      </trkpt>
      <trkpt lat="44.8046" lon="0.42915">
        <ele>99.15</ele>
        <time>2020-07-23T09:00:46Z</time>
      </trkpt>
      <trkpt lat="44.8045" lon="0.42906">
        <ele>100.6</ele>
        <time>2020-07-23T09:01:01Z</time>
      </trkpt>
      <trkpt lat="44.80443" lon="0.42901">
        <ele>100.11</ele>
        <time>2020-07-23T09:01:17Z</time>
      </trkpt>
      <trkpt lat="44.80448" lon="0.42904">
        <ele>100.11</ele>
        <time>2020-07-23T09:01:36Z</time>
      </trkpt>
      <trkpt lat="44.80444" lon="0.42905">
        <ele>100.6</ele>
        <time>2020-07-23T09:02:15Z</time>
      </trkpt>
      <trkpt lat="44.80442" lon="0.42906">
        <ele>100.6</ele>
        <time>2020-07-23T09:02:59Z</time>
      </trkpt>
      <trkpt lat="44.80442" lon="0.42907">
        <ele>101.08</ele>
        <time>2020-07-23T09:03:33Z</time>
      </trkpt>
      <trkpt lat="44.80444" lon="0.42906">
        <ele>101.08</ele>
        <time>2020-07-23T09:03:54Z</time>
      </trkpt>
      <trkpt lat="44.80445" lon="0.42906">
        <ele>101.08</ele>
        <time>2020-07-23T09:04:09Z</time>
      </trkpt>
      <trkpt lat="44.80448" lon="0.42904">
        <ele>101.08</ele>
        <time>2020-07-23T09:04:38Z</time>
      </trkpt>
      <trkpt lat="44.80447" lon="0.42906">
        <ele>101.08</ele>
        <time>2020-07-23T09:04:58Z</time>
      </trkpt>
      <trkpt lat="44.80446" lon="0.42906">
        <ele>101.08</ele>
        <time>2020-07-23T09:05:22Z</time>
      </trkpt>
      <trkpt lat="44.80447" lon="0.42903">
        <ele>101.08</ele>
        <time>2020-07-23T09:05:43Z</time>
      </trkpt>
      <trkpt lat="44.80439" lon="0.42905">
        <ele>101.08</ele>
        <time>2020-07-23T09:06:01Z</time>
      </trkpt>
      <trkpt lat="44.80444" lon="0.42905">
        <ele>101.08</ele>
        <time>2020-07-23T09:06:33Z</time>
      </trkpt>
      <trkpt lat="44.80441" lon="0.429">
        <ele>101.08</ele>
        <time>2020-07-23T09:06:55Z</time>
      </trkpt>
      <trkpt lat="44.80439" lon="0.42899">
        <ele>101.08</ele>
        <time>2020-07-23T09:07:24Z</time>
      </trkpt>
      <trkpt lat="44.8044" lon="0.42902">
        <ele>101.08</ele>
        <time>2020-07-23T09:07:42Z</time>
      </trkpt>
      <trkpt lat="44.80445" lon="0.42908">
        <ele>101.08</ele>
        <time>2020-07-23T09:08:05Z</time>
      </trkpt>
      <trkpt lat="44.80441" lon="0.42927">
        <ele>101.56</ele>
        <time>2020-07-23T09:08:23Z</time>
      </trkpt>
      <trkpt lat="44.80438" lon="0.42933">
        <ele>102.04</ele>
        <time>2020-07-23T09:08:38Z</time>
      </trkpt>
      <trkpt lat="44.8044" lon="0.42927">
        <ele>100.6</ele>
        <time>2020-07-23T09:08:44Z</time>
      </trkpt>
      <trkpt lat="44.80449" lon="0.42913">
        <ele>100.6</ele>
        <time>2020-07-23T09:09:00Z</time>
      </trkpt>
      <trkpt lat="44.80452" lon="0.42909">
        <ele>100.6</ele>
        <time>2020-07-23T09:09:16Z</time>
      </trkpt>
      <trkpt lat="44.8045" lon="0.4291">
        <ele>100.6</ele>
        <time>2020-07-23T09:09:37Z</time>
      </trkpt>
      <trkpt lat="44.80445" lon="0.42901">
        <ele>100.6</ele>
        <time>2020-07-23T09:10:05Z</time>
      </trkpt>
      <trkpt lat="44.80445" lon="0.429">
        <ele>100.6</ele>
        <time>2020-07-23T09:10:38Z</time>
      </trkpt>
      <trkpt lat="44.80445" lon="0.42905">
        <ele>100.6</ele>
        <time>2020-07-23T09:11:00Z</time>
      </trkpt>
      <trkpt lat="44.80447" lon="0.42906">
        <ele>100.6</ele>
        <time>2020-07-23T09:11:25Z</time>
      </trkpt>
      <trkpt lat="44.80446" lon="0.42905">
        <ele>100.6</ele>
        <time>2020-07-23T09:11:49Z</time>
      </trkpt>
      <trkpt lat="44.80445" lon="0.42907">
        <ele>100.11</ele>
        <time>2020-07-23T09:12:18Z</time>
      </trkpt>
      <trkpt lat="44.80446" lon="0.42907">
        <ele>101.08</ele>
        <time>2020-07-23T09:12:37Z</time>
      </trkpt>
      <trkpt lat="44.80446" lon="0.42912">
        <ele>101.08</ele>
        <time>2020-07-23T09:12:58Z</time>
      </trkpt>
      <trkpt lat="44.80445" lon="0.42906">
        <ele>101.08</ele>
        <time>2020-07-23T09:13:17Z</time>
      </trkpt>
      <trkpt lat="44.80447" lon="0.42909">
        <ele>101.08</ele>
        <time>2020-07-23T09:13:43Z</time>
      </trkpt>
      <trkpt lat="44.80452" lon="0.42908">
        <ele>101.08</ele>
        <time>2020-07-23T09:14:07Z</time>
      </trkpt>
      <trkpt lat="44.80446" lon="0.42899">
        <ele>101.08</ele>
        <time>2020-07-23T09:14:41Z</time>
      </trkpt>
      <trkpt lat="44.80447" lon="0.429">
        <ele>100.11</ele>
        <time>2020-07-23T09:15:00Z</time>
      </trkpt>
      <trkpt lat="44.80446" lon="0.42891">
        <ele>100.11</ele>
        <time>2020-07-23T09:15:15Z</time>
      </trkpt>
      <trkpt lat="44.80451" lon="0.42899">
        <ele>100.6</ele>
        <time>2020-07-23T09:15:40Z</time>
      </trkpt>
      <trkpt lat="44.80462" lon="0.42914">
        <ele>99.63</ele>
        <time>2020-07-23T09:16:03Z</time>
      </trkpt>
      <trkpt lat="44.80464" lon="0.4292">
        <ele>98.67</ele>
        <time>2020-07-23T09:16:25Z</time>
      </trkpt>
      <trkpt lat="44.80476" lon="0.42921">
        <ele>97.23</ele>
        <time>2020-07-23T09:16:45Z</time>
      </trkpt>
      <trkpt lat="44.80481" lon="0.42905">
        <ele>96.75</ele>
        <time>2020-07-23T09:17:04Z</time>
      </trkpt>
      <trkpt lat="44.80488" lon="0.42894">
        <ele>96.27</ele>
        <time>2020-07-23T09:17:16Z</time>
      </trkpt>
      <trkpt lat="44.80502" lon="0.42868">
        <ele>93.87</ele>
        <time>2020-07-23T09:17:35Z</time>
      </trkpt>
      <trkpt lat="44.80516" lon="0.42838">
        <ele>91.94</ele>
        <time>2020-07-23T09:17:54Z</time>
      </trkpt>
      <trkpt lat="44.80521" lon="0.42832">
        <ele>91.46</ele>
        <time>2020-07-23T09:17:58Z</time>
      </trkpt>
      <trkpt lat="44.80537" lon="0.428">
        <ele>88.1</ele>
        <time>2020-07-23T09:18:23Z</time>
      </trkpt>
      <trkpt lat="44.80553" lon="0.42769">
        <ele>85.69</ele>
        <time>2020-07-23T09:18:45Z</time>
      </trkpt>
      <trkpt lat="44.80556" lon="0.42765">
        <ele>87.14</ele>
        <time>2020-07-23T09:18:48Z</time>
      </trkpt>
      <trkpt lat="44.80573" lon="0.42745">
        <ele>87.14</ele>
        <time>2020-07-23T09:19:06Z</time>
      </trkpt>
      <trkpt lat="44.80591" lon="0.42714">
        <ele>88.1</ele>
        <time>2020-07-23T09:19:28Z</time>
      </trkpt>
      <trkpt lat="44.806" lon="0.42679">
        <ele>89.06</ele>
        <time>2020-07-23T09:19:46Z</time>
      </trkpt>
      <trkpt lat="44.80606" lon="0.42672">
        <ele>89.06</ele>
        <time>2020-07-23T09:19:52Z</time>
      </trkpt>
      <trkpt lat="44.80618" lon="0.42648">
        <ele>90.5</ele>
        <time>2020-07-23T09:20:11Z</time>
      </trkpt>
      <trkpt lat="44.80623" lon="0.42639">
        <ele>90.98</ele>
        <time>2020-07-23T09:20:18Z</time>
      </trkpt>
      <trkpt lat="44.80623" lon="0.42627">
        <ele>91.46</ele>
        <time>2020-07-23T09:20:26Z</time>
      </trkpt>
      <trkpt lat="44.80622" lon="0.4262">
        <ele>91.46</ele>
        <time>2020-07-23T09:20:38Z</time>
      </trkpt>
      <trkpt lat="44.80619" lon="0.426">
        <ele>91.46</ele>
        <time>2020-07-23T09:20:48Z</time>
      </trkpt>
      <trkpt lat="44.80614" lon="0.42577">
        <ele>90.5</ele>
        <time>2020-07-23T09:21:03Z</time>
      </trkpt>
      <trkpt lat="44.80611" lon="0.42559">
        <ele>90.02</ele>
        <time>2020-07-23T09:21:15Z</time>
      </trkpt>
      <trkpt lat="44.80611" lon="0.42557">
        <ele>90.02</ele>
        <time>2020-07-23T09:21:16Z</time>
      </trkpt>
      <trkpt lat="44.8061" lon="0.42555">
        <ele>90.02</ele>
        <time>2020-07-23T09:21:17Z</time>
      </trkpt>
      <trkpt lat="44.8061" lon="0.42554">
        <ele>90.02</ele>
        <time>2020-07-23T09:21:18Z</time>
      </trkpt>
      <trkpt lat="44.80609" lon="0.42552">
        <ele>88.58</ele>
        <time>2020-07-23T09:21:19Z</time>
      </trkpt>
      <trkpt lat="44.80609" lon="0.4255">
        <ele>88.58</ele>
        <time>2020-07-23T09:21:20Z</time>
      </trkpt>
      <trkpt lat="44.80609" lon="0.42547">
        <ele>88.58</ele>
        <time>2020-07-23T09:21:22Z</time>
      </trkpt>
      <trkpt lat="44.80605" lon="0.42522">
        <ele>87.14</ele>
        <time>2020-07-23T09:21:38Z</time>
      </trkpt>
      <trkpt lat="44.80599" lon="0.42494">
        <ele>86.18</ele>
        <time>2020-07-23T09:21:56Z</time>
      </trkpt>
      <trkpt lat="44.80594" lon="0.42458">
        <ele>85.21</ele>
        <time>2020-07-23T09:22:18Z</time>
      </trkpt>
      <trkpt lat="44.80598" lon="0.42433">
        <ele>85.69</ele>
        <time>2020-07-23T09:22:33Z</time>
      </trkpt>
      <trkpt lat="44.80601" lon="0.42419">
        <ele>84.73</ele>
        <time>2020-07-23T09:22:41Z</time>
      </trkpt>
      <trkpt lat="44.80614" lon="0.42381">
        <ele>84.25</ele>
        <time>2020-07-23T09:23:06Z</time>
      </trkpt>
      <trkpt lat="44.80623" lon="0.42359">
        <ele>84.25</ele>
        <time>2020-07-23T09:23:23Z</time>
      </trkpt>
      <trkpt lat="44.8064" lon="0.42331">
        <ele>83.77</ele>
        <time>2020-07-23T09:23:44Z</time>
      </trkpt>
      <trkpt lat="44.80653" lon="0.42308">
        <ele>83.29</ele>
        <time>2020-07-23T09:24:03Z</time>
      </trkpt>
      <trkpt lat="44.80659" lon="0.42281">
        <ele>82.81</ele>
        <time>2020-07-23T09:24:20Z</time>
      </trkpt>
      <trkpt lat="44.80668" lon="0.42248">
        <ele>82.33</ele>
        <time>2020-07-23T09:24:40Z</time>
      </trkpt>
      <trkpt lat="44.80674" lon="0.4221">
        <ele>81.85</ele>
        <time>2020-07-23T09:25:02Z</time>
      </trkpt>
      <trkpt lat="44.80677" lon="0.42171">
        <ele>81.37</ele>
        <time>2020-07-23T09:25:24Z</time>
      </trkpt>
      <trkpt lat="44.80677" lon="0.42169">
        <ele>81.37</ele>
        <time>2020-07-23T09:25:25Z</time>
      </trkpt>
      <trkpt lat="44.80677" lon="0.42167">
        <ele>81.37</ele>
        <time>2020-07-23T09:25:26Z</time>
      </trkpt>
      <trkpt lat="44.80678" lon="0.4213">
        <ele>81.37</ele>
        <time>2020-07-23T09:25:46Z</time>
      </trkpt>
      <trkpt lat="44.80679" lon="0.42114">
        <ele>82.33</ele>
        <time>2020-07-23T09:25:54Z</time>
      </trkpt>
      <trkpt lat="44.80681" lon="0.42089">
        <ele>82.81</ele>
        <time>2020-07-23T09:26:10Z</time>
      </trkpt>
      <trkpt lat="44.80686" lon="0.42062">
        <ele>82.81</ele>
        <time>2020-07-23T09:26:27Z</time>
      </trkpt>
      <trkpt lat="44.80685" lon="0.42034">
        <ele>83.29</ele>
        <time>2020-07-23T09:26:42Z</time>
      </trkpt>
      <trkpt lat="44.80688" lon="0.42007">
        <ele>81.85</ele>
        <time>2020-07-23T09:27:01Z</time>
      </trkpt>
      <trkpt lat="44.80688" lon="0.42002">
        <ele>81.37</ele>
        <time>2020-07-23T09:27:15Z</time>
      </trkpt>
      <trkpt lat="44.80689" lon="0.42">
        <ele>81.37</ele>
        <time>2020-07-23T09:27:16Z</time>
      </trkpt>
      <trkpt lat="44.80689" lon="0.41974">
        <ele>79.45</ele>
        <time>2020-07-23T09:27:33Z</time>
      </trkpt>
      <trkpt lat="44.80687" lon="0.41939">
        <ele>77.52</ele>
        <time>2020-07-23T09:27:53Z</time>
      </trkpt>
      <trkpt lat="44.80686" lon="0.41904">
        <ele>77.04</ele>
        <time>2020-07-23T09:28:13Z</time>
      </trkpt>
      <trkpt lat="44.80685" lon="0.4189">
        <ele>75.6</ele>
        <time>2020-07-23T09:28:20Z</time>
      </trkpt>
      <trkpt lat="44.80684" lon="0.41882">
        <ele>77.04</ele>
        <time>2020-07-23T09:28:26Z</time>
      </trkpt>
      <trkpt lat="44.80683" lon="0.4188">
        <ele>75.6</ele>
        <time>2020-07-23T09:28:28Z</time>
      </trkpt>
      <trkpt lat="44.80678" lon="0.41851">
        <ele>75.12</ele>
        <time>2020-07-23T09:28:45Z</time>
      </trkpt>
      <trkpt lat="44.80675" lon="0.41827">
        <ele>73.68</ele>
        <time>2020-07-23T09:28:59Z</time>
      </trkpt>
      <trkpt lat="44.80672" lon="0.41815">
        <ele>73.2</ele>
        <time>2020-07-23T09:29:08Z</time>
      </trkpt>
      <trkpt lat="44.80665" lon="0.41778">
        <ele>71.76</ele>
        <time>2020-07-23T09:29:32Z</time>
      </trkpt>
      <trkpt lat="44.80656" lon="0.41746">
        <ele>70.79</ele>
        <time>2020-07-23T09:29:50Z</time>
      </trkpt>
      <trkpt lat="44.80649" lon="0.41713">
        <ele>69.35</ele>
        <time>2020-07-23T09:30:12Z</time>
      </trkpt>
      <trkpt lat="44.80641" lon="0.41681">
        <ele>66.95</ele>
        <time>2020-07-23T09:30:31Z</time>
      </trkpt>
      <trkpt lat="44.80639" lon="0.4165">
        <ele>65.03</ele>
        <time>2020-07-23T09:30:52Z</time>
      </trkpt>
      <trkpt lat="44.80639" lon="0.41637">
        <ele>63.58</ele>
        <time>2020-07-23T09:31:00Z</time>
      </trkpt>
      <trkpt lat="44.80644" lon="0.416">
        <ele>62.14</ele>
        <time>2020-07-23T09:31:23Z</time>
      </trkpt>
      <trkpt lat="44.80643" lon="0.41582">
        <ele>62.62</ele>
        <time>2020-07-23T09:31:32Z</time>
      </trkpt>
      <trkpt lat="44.80643" lon="0.41578">
        <ele>61.66</ele>
        <time>2020-07-23T09:31:34Z</time>
      </trkpt>
      <trkpt lat="44.80638" lon="0.41532">
        <ele>61.66</ele>
        <time>2020-07-23T09:31:58Z</time>
      </trkpt>
      <trkpt lat="44.80631" lon="0.41495">
        <ele>60.7</ele>
        <time>2020-07-23T09:32:19Z</time>
      </trkpt>
      <trkpt lat="44.80629" lon="0.41487">
        <ele>61.66</ele>
        <time>2020-07-23T09:32:24Z</time>
      </trkpt>
      <trkpt lat="44.80624" lon="0.41463">
        <ele>62.62</ele>
        <time>2020-07-23T09:32:42Z</time>
      </trkpt>
      <trkpt lat="44.80619" lon="0.41443">
        <ele>61.66</ele>
        <time>2020-07-23T09:32:54Z</time>
      </trkpt>
      <trkpt lat="44.80619" lon="0.41439">
        <ele>63.1</ele>
        <time>2020-07-23T09:32:56Z</time>
      </trkpt>
      <trkpt lat="44.80618" lon="0.41434">
        <ele>61.66</ele>
        <time>2020-07-23T09:32:59Z</time>
      </trkpt>
      <trkpt lat="44.80618" lon="0.41429">
        <ele>63.1</ele>
        <time>2020-07-23T09:33:02Z</time>
      </trkpt>
      <trkpt lat="44.80617" lon="0.41419">
        <ele>61.66</ele>
        <time>2020-07-23T09:33:09Z</time>
      </trkpt>
      <trkpt lat="44.80611" lon="0.41379">
        <ele>62.62</ele>
        <time>2020-07-23T09:33:29Z</time>
      </trkpt>
      <trkpt lat="44.8061" lon="0.41365">
        <ele>62.14</ele>
        <time>2020-07-23T09:33:36Z</time>
      </trkpt>
      <trkpt lat="44.8061" lon="0.41343">
        <ele>63.1</ele>
        <time>2020-07-23T09:33:47Z</time>
      </trkpt>
      <trkpt lat="44.80609" lon="0.41329">
        <ele>63.58</ele>
        <time>2020-07-23T09:33:55Z</time>
      </trkpt>
      <trkpt lat="44.80608" lon="0.41323">
        <ele>62.14</ele>
        <time>2020-07-23T09:33:58Z</time>
      </trkpt>
      <trkpt lat="44.80605" lon="0.41286">
        <ele>61.66</ele>
        <time>2020-07-23T09:34:17Z</time>
      </trkpt>
      <trkpt lat="44.80603" lon="0.4128">
        <ele>61.66</ele>
        <time>2020-07-23T09:34:20Z</time>
      </trkpt>
      <trkpt lat="44.80602" lon="0.41278">
        <ele>61.66</ele>
        <time>2020-07-23T09:34:21Z</time>
      </trkpt>
      <trkpt lat="44.80596" lon="0.4128">
        <ele>61.66</ele>
        <time>2020-07-23T09:34:31Z</time>
      </trkpt>
      <trkpt lat="44.80579" lon="0.41283">
        <ele>60.22</ele>
        <time>2020-07-23T09:34:48Z</time>
      </trkpt>
      <trkpt lat="44.80561" lon="0.41286">
        <ele>57.82</ele>
        <time>2020-07-23T09:35:05Z</time>
      </trkpt>
      <trkpt lat="44.8054" lon="0.41286">
        <ele>56.37</ele>
        <time>2020-07-23T09:35:23Z</time>
      </trkpt>
      <trkpt lat="44.80532" lon="0.41286">
        <ele>57.34</ele>
        <time>2020-07-23T09:35:29Z</time>
      </trkpt>
      <trkpt lat="44.8053" lon="0.41286">
        <ele>57.34</ele>
        <time>2020-07-23T09:35:30Z</time>
      </trkpt>
      <trkpt lat="44.80529" lon="0.41287">
        <ele>57.34</ele>
        <time>2020-07-23T09:35:31Z</time>
      </trkpt>
      <trkpt lat="44.80521" lon="0.41288">
        <ele>57.34</ele>
        <time>2020-07-23T09:35:36Z</time>
      </trkpt>
      <trkpt lat="44.8052" lon="0.41288">
        <ele>57.34</ele>
        <time>2020-07-23T09:35:37Z</time>
      </trkpt>
      <trkpt lat="44.80519" lon="0.41288">
        <ele>57.34</ele>
        <time>2020-07-23T09:35:38Z</time>
      </trkpt>
      <trkpt lat="44.80513" lon="0.41294">
        <ele>57.34</ele>
        <time>2020-07-23T09:35:51Z</time>
      </trkpt>
      <trkpt lat="44.80512" lon="0.41297">
        <ele>55.89</ele>
        <time>2020-07-23T09:35:55Z</time>
      </trkpt>
      <trkpt lat="44.80516" lon="0.41303">
        <ele>55.89</ele>
        <time>2020-07-23T09:36:20Z</time>
      </trkpt>
      <trkpt lat="44.80521" lon="0.41308">
        <ele>55.89</ele>
        <time>2020-07-23T09:36:43Z</time>
      </trkpt>
      <trkpt lat="44.80522" lon="0.41301">
        <ele>55.89</ele>
        <time>2020-07-23T09:37:00Z</time>
      </trkpt>
      <trkpt lat="44.80524" lon="0.41297">
        <ele>55.89</ele>
        <time>2020-07-23T09:37:23Z</time>
      </trkpt>
      <trkpt lat="44.80517" lon="0.41289">
        <ele>56.86</ele>
        <time>2020-07-23T09:37:40Z</time>
      </trkpt>
      <trkpt lat="44.80496" lon="0.41291">
        <ele>58.3</ele>
        <time>2020-07-23T09:37:57Z</time>
      </trkpt>
      <trkpt lat="44.8049" lon="0.41292">
        <ele>58.3</ele>
        <time>2020-07-23T09:38:03Z</time>
      </trkpt>
      <trkpt lat="44.80489" lon="0.41292">
        <ele>59.26</ele>
        <time>2020-07-23T09:38:04Z</time>
      </trkpt>
      <trkpt lat="44.80477" lon="0.41287">
        <ele>59.26</ele>
        <time>2020-07-23T09:38:16Z</time>
      </trkpt>
      <trkpt lat="44.80468" lon="0.41263">
        <ele>59.74</ele>
        <time>2020-07-23T09:38:36Z</time>
      </trkpt>
      <trkpt lat="44.80459" lon="0.41245">
        <ele>57.82</ele>
        <time>2020-07-23T09:38:49Z</time>
      </trkpt>
      <trkpt lat="44.80449" lon="0.41219">
        <ele>57.34</ele>
        <time>2020-07-23T09:39:06Z</time>
      </trkpt>
      <trkpt lat="44.80436" lon="0.41204">
        <ele>57.34</ele>
        <time>2020-07-23T09:39:21Z</time>
      </trkpt>
      <trkpt lat="44.80428" lon="0.41205">
        <ele>57.82</ele>
        <time>2020-07-23T09:39:28Z</time>
      </trkpt>
      <trkpt lat="44.80408" lon="0.41207">
        <ele>58.78</ele>
        <time>2020-07-23T09:39:46Z</time>
      </trkpt>
      <trkpt lat="44.80391" lon="0.41206">
        <ele>60.22</ele>
        <time>2020-07-23T09:40:03Z</time>
      </trkpt>
      <trkpt lat="44.8039" lon="0.41206">
        <ele>60.22</ele>
        <time>2020-07-23T09:40:04Z</time>
      </trkpt>
      <trkpt lat="44.80389" lon="0.41205">
        <ele>60.22</ele>
        <time>2020-07-23T09:40:05Z</time>
      </trkpt>
      <trkpt lat="44.80388" lon="0.41204">
        <ele>61.18</ele>
        <time>2020-07-23T09:40:06Z</time>
      </trkpt>
      <trkpt lat="44.80376" lon="0.41202">
        <ele>61.18</ele>
        <time>2020-07-23T09:40:20Z</time>
      </trkpt>
      <trkpt lat="44.80365" lon="0.41199">
        <ele>62.14</ele>
        <time>2020-07-23T09:40:32Z</time>
      </trkpt>
      <trkpt lat="44.80362" lon="0.41194">
        <ele>63.1</ele>
        <time>2020-07-23T09:40:37Z</time>
      </trkpt>
      <trkpt lat="44.8036" lon="0.4119">
        <ele>63.58</ele>
        <time>2020-07-23T09:40:41Z</time>
      </trkpt>
      <trkpt lat="44.80359" lon="0.41189">
        <ele>63.58</ele>
        <time>2020-07-23T09:40:42Z</time>
      </trkpt>
      <trkpt lat="44.80359" lon="0.41187">
        <ele>63.58</ele>
        <time>2020-07-23T09:40:43Z</time>
      </trkpt>
      <trkpt lat="44.80358" lon="0.41183">
        <ele>64.07</ele>
        <time>2020-07-23T09:40:56Z</time>
      </trkpt>
      <trkpt lat="44.80357" lon="0.41181">
        <ele>64.07</ele>
        <time>2020-07-23T09:40:57Z</time>
      </trkpt>
      <trkpt lat="44.80357" lon="0.4118">
        <ele>64.07</ele>
        <time>2020-07-23T09:40:58Z</time>
      </trkpt>
      <trkpt lat="44.80355" lon="0.41177">
        <ele>64.55</ele>
        <time>2020-07-23T09:41:00Z</time>
      </trkpt>
      <trkpt lat="44.80352" lon="0.41163">
        <ele>65.03</ele>
        <time>2020-07-23T09:41:11Z</time>
      </trkpt>
      <trkpt lat="44.80352" lon="0.4116">
        <ele>65.99</ele>
        <time>2020-07-23T09:41:15Z</time>
      </trkpt>
      <trkpt lat="44.80351" lon="0.41154">
        <ele>66.47</ele>
        <time>2020-07-23T09:41:20Z</time>
      </trkpt>
      <trkpt lat="44.8035" lon="0.41149">
        <ele>66.95</ele>
        <time>2020-07-23T09:41:24Z</time>
      </trkpt>
      <trkpt lat="44.8035" lon="0.41146">
        <ele>66.95</ele>
        <time>2020-07-23T09:41:25Z</time>
      </trkpt>
      <trkpt lat="44.8035" lon="0.41142">
        <ele>67.43</ele>
        <time>2020-07-23T09:41:29Z</time>
      </trkpt>
      <trkpt lat="44.8035" lon="0.4114">
        <ele>67.43</ele>
        <time>2020-07-23T09:41:30Z</time>
      </trkpt>
      <trkpt lat="44.8035" lon="0.41132">
        <ele>68.39</ele>
        <time>2020-07-23T09:41:40Z</time>
      </trkpt>
      <trkpt lat="44.8035" lon="0.41131">
        <ele>68.39</ele>
        <time>2020-07-23T09:41:41Z</time>
      </trkpt>
      <trkpt lat="44.80352" lon="0.41119">
        <ele>66.47</ele>
        <time>2020-07-23T09:41:52Z</time>
      </trkpt>
      <trkpt lat="44.80359" lon="0.41088">
        <ele>65.99</ele>
        <time>2020-07-23T09:42:12Z</time>
      </trkpt>
      <trkpt lat="44.80362" lon="0.41065">
        <ele>65.99</ele>
        <time>2020-07-23T09:42:29Z</time>
      </trkpt>
      <trkpt lat="44.80363" lon="0.4105">
        <ele>65.51</ele>
        <time>2020-07-23T09:42:44Z</time>
      </trkpt>
      <trkpt lat="44.80368" lon="0.41023">
        <ele>64.55</ele>
        <time>2020-07-23T09:43:02Z</time>
      </trkpt>
      <trkpt lat="44.80376" lon="0.40996">
        <ele>63.58</ele>
        <time>2020-07-23T09:43:22Z</time>
      </trkpt>
      <trkpt lat="44.80377" lon="0.40964">
        <ele>63.1</ele>
        <time>2020-07-23T09:43:41Z</time>
      </trkpt>
      <trkpt lat="44.80375" lon="0.40937">
        <ele>63.1</ele>
        <time>2020-07-23T09:43:58Z</time>
      </trkpt>
      <trkpt lat="44.80368" lon="0.40913">
        <ele>63.1</ele>
        <time>2020-07-23T09:44:14Z</time>
      </trkpt>
      <trkpt lat="44.80366" lon="0.40907">
        <ele>63.1</ele>
        <time>2020-07-23T09:44:18Z</time>
      </trkpt>
      <trkpt lat="44.80366" lon="0.40906">
        <ele>63.1</ele>
        <time>2020-07-23T09:44:19Z</time>
      </trkpt>
      <trkpt lat="44.80365" lon="0.40905">
        <ele>63.1</ele>
        <time>2020-07-23T09:44:20Z</time>
      </trkpt>
      <trkpt lat="44.80365" lon="0.40903">
        <ele>63.1</ele>
        <time>2020-07-23T09:44:21Z</time>
      </trkpt>
      <trkpt lat="44.80364" lon="0.40902">
        <ele>63.1</ele>
        <time>2020-07-23T09:44:22Z</time>
      </trkpt>
      <trkpt lat="44.80363" lon="0.40901">
        <ele>63.1</ele>
        <time>2020-07-23T09:44:23Z</time>
      </trkpt>
      <trkpt lat="44.8036" lon="0.4089">
        <ele>63.1</ele>
        <time>2020-07-23T09:44:37Z</time>
      </trkpt>
      <trkpt lat="44.80357" lon="0.40891">
        <ele>63.1</ele>
        <time>2020-07-23T09:44:59Z</time>
      </trkpt>
      <trkpt lat="44.80357" lon="0.40885">
        <ele>63.1</ele>
        <time>2020-07-23T09:45:13Z</time>
      </trkpt>
      <trkpt lat="44.80356" lon="0.4088">
        <ele>63.1</ele>
        <time>2020-07-23T09:45:16Z</time>
      </trkpt>
      <trkpt lat="44.80352" lon="0.40857">
        <ele>63.1</ele>
        <time>2020-07-23T09:45:29Z</time>
      </trkpt>
      <trkpt lat="44.80351" lon="0.40855">
        <ele>63.1</ele>
        <time>2020-07-23T09:45:30Z</time>
      </trkpt>
      <trkpt lat="44.80351" lon="0.40854">
        <ele>63.1</ele>
        <time>2020-07-23T09:45:31Z</time>
      </trkpt>
      <trkpt lat="44.80349" lon="0.40836">
        <ele>63.1</ele>
        <time>2020-07-23T09:45:43Z</time>
      </trkpt>
      <trkpt lat="44.80347" lon="0.40817">
        <ele>63.1</ele>
        <time>2020-07-23T09:45:54Z</time>
      </trkpt>
      <trkpt lat="44.80348" lon="0.40816">
        <ele>63.1</ele>
        <time>2020-07-23T09:45:55Z</time>
      </trkpt>
      <trkpt lat="44.8035" lon="0.40815">
        <ele>63.1</ele>
        <time>2020-07-23T09:45:56Z</time>
      </trkpt>
      <trkpt lat="44.8035" lon="0.40814">
        <ele>63.1</ele>
        <time>2020-07-23T09:45:57Z</time>
      </trkpt>
      <trkpt lat="44.8035" lon="0.40812">
        <ele>62.62</ele>
        <time>2020-07-23T09:45:58Z</time>
      </trkpt>
      <trkpt lat="44.8035" lon="0.40811">
        <ele>62.62</ele>
        <time>2020-07-23T09:45:59Z</time>
      </trkpt>
      <trkpt lat="44.8035" lon="0.40809">
        <ele>62.62</ele>
        <time>2020-07-23T09:46:00Z</time>
      </trkpt>
      <trkpt lat="44.80344" lon="0.40786">
        <ele>62.14</ele>
        <time>2020-07-23T09:46:14Z</time>
      </trkpt>
      <trkpt lat="44.8034" lon="0.40765">
        <ele>61.66</ele>
        <time>2020-07-23T09:46:28Z</time>
      </trkpt>
      <trkpt lat="44.8034" lon="0.40763">
        <ele>61.66</ele>
        <time>2020-07-23T09:46:29Z</time>
      </trkpt>
      <trkpt lat="44.80339" lon="0.40762">
        <ele>61.66</ele>
        <time>2020-07-23T09:46:36Z</time>
      </trkpt>
      <trkpt lat="44.80338" lon="0.4076">
        <ele>61.66</ele>
        <time>2020-07-23T09:46:37Z</time>
      </trkpt>
      <trkpt lat="44.80337" lon="0.40759">
        <ele>61.66</ele>
        <time>2020-07-23T09:46:38Z</time>
      </trkpt>
      <trkpt lat="44.80334" lon="0.40736">
        <ele>58.78</ele>
        <time>2020-07-23T09:46:53Z</time>
      </trkpt>
      <trkpt lat="44.80334" lon="0.40725">
        <ele>57.34</ele>
        <time>2020-07-23T09:47:00Z</time>
      </trkpt>
      <trkpt lat="44.80329" lon="0.40688">
        <ele>56.37</ele>
        <time>2020-07-23T09:47:20Z</time>
      </trkpt>
      <trkpt lat="44.80322" lon="0.40644">
        <ele>55.89</ele>
        <time>2020-07-23T09:47:44Z</time>
      </trkpt>
      <trkpt lat="44.80321" lon="0.40633">
        <ele>55.89</ele>
        <time>2020-07-23T09:47:57Z</time>
      </trkpt>
      <trkpt lat="44.80322" lon="0.40631">
        <ele>55.89</ele>
        <time>2020-07-23T09:47:58Z</time>
      </trkpt>
      <trkpt lat="44.80323" lon="0.406">
        <ele>55.89</ele>
        <time>2020-07-23T09:48:15Z</time>
      </trkpt>
      <trkpt lat="44.8032" lon="0.4058">
        <ele>56.86</ele>
        <time>2020-07-23T09:48:26Z</time>
      </trkpt>
      <trkpt lat="44.80321" lon="0.40548">
        <ele>57.34</ele>
        <time>2020-07-23T09:48:45Z</time>
      </trkpt>
      <trkpt lat="44.80315" lon="0.40508">
        <ele>58.3</ele>
        <time>2020-07-23T09:49:07Z</time>
      </trkpt>
      <trkpt lat="44.80312" lon="0.40492">
        <ele>59.74</ele>
        <time>2020-07-23T09:49:19Z</time>
      </trkpt>
      <trkpt lat="44.80311" lon="0.40491">
        <ele>59.74</ele>
        <time>2020-07-23T09:49:20Z</time>
      </trkpt>
      <trkpt lat="44.80303" lon="0.40486">
        <ele>60.22</ele>
        <time>2020-07-23T09:49:28Z</time>
      </trkpt>
      <trkpt lat="44.80284" lon="0.40483">
        <ele>60.7</ele>
        <time>2020-07-23T09:49:46Z</time>
      </trkpt>
      <trkpt lat="44.80266" lon="0.40479">
        <ele>61.66</ele>
        <time>2020-07-23T09:50:03Z</time>
      </trkpt>
      <trkpt lat="44.80245" lon="0.40474">
        <ele>63.1</ele>
        <time>2020-07-23T09:50:21Z</time>
      </trkpt>
      <trkpt lat="44.80226" lon="0.40471">
        <ele>64.07</ele>
        <time>2020-07-23T09:50:38Z</time>
      </trkpt>
      <trkpt lat="44.80211" lon="0.40468">
        <ele>66.95</ele>
        <time>2020-07-23T09:50:55Z</time>
      </trkpt>
      <trkpt lat="44.8021" lon="0.40468">
        <ele>66.95</ele>
        <time>2020-07-23T09:50:56Z</time>
      </trkpt>
      <trkpt lat="44.80196" lon="0.40465">
        <ele>68.39</ele>
        <time>2020-07-23T09:51:12Z</time>
      </trkpt>
      <trkpt lat="44.80178" lon="0.40466">
        <ele>71.27</ele>
        <time>2020-07-23T09:51:32Z</time>
      </trkpt>
      <trkpt lat="44.80164" lon="0.40466">
        <ele>72.72</ele>
        <time>2020-07-23T09:51:48Z</time>
      </trkpt>
      <trkpt lat="44.80152" lon="0.40467">
        <ele>75.12</ele>
        <time>2020-07-23T09:52:00Z</time>
      </trkpt>
      <trkpt lat="44.80137" lon="0.4047">
        <ele>76.56</ele>
        <time>2020-07-23T09:52:16Z</time>
      </trkpt>
      <trkpt lat="44.80122" lon="0.40474">
        <ele>78.48</ele>
        <time>2020-07-23T09:52:31Z</time>
      </trkpt>
      <trkpt lat="44.80106" lon="0.40478">
        <ele>78.48</ele>
        <time>2020-07-23T09:52:51Z</time>
      </trkpt>
      <trkpt lat="44.80108" lon="0.40478">
        <ele>79.45</ele>
        <time>2020-07-23T09:53:15Z</time>
      </trkpt>
      <trkpt lat="44.80102" lon="0.40475">
        <ele>79.45</ele>
        <time>2020-07-23T09:53:37Z</time>
      </trkpt>
      <trkpt lat="44.801" lon="0.40477">
        <ele>79.45</ele>
        <time>2020-07-23T09:53:56Z</time>
      </trkpt>
      <trkpt lat="44.80095" lon="0.40472">
        <ele>79.93</ele>
        <time>2020-07-23T09:54:18Z</time>
      </trkpt>
      <trkpt lat="44.80077" lon="0.40475">
        <ele>80.89</ele>
        <time>2020-07-23T09:54:38Z</time>
      </trkpt>
      <trkpt lat="44.80055" lon="0.40482">
        <ele>82.81</ele>
        <time>2020-07-23T09:54:57Z</time>
      </trkpt>
      <trkpt lat="44.80049" lon="0.40487">
        <ele>83.29</ele>
        <time>2020-07-23T09:55:03Z</time>
      </trkpt>
      <trkpt lat="44.80036" lon="0.40492">
        <ele>84.73</ele>
        <time>2020-07-23T09:55:16Z</time>
      </trkpt>
      <trkpt lat="44.80023" lon="0.405">
        <ele>86.66</ele>
        <time>2020-07-23T09:55:32Z</time>
      </trkpt>
      <trkpt lat="44.8001" lon="0.40505">
        <ele>89.54</ele>
        <time>2020-07-23T09:55:47Z</time>
      </trkpt>
      <trkpt lat="44.79997" lon="0.40511">
        <ele>90.98</ele>
        <time>2020-07-23T09:56:03Z</time>
      </trkpt>
      <trkpt lat="44.79991" lon="0.40502">
        <ele>92.42</ele>
        <time>2020-07-23T09:56:16Z</time>
      </trkpt>
      <trkpt lat="44.79986" lon="0.4049">
        <ele>92.9</ele>
        <time>2020-07-23T09:56:33Z</time>
      </trkpt>
      <trkpt lat="44.79986" lon="0.40481">
        <ele>92.9</ele>
        <time>2020-07-23T09:56:58Z</time>
      </trkpt>
      <trkpt lat="44.79983" lon="0.4047">
        <ele>91.46</ele>
        <time>2020-07-23T09:57:15Z</time>
      </trkpt>
      <trkpt lat="44.79984" lon="0.40463">
        <ele>91.46</ele>
        <time>2020-07-23T09:57:36Z</time>
      </trkpt>
      <trkpt lat="44.79987" lon="0.40465">
        <ele>91.46</ele>
        <time>2020-07-23T09:58:06Z</time>
      </trkpt>
      <trkpt lat="44.79983" lon="0.40462">
        <ele>91.46</ele>
        <time>2020-07-23T09:58:41Z</time>
      </trkpt>
      <trkpt lat="44.79982" lon="0.40477">
        <ele>92.42</ele>
        <time>2020-07-23T09:58:58Z</time>
      </trkpt>
      <trkpt lat="44.79979" lon="0.4046">
        <ele>90.98</ele>
        <time>2020-07-23T09:59:12Z</time>
      </trkpt>
      <trkpt lat="44.79977" lon="0.40454">
        <ele>90.98</ele>
        <time>2020-07-23T09:59:17Z</time>
      </trkpt>
      <trkpt lat="44.7997" lon="0.40433">
        <ele>89.54</ele>
        <time>2020-07-23T09:59:35Z</time>
      </trkpt>
      <trkpt lat="44.79967" lon="0.40423">
        <ele>88.58</ele>
        <time>2020-07-23T09:59:42Z</time>
      </trkpt>
      <trkpt lat="44.79965" lon="0.40413">
        <ele>88.1</ele>
        <time>2020-07-23T09:59:48Z</time>
      </trkpt>
      <trkpt lat="44.79959" lon="0.40388">
        <ele>85.21</ele>
        <time>2020-07-23T10:00:05Z</time>
      </trkpt>
      <trkpt lat="44.79956" lon="0.40381">
        <ele>83.77</ele>
        <time>2020-07-23T10:00:10Z</time>
      </trkpt>
      <trkpt lat="44.7995" lon="0.40355">
        <ele>82.33</ele>
        <time>2020-07-23T10:00:27Z</time>
      </trkpt>
      <trkpt lat="44.79947" lon="0.4035">
        <ele>82.33</ele>
        <time>2020-07-23T10:00:31Z</time>
      </trkpt>
      <trkpt lat="44.79946" lon="0.40343">
        <ele>82.33</ele>
        <time>2020-07-23T10:00:49Z</time>
      </trkpt>
      <trkpt lat="44.79936" lon="0.40336">
        <ele>82.33</ele>
        <time>2020-07-23T10:01:06Z</time>
      </trkpt>
      <trkpt lat="44.79933" lon="0.40334">
        <ele>83.29</ele>
        <time>2020-07-23T10:01:10Z</time>
      </trkpt>
      <trkpt lat="44.79922" lon="0.40331">
        <ele>85.69</ele>
        <time>2020-07-23T10:01:26Z</time>
      </trkpt>
      <trkpt lat="44.7991" lon="0.4033">
        <ele>87.14</ele>
        <time>2020-07-23T10:01:43Z</time>
      </trkpt>
      <trkpt lat="44.79899" lon="0.40323">
        <ele>89.54</ele>
        <time>2020-07-23T10:02:01Z</time>
      </trkpt>
      <trkpt lat="44.79882" lon="0.40315">
        <ele>92.42</ele>
        <time>2020-07-23T10:02:25Z</time>
      </trkpt>
      <trkpt lat="44.7987" lon="0.40313">
        <ele>93.39</ele>
        <time>2020-07-23T10:02:41Z</time>
      </trkpt>
      <trkpt lat="44.79867" lon="0.40309">
        <ele>94.35</ele>
        <time>2020-07-23T10:02:57Z</time>
      </trkpt>
      <trkpt lat="44.79863" lon="0.40307">
        <ele>94.35</ele>
        <time>2020-07-23T10:03:07Z</time>
      </trkpt>
      <trkpt lat="44.7984" lon="0.40301">
        <ele>96.75</ele>
        <time>2020-07-23T10:03:30Z</time>
      </trkpt>
      <trkpt lat="44.7982" lon="0.40295">
        <ele>99.63</ele>
        <time>2020-07-23T10:03:52Z</time>
      </trkpt>
      <trkpt lat="44.79805" lon="0.40288">
        <ele>101.08</ele>
        <time>2020-07-23T10:04:11Z</time>
      </trkpt>
      <trkpt lat="44.7979" lon="0.40279">
        <ele>102.52</ele>
        <time>2020-07-23T10:04:28Z</time>
      </trkpt>
      <trkpt lat="44.79785" lon="0.40257">
        <ele>103</ele>
        <time>2020-07-23T10:04:45Z</time>
      </trkpt>
      <trkpt lat="44.79777" lon="0.40231">
        <ele>103.96</ele>
        <time>2020-07-23T10:05:04Z</time>
      </trkpt>
      <trkpt lat="44.79772" lon="0.40215">
        <ele>104.92</ele>
        <time>2020-07-23T10:05:17Z</time>
      </trkpt>
      <trkpt lat="44.79769" lon="0.40211">
        <ele>104.92</ele>
        <time>2020-07-23T10:05:20Z</time>
      </trkpt>
      <trkpt lat="44.79769" lon="0.40208">
        <ele>104.92</ele>
        <time>2020-07-23T10:05:22Z</time>
      </trkpt>
      <trkpt lat="44.79766" lon="0.402">
        <ele>105.4</ele>
        <time>2020-07-23T10:05:29Z</time>
      </trkpt>
      <trkpt lat="44.79754" lon="0.40191">
        <ele>106.84</ele>
        <time>2020-07-23T10:05:46Z</time>
      </trkpt>
      <trkpt lat="44.7975" lon="0.40189">
        <ele>107.81</ele>
        <time>2020-07-23T10:05:51Z</time>
      </trkpt>
      <trkpt lat="44.79739" lon="0.40186">
        <ele>108.77</ele>
        <time>2020-07-23T10:06:07Z</time>
      </trkpt>
      <trkpt lat="44.79731" lon="0.40186">
        <ele>109.25</ele>
        <time>2020-07-23T10:06:17Z</time>
      </trkpt>
      <trkpt lat="44.79713" lon="0.40182">
        <ele>111.17</ele>
        <time>2020-07-23T10:06:34Z</time>
      </trkpt>
      <trkpt lat="44.79705" lon="0.40181">
        <ele>112.13</ele>
        <time>2020-07-23T10:06:48Z</time>
      </trkpt>
      <trkpt lat="44.79695" lon="0.40178">
        <ele>112.61</ele>
        <time>2020-07-23T10:07:01Z</time>
      </trkpt>
      <trkpt lat="44.79687" lon="0.40172">
        <ele>113.57</ele>
        <time>2020-07-23T10:07:15Z</time>
      </trkpt>
      <trkpt lat="44.79685" lon="0.40157">
        <ele>114.53</ele>
        <time>2020-07-23T10:07:27Z</time>
      </trkpt>
      <trkpt lat="44.79685" lon="0.40152">
        <ele>114.05</ele>
        <time>2020-07-23T10:07:30Z</time>
      </trkpt>
      <trkpt lat="44.79688" lon="0.40141">
        <ele>114.05</ele>
        <time>2020-07-23T10:07:38Z</time>
      </trkpt>
      <trkpt lat="44.79695" lon="0.40123">
        <ele>113.09</ele>
        <time>2020-07-23T10:07:50Z</time>
      </trkpt>
      <trkpt lat="44.79704" lon="0.40098">
        <ele>112.13</ele>
        <time>2020-07-23T10:08:08Z</time>
      </trkpt>
      <trkpt lat="44.79706" lon="0.40092">
        <ele>112.13</ele>
        <time>2020-07-23T10:08:12Z</time>
      </trkpt>
      <trkpt lat="44.79713" lon="0.40063">
        <ele>111.17</ele>
        <time>2020-07-23T10:08:29Z</time>
      </trkpt>
      <trkpt lat="44.79721" lon="0.40035">
        <ele>110.69</ele>
        <time>2020-07-23T10:08:47Z</time>
      </trkpt>
      <trkpt lat="44.79727" lon="0.40019">
        <ele>110.21</ele>
        <time>2020-07-23T10:08:58Z</time>
      </trkpt>
      <trkpt lat="44.7973" lon="0.40005">
        <ele>110.21</ele>
        <time>2020-07-23T10:09:07Z</time>
      </trkpt>
      <trkpt lat="44.79736" lon="0.39985">
        <ele>109.73</ele>
        <time>2020-07-23T10:09:20Z</time>
      </trkpt>
      <trkpt lat="44.79737" lon="0.39981">
        <ele>109.73</ele>
        <time>2020-07-23T10:09:22Z</time>
      </trkpt>
      <trkpt lat="44.79745" lon="0.39958">
        <ele>109.73</ele>
        <time>2020-07-23T10:09:38Z</time>
      </trkpt>
      <trkpt lat="44.79746" lon="0.39952">
        <ele>109.73</ele>
        <time>2020-07-23T10:09:44Z</time>
      </trkpt>
      <trkpt lat="44.79747" lon="0.39947">
        <ele>109.25</ele>
        <time>2020-07-23T10:09:48Z</time>
      </trkpt>
      <trkpt lat="44.79757" lon="0.39913">
        <ele>108.29</ele>
        <time>2020-07-23T10:10:08Z</time>
      </trkpt>
      <trkpt lat="44.79764" lon="0.39906">
        <ele>107.81</ele>
        <time>2020-07-23T10:10:24Z</time>
      </trkpt>
      <trkpt lat="44.79765" lon="0.39905">
        <ele>107.81</ele>
        <time>2020-07-23T10:10:38Z</time>
      </trkpt>
      <trkpt lat="44.79769" lon="0.39892">
        <ele>107.81</ele>
        <time>2020-07-23T10:10:47Z</time>
      </trkpt>
      <trkpt lat="44.79779" lon="0.39863">
        <ele>107.81</ele>
        <time>2020-07-23T10:11:05Z</time>
      </trkpt>
      <trkpt lat="44.79784" lon="0.39833">
        <ele>107.32</ele>
        <time>2020-07-23T10:11:22Z</time>
      </trkpt>
      <trkpt lat="44.79786" lon="0.39822">
        <ele>107.32</ele>
        <time>2020-07-23T10:11:35Z</time>
      </trkpt>
      <trkpt lat="44.79791" lon="0.39809">
        <ele>107.32</ele>
        <time>2020-07-23T10:11:49Z</time>
      </trkpt>
      <trkpt lat="44.79793" lon="0.39797">
        <ele>107.32</ele>
        <time>2020-07-23T10:12:06Z</time>
      </trkpt>
      <trkpt lat="44.798" lon="0.3977">
        <ele>108.77</ele>
        <time>2020-07-23T10:12:24Z</time>
      </trkpt>
      <trkpt lat="44.79801" lon="0.39753">
        <ele>108.77</ele>
        <time>2020-07-23T10:12:34Z</time>
      </trkpt>
      <trkpt lat="44.79804" lon="0.39749">
        <ele>108.77</ele>
        <time>2020-07-23T10:12:41Z</time>
      </trkpt>
      <trkpt lat="44.79815" lon="0.39716">
        <ele>108.77</ele>
        <time>2020-07-23T10:13:02Z</time>
      </trkpt>
      <trkpt lat="44.79818" lon="0.39708">
        <ele>107.32</ele>
        <time>2020-07-23T10:13:07Z</time>
      </trkpt>
      <trkpt lat="44.79825" lon="0.39672">
        <ele>106.84</ele>
        <time>2020-07-23T10:13:28Z</time>
      </trkpt>
      <trkpt lat="44.79829" lon="0.39655">
        <ele>106.84</ele>
        <time>2020-07-23T10:13:45Z</time>
      </trkpt>
      <trkpt lat="44.79826" lon="0.3965">
        <ele>106.84</ele>
        <time>2020-07-23T10:14:06Z</time>
      </trkpt>
      <trkpt lat="44.79823" lon="0.39648">
        <ele>108.29</ele>
        <time>2020-07-23T10:14:10Z</time>
      </trkpt>
      <trkpt lat="44.79798" lon="0.39629">
        <ele>109.25</ele>
        <time>2020-07-23T10:14:32Z</time>
      </trkpt>
      <trkpt lat="44.79779" lon="0.39619">
        <ele>110.69</ele>
        <time>2020-07-23T10:14:50Z</time>
      </trkpt>
      <trkpt lat="44.79758" lon="0.39602">
        <ele>112.13</ele>
        <time>2020-07-23T10:15:10Z</time>
      </trkpt>
      <trkpt lat="44.79749" lon="0.39595">
        <ele>112.61</ele>
        <time>2020-07-23T10:15:18Z</time>
      </trkpt>
      <trkpt lat="44.79746" lon="0.39593">
        <ele>111.65</ele>
        <time>2020-07-23T10:15:21Z</time>
      </trkpt>
      <trkpt lat="44.79742" lon="0.3959">
        <ele>112.61</ele>
        <time>2020-07-23T10:15:25Z</time>
      </trkpt>
      <trkpt lat="44.79723" lon="0.39576">
        <ele>113.57</ele>
        <time>2020-07-23T10:15:44Z</time>
      </trkpt>
      <trkpt lat="44.79704" lon="0.39561">
        <ele>115.5</ele>
        <time>2020-07-23T10:16:03Z</time>
      </trkpt>
      <trkpt lat="44.7968" lon="0.39542">
        <ele>117.42</ele>
        <time>2020-07-23T10:16:25Z</time>
      </trkpt>
      <trkpt lat="44.79665" lon="0.39529">
        <ele>116.94</ele>
        <time>2020-07-23T10:16:41Z</time>
      </trkpt>
      <trkpt lat="44.79653" lon="0.39521">
        <ele>116.94</ele>
        <time>2020-07-23T10:16:56Z</time>
      </trkpt>
      <trkpt lat="44.7964" lon="0.39511">
        <ele>115.98</ele>
        <time>2020-07-23T10:17:11Z</time>
      </trkpt>
      <trkpt lat="44.79622" lon="0.395">
        <ele>115.5</ele>
        <time>2020-07-23T10:17:29Z</time>
      </trkpt>
      <trkpt lat="44.79609" lon="0.39493">
        <ele>115.5</ele>
        <time>2020-07-23T10:17:42Z</time>
      </trkpt>
      <trkpt lat="44.79603" lon="0.3949">
        <ele>115.5</ele>
        <time>2020-07-23T10:17:59Z</time>
      </trkpt>
      <trkpt lat="44.79585" lon="0.39481">
        <ele>115.5</ele>
        <time>2020-07-23T10:18:17Z</time>
      </trkpt>
      <trkpt lat="44.79584" lon="0.39482">
        <ele>115.5</ele>
        <time>2020-07-23T10:18:20Z</time>
      </trkpt>
      <trkpt lat="44.79574" lon="0.39487">
        <ele>114.53</ele>
        <time>2020-07-23T10:18:33Z</time>
      </trkpt>
      <trkpt lat="44.79571" lon="0.39489">
        <ele>114.53</ele>
        <time>2020-07-23T10:18:36Z</time>
      </trkpt>
      <trkpt lat="44.7957" lon="0.39496">
        <ele>114.53</ele>
        <time>2020-07-23T10:18:42Z</time>
      </trkpt>
      <trkpt lat="44.7956" lon="0.39526">
        <ele>113.09</ele>
        <time>2020-07-23T10:19:01Z</time>
      </trkpt>
      <trkpt lat="44.79548" lon="0.39556">
        <ele>113.09</ele>
        <time>2020-07-23T10:19:21Z</time>
      </trkpt>
      <trkpt lat="44.79541" lon="0.39571">
        <ele>111.17</ele>
        <time>2020-07-23T10:19:32Z</time>
      </trkpt>
      <trkpt lat="44.79541" lon="0.39576">
        <ele>110.69</ele>
        <time>2020-07-23T10:19:36Z</time>
      </trkpt>
      <trkpt lat="44.79537" lon="0.39593">
        <ele>110.21</ele>
        <time>2020-07-23T10:19:46Z</time>
      </trkpt>
      <trkpt lat="44.7953" lon="0.39609">
        <ele>110.21</ele>
        <time>2020-07-23T10:19:56Z</time>
      </trkpt>
      <trkpt lat="44.79521" lon="0.39634">
        <ele>108.77</ele>
        <time>2020-07-23T10:20:13Z</time>
      </trkpt>
      <trkpt lat="44.79514" lon="0.39652">
        <ele>108.77</ele>
        <time>2020-07-23T10:20:24Z</time>
      </trkpt>
      <trkpt lat="44.79508" lon="0.39671">
        <ele>109.73</ele>
        <time>2020-07-23T10:20:37Z</time>
      </trkpt>
      <trkpt lat="44.79506" lon="0.39678">
        <ele>107.81</ele>
        <time>2020-07-23T10:20:41Z</time>
      </trkpt>
      <trkpt lat="44.79495" lon="0.39709">
        <ele>107.32</ele>
        <time>2020-07-23T10:21:00Z</time>
      </trkpt>
      <trkpt lat="44.79489" lon="0.39725">
        <ele>108.29</ele>
        <time>2020-07-23T10:21:12Z</time>
      </trkpt>
      <trkpt lat="44.79483" lon="0.39721">
        <ele>108.29</ele>
        <time>2020-07-23T10:21:26Z</time>
      </trkpt>
      <trkpt lat="44.7948" lon="0.39712">
        <ele>106.84</ele>
        <time>2020-07-23T10:21:33Z</time>
      </trkpt>
      <trkpt lat="44.79469" lon="0.397">
        <ele>106.84</ele>
        <time>2020-07-23T10:21:48Z</time>
      </trkpt>
      <trkpt lat="44.79449" lon="0.39677">
        <ele>108.29</ele>
        <time>2020-07-23T10:22:11Z</time>
      </trkpt>
      <trkpt lat="44.79441" lon="0.39658">
        <ele>107.81</ele>
        <time>2020-07-23T10:22:31Z</time>
      </trkpt>
      <trkpt lat="44.7944" lon="0.39654">
        <ele>107.81</ele>
        <time>2020-07-23T10:22:33Z</time>
      </trkpt>
      <trkpt lat="44.79435" lon="0.3964">
        <ele>107.81</ele>
        <time>2020-07-23T10:22:52Z</time>
      </trkpt>
      <trkpt lat="44.79422" lon="0.39618">
        <ele>107.81</ele>
        <time>2020-07-23T10:23:13Z</time>
      </trkpt>
      <trkpt lat="44.79401" lon="0.39597">
        <ele>108.77</ele>
        <time>2020-07-23T10:23:34Z</time>
      </trkpt>
      <trkpt lat="44.79378" lon="0.39578">
        <ele>108.29</ele>
        <time>2020-07-23T10:23:56Z</time>
      </trkpt>
      <trkpt lat="44.79363" lon="0.39563">
        <ele>107.32</ele>
        <time>2020-07-23T10:24:11Z</time>
      </trkpt>
      <trkpt lat="44.79346" lon="0.3954">
        <ele>108.29</ele>
        <time>2020-07-23T10:24:32Z</time>
      </trkpt>
      <trkpt lat="44.79333" lon="0.39524">
        <ele>107.32</ele>
        <time>2020-07-23T10:24:53Z</time>
      </trkpt>
      <trkpt lat="44.79327" lon="0.39506">
        <ele>106.36</ele>
        <time>2020-07-23T10:25:13Z</time>
      </trkpt>
      <trkpt lat="44.7932" lon="0.39501">
        <ele>105.4</ele>
        <time>2020-07-23T10:25:32Z</time>
      </trkpt>
      <trkpt lat="44.79319" lon="0.39502">
        <ele>105.88</ele>
        <time>2020-07-23T10:25:53Z</time>
      </trkpt>
      <trkpt lat="44.7932" lon="0.39501">
        <ele>105.88</ele>
        <time>2020-07-23T10:25:54Z</time>
      </trkpt>
      <trkpt lat="44.79326" lon="0.39493">
        <ele>107.32</ele>
        <time>2020-07-23T10:26:11Z</time>
      </trkpt>
      <trkpt lat="44.79333" lon="0.395">
        <ele>108.77</ele>
        <time>2020-07-23T10:26:28Z</time>
      </trkpt>
      <trkpt lat="44.79336" lon="0.39512">
        <ele>108.29</ele>
        <time>2020-07-23T10:26:47Z</time>
      </trkpt>
      <trkpt lat="44.79336" lon="0.39512">
        <ele>108.77</ele>
        <time>2020-07-23T10:27:12Z</time>
      </trkpt>
      <trkpt lat="44.79339" lon="0.39512">
        <ele>108.77</ele>
        <time>2020-07-23T10:27:36Z</time>
      </trkpt>
      <trkpt lat="44.79337" lon="0.39512">
        <ele>108.77</ele>
        <time>2020-07-23T10:27:54Z</time>
      </trkpt>
      <trkpt lat="44.79337" lon="0.39513">
        <ele>108.77</ele>
        <time>2020-07-23T10:28:20Z</time>
      </trkpt>
      <trkpt lat="44.79333" lon="0.39514">
        <ele>108.77</ele>
        <time>2020-07-23T10:28:47Z</time>
      </trkpt>
      <trkpt lat="44.79336" lon="0.39515">
        <ele>109.25</ele>
        <time>2020-07-23T10:29:08Z</time>
      </trkpt>
      <trkpt lat="44.79336" lon="0.39513">
        <ele>109.25</ele>
        <time>2020-07-23T10:29:34Z</time>
      </trkpt>
      <trkpt lat="44.79335" lon="0.39513">
        <ele>109.25</ele>
        <time>2020-07-23T10:30:14Z</time>
      </trkpt>
      <trkpt lat="44.79336" lon="0.39512">
        <ele>109.25</ele>
        <time>2020-07-23T10:30:52Z</time>
      </trkpt>
      <trkpt lat="44.79335" lon="0.39512">
        <ele>109.25</ele>
        <time>2020-07-23T10:31:29Z</time>
      </trkpt>
      <trkpt lat="44.79338" lon="0.39511">
        <ele>109.25</ele>
        <time>2020-07-23T10:32:07Z</time>
      </trkpt>
      <trkpt lat="44.79336" lon="0.39513">
        <ele>109.25</ele>
        <time>2020-07-23T10:32:45Z</time>
      </trkpt>
      <trkpt lat="44.79335" lon="0.39512">
        <ele>109.25</ele>
        <time>2020-07-23T10:33:19Z</time>
      </trkpt>
      <trkpt lat="44.79333" lon="0.39511">
        <ele>109.25</ele>
        <time>2020-07-23T10:33:55Z</time>
      </trkpt>
      <trkpt lat="44.79336" lon="0.39513">
        <ele>109.25</ele>
        <time>2020-07-23T10:34:36Z</time>
      </trkpt>
      <trkpt lat="44.79337" lon="0.39514">
        <ele>109.25</ele>
        <time>2020-07-23T10:35:06Z</time>
      </trkpt>
      <trkpt lat="44.79337" lon="0.39517">
        <ele>109.25</ele>
        <time>2020-07-23T10:35:47Z</time>
      </trkpt>
      <trkpt lat="44.79337" lon="0.39513">
        <ele>109.25</ele>
        <time>2020-07-23T10:36:22Z</time>
      </trkpt>
      <trkpt lat="44.79336" lon="0.39514">
        <ele>109.25</ele>
        <time>2020-07-23T10:37:10Z</time>
      </trkpt>
      <trkpt lat="44.79336" lon="0.39513">
        <ele>109.25</ele>
        <time>2020-07-23T10:37:49Z</time>
      </trkpt>
      <trkpt lat="44.79337" lon="0.39516">
        <ele>109.25</ele>
        <time>2020-07-23T10:38:26Z</time>
      </trkpt>
      <trkpt lat="44.79339" lon="0.39514">
        <ele>109.25</ele>
        <time>2020-07-23T10:39:07Z</time>
      </trkpt>
      <trkpt lat="44.79338" lon="0.39515">
        <ele>109.25</ele>
        <time>2020-07-23T10:39:39Z</time>
      </trkpt>
      <trkpt lat="44.79337" lon="0.39514">
        <ele>109.25</ele>
        <time>2020-07-23T10:40:24Z</time>
      </trkpt>
      <trkpt lat="44.79337" lon="0.39513">
        <ele>109.25</ele>
        <time>2020-07-23T10:40:57Z</time>
      </trkpt>
      <trkpt lat="44.79337" lon="0.39514">
        <ele>109.25</ele>
        <time>2020-07-23T10:41:35Z</time>
      </trkpt>
      <trkpt lat="44.79337" lon="0.39512">
        <ele>109.25</ele>
        <time>2020-07-23T10:42:17Z</time>
      </trkpt>
      <trkpt lat="44.79334" lon="0.39511">
        <ele>109.25</ele>
        <time>2020-07-23T10:43:04Z</time>
      </trkpt>
      <trkpt lat="44.79336" lon="0.39514">
        <ele>109.25</ele>
        <time>2020-07-23T10:43:43Z</time>
      </trkpt>
      <trkpt lat="44.79337" lon="0.39515">
        <ele>109.25</ele>
        <time>2020-07-23T10:44:17Z</time>
      </trkpt>
      <trkpt lat="44.79335" lon="0.39513">
        <ele>109.25</ele>
        <time>2020-07-23T10:44:52Z</time>
      </trkpt>
      <trkpt lat="44.79334" lon="0.39512">
        <ele>109.25</ele>
        <time>2020-07-23T10:45:30Z</time>
      </trkpt>
      <trkpt lat="44.79334" lon="0.39514">
        <ele>109.25</ele>
        <time>2020-07-23T10:46:06Z</time>
      </trkpt>
      <trkpt lat="44.79337" lon="0.39513">
        <ele>109.25</ele>
        <time>2020-07-23T10:46:45Z</time>
      </trkpt>
      <trkpt lat="44.79337" lon="0.39514">
        <ele>109.25</ele>
        <time>2020-07-23T10:47:28Z</time>
      </trkpt>
      <trkpt lat="44.79338" lon="0.39512">
        <ele>109.25</ele>
        <time>2020-07-23T10:48:16Z</time>
      </trkpt>
      <trkpt lat="44.79338" lon="0.39512">
        <ele>109.25</ele>
        <time>2020-07-23T10:48:54Z</time>
      </trkpt>
      <trkpt lat="44.79337" lon="0.39512">
        <ele>109.25</ele>
        <time>2020-07-23T10:49:28Z</time>
      </trkpt>
      <trkpt lat="44.79336" lon="0.39513">
        <ele>109.25</ele>
        <time>2020-07-23T10:49:57Z</time>
      </trkpt>
      <trkpt lat="44.79336" lon="0.39512">
        <ele>109.25</ele>
        <time>2020-07-23T10:50:33Z</time>
      </trkpt>
      <trkpt lat="44.79338" lon="0.39512">
        <ele>109.25</ele>
        <time>2020-07-23T10:51:20Z</time>
      </trkpt>
      <trkpt lat="44.79336" lon="0.39514">
        <ele>109.25</ele>
        <time>2020-07-23T10:52:03Z</time>
      </trkpt>
      <trkpt lat="44.79339" lon="0.39513">
        <ele>109.25</ele>
        <time>2020-07-23T10:52:36Z</time>
      </trkpt>
      <trkpt lat="44.79338" lon="0.39512">
        <ele>109.25</ele>
        <time>2020-07-23T10:53:13Z</time>
      </trkpt>
      <trkpt lat="44.79338" lon="0.39512">
        <ele>109.25</ele>
        <time>2020-07-23T10:53:50Z</time>
      </trkpt>
      <trkpt lat="44.79338" lon="0.39514">
        <ele>109.25</ele>
        <time>2020-07-23T10:54:23Z</time>
      </trkpt>
      <trkpt lat="44.79336" lon="0.39514">
        <ele>109.25</ele>
        <time>2020-07-23T10:54:45Z</time>
      </trkpt>
      <trkpt lat="44.79336" lon="0.39515">
        <ele>109.73</ele>
        <time>2020-07-23T10:55:14Z</time>
      </trkpt>
      <trkpt lat="44.79337" lon="0.39514">
        <ele>109.73</ele>
        <time>2020-07-23T10:55:37Z</time>
      </trkpt>
      <trkpt lat="44.79335" lon="0.39513">
        <ele>109.73</ele>
        <time>2020-07-23T10:56:04Z</time>
      </trkpt>
      <trkpt lat="44.79337" lon="0.39513">
        <ele>109.73</ele>
        <time>2020-07-23T10:56:49Z</time>
      </trkpt>
      <trkpt lat="44.79338" lon="0.39514">
        <ele>109.73</ele>
        <time>2020-07-23T10:57:29Z</time>
      </trkpt>
      <trkpt lat="44.79335" lon="0.3951">
        <ele>109.73</ele>
        <time>2020-07-23T10:58:00Z</time>
      </trkpt>
      <trkpt lat="44.79335" lon="0.3951">
        <ele>109.73</ele>
        <time>2020-07-23T10:58:35Z</time>
      </trkpt>
      <trkpt lat="44.79334" lon="0.3951">
        <ele>109.73</ele>
        <time>2020-07-23T10:59:07Z</time>
      </trkpt>
      <trkpt lat="44.79334" lon="0.3951">
        <ele>109.73</ele>
        <time>2020-07-23T10:59:29Z</time>
      </trkpt>
      <trkpt lat="44.79333" lon="0.39511">
        <ele>109.73</ele>
        <time>2020-07-23T10:59:59Z</time>
      </trkpt>
      <trkpt lat="44.79335" lon="0.39511">
        <ele>109.73</ele>
        <time>2020-07-23T11:00:33Z</time>
      </trkpt>
      <trkpt lat="44.79335" lon="0.39512">
        <ele>109.73</ele>
        <time>2020-07-23T11:01:04Z</time>
      </trkpt>
      <trkpt lat="44.79334" lon="0.39513">
        <ele>109.73</ele>
        <time>2020-07-23T11:01:40Z</time>
      </trkpt>
      <trkpt lat="44.79336" lon="0.39513">
        <ele>109.73</ele>
        <time>2020-07-23T11:02:07Z</time>
      </trkpt>
      <trkpt lat="44.79335" lon="0.39512">
        <ele>109.73</ele>
        <time>2020-07-23T11:02:34Z</time>
      </trkpt>
      <trkpt lat="44.79334" lon="0.39511">
        <ele>109.73</ele>
        <time>2020-07-23T11:03:05Z</time>
      </trkpt>
      <trkpt lat="44.79335" lon="0.39513">
        <ele>109.73</ele>
        <time>2020-07-23T11:03:26Z</time>
      </trkpt>
      <trkpt lat="44.79334" lon="0.39514">
        <ele>109.73</ele>
        <time>2020-07-23T11:03:49Z</time>
      </trkpt>
      <trkpt lat="44.79331" lon="0.39512">
        <ele>109.73</ele>
        <time>2020-07-23T11:04:10Z</time>
      </trkpt>
      <trkpt lat="44.79331" lon="0.39512">
        <ele>109.73</ele>
        <time>2020-07-23T11:04:31Z</time>
      </trkpt>
      <trkpt lat="44.79332" lon="0.3951">
        <ele>109.73</ele>
        <time>2020-07-23T11:05:01Z</time>
      </trkpt>
      <trkpt lat="44.79334" lon="0.3951">
        <ele>109.73</ele>
        <time>2020-07-23T11:05:35Z</time>
      </trkpt>
      <trkpt lat="44.79336" lon="0.39509">
        <ele>109.73</ele>
        <time>2020-07-23T11:06:11Z</time>
      </trkpt>
      <trkpt lat="44.79335" lon="0.3951">
        <ele>109.73</ele>
        <time>2020-07-23T11:06:48Z</time>
      </trkpt>
      <trkpt lat="44.79336" lon="0.39511">
        <ele>109.73</ele>
        <time>2020-07-23T11:07:30Z</time>
      </trkpt>
      <trkpt lat="44.79335" lon="0.39511">
        <ele>109.73</ele>
        <time>2020-07-23T11:08:16Z</time>
      </trkpt>
      <trkpt lat="44.79335" lon="0.39513">
        <ele>110.21</ele>
        <time>2020-07-23T11:08:52Z</time>
      </trkpt>
      <trkpt lat="44.79335" lon="0.39512">
        <ele>110.21</ele>
        <time>2020-07-23T11:09:25Z</time>
      </trkpt>
      <trkpt lat="44.79335" lon="0.39512">
        <ele>110.21</ele>
        <time>2020-07-23T11:10:04Z</time>
      </trkpt>
      <trkpt lat="44.79335" lon="0.39513">
        <ele>110.21</ele>
        <time>2020-07-23T11:10:39Z</time>
      </trkpt>
      <trkpt lat="44.79335" lon="0.39513">
        <ele>110.21</ele>
        <time>2020-07-23T11:11:05Z</time>
      </trkpt>
      <trkpt lat="44.79335" lon="0.39513">
        <ele>110.21</ele>
        <time>2020-07-23T11:11:44Z</time>
      </trkpt>
      <trkpt lat="44.79333" lon="0.3951">
        <ele>110.21</ele>
        <time>2020-07-23T11:12:22Z</time>
      </trkpt>
      <trkpt lat="44.79332" lon="0.39513">
        <ele>110.21</ele>
        <time>2020-07-23T11:12:59Z</time>
      </trkpt>
      <trkpt lat="44.79332" lon="0.39513">
        <ele>110.69</ele>
        <time>2020-07-23T11:13:36Z</time>
      </trkpt>
      <trkpt lat="44.79333" lon="0.39512">
        <ele>110.69</ele>
        <time>2020-07-23T11:14:10Z</time>
      </trkpt>
      <trkpt lat="44.79337" lon="0.39513">
        <ele>110.69</ele>
        <time>2020-07-23T11:14:36Z</time>
      </trkpt>
      <trkpt lat="44.79337" lon="0.39512">
        <ele>110.69</ele>
        <time>2020-07-23T11:14:56Z</time>
      </trkpt>
      <trkpt lat="44.79336" lon="0.39511">
        <ele>110.69</ele>
        <time>2020-07-23T11:15:25Z</time>
      </trkpt>
      <trkpt lat="44.79337" lon="0.39511">
        <ele>110.69</ele>
        <time>2020-07-23T11:16:00Z</time>
      </trkpt>
      <trkpt lat="44.79334" lon="0.39513">
        <ele>110.69</ele>
        <time>2020-07-23T11:16:36Z</time>
      </trkpt>
      <trkpt lat="44.79335" lon="0.39513">
        <ele>110.69</ele>
        <time>2020-07-23T11:17:12Z</time>
      </trkpt>
      <trkpt lat="44.79335" lon="0.39512">
        <ele>110.69</ele>
        <time>2020-07-23T11:17:44Z</time>
      </trkpt>
      <trkpt lat="44.79334" lon="0.3951">
        <ele>110.69</ele>
        <time>2020-07-23T11:18:14Z</time>
      </trkpt>
      <trkpt lat="44.79335" lon="0.3951">
        <ele>110.69</ele>
        <time>2020-07-23T11:18:57Z</time>
      </trkpt>
      <trkpt lat="44.79334" lon="0.39509">
        <ele>110.69</ele>
        <time>2020-07-23T11:19:38Z</time>
      </trkpt>
      <trkpt lat="44.79335" lon="0.3951">
        <ele>110.69</ele>
        <time>2020-07-23T11:20:15Z</time>
      </trkpt>
      <trkpt lat="44.79335" lon="0.39512">
        <ele>110.69</ele>
        <time>2020-07-23T11:20:51Z</time>
      </trkpt>
      <trkpt lat="44.79334" lon="0.3951">
        <ele>110.69</ele>
        <time>2020-07-23T11:21:27Z</time>
      </trkpt>
      <trkpt lat="44.79336" lon="0.39513">
        <ele>110.69</ele>
        <time>2020-07-23T11:22:00Z</time>
      </trkpt>
      <trkpt lat="44.79335" lon="0.39514">
        <ele>110.69</ele>
        <time>2020-07-23T11:22:33Z</time>
      </trkpt>
      <trkpt lat="44.79336" lon="0.39513">
        <ele>110.69</ele>
        <time>2020-07-23T11:23:10Z</time>
      </trkpt>
      <trkpt lat="44.79336" lon="0.3951">
        <ele>110.69</ele>
        <time>2020-07-23T11:23:42Z</time>
      </trkpt>
      <trkpt lat="44.79337" lon="0.39511">
        <ele>110.69</ele>
        <time>2020-07-23T11:24:17Z</time>
      </trkpt>
      <trkpt lat="44.79336" lon="0.39512">
        <ele>110.69</ele>
        <time>2020-07-23T11:24:47Z</time>
      </trkpt>
      <trkpt lat="44.79335" lon="0.39511">
        <ele>111.17</ele>
        <time>2020-07-23T11:25:23Z</time>
      </trkpt>
      <trkpt lat="44.79335" lon="0.3951">
        <ele>111.17</ele>
        <time>2020-07-23T11:25:59Z</time>
      </trkpt>
      <trkpt lat="44.79334" lon="0.3951">
        <ele>111.17</ele>
        <time>2020-07-23T11:26:32Z</time>
      </trkpt>
      <trkpt lat="44.79334" lon="0.3951">
        <ele>111.17</ele>
        <time>2020-07-23T11:27:10Z</time>
      </trkpt>
      <trkpt lat="44.79334" lon="0.39511">
        <ele>111.17</ele>
        <time>2020-07-23T11:27:46Z</time>
      </trkpt>
      <trkpt lat="44.79334" lon="0.39511">
        <ele>111.65</ele>
        <time>2020-07-23T11:28:20Z</time>
      </trkpt>
      <trkpt lat="44.79336" lon="0.39511">
        <ele>111.65</ele>
        <time>2020-07-23T11:28:55Z</time>
      </trkpt>
      <trkpt lat="44.79335" lon="0.3951">
        <ele>111.65</ele>
        <time>2020-07-23T11:29:34Z</time>
      </trkpt>
      <trkpt lat="44.79335" lon="0.39513">
        <ele>111.65</ele>
        <time>2020-07-23T11:30:05Z</time>
      </trkpt>
      <trkpt lat="44.79336" lon="0.39511">
        <ele>111.65</ele>
        <time>2020-07-23T11:30:32Z</time>
      </trkpt>
      <trkpt lat="44.79336" lon="0.39512">
        <ele>112.13</ele>
        <time>2020-07-23T11:31:09Z</time>
      </trkpt>
      <trkpt lat="44.79337" lon="0.39511">
        <ele>112.13</ele>
        <time>2020-07-23T11:31:44Z</time>
      </trkpt>
      <trkpt lat="44.79335" lon="0.3951">
        <ele>112.13</ele>
        <time>2020-07-23T11:32:23Z</time>
      </trkpt>
      <trkpt lat="44.79335" lon="0.3951">
        <ele>112.13</ele>
        <time>2020-07-23T11:33:02Z</time>
      </trkpt>
      <trkpt lat="44.79337" lon="0.3951">
        <ele>112.13</ele>
        <time>2020-07-23T11:33:46Z</time>
      </trkpt>
      <trkpt lat="44.79334" lon="0.39511">
        <ele>112.61</ele>
        <time>2020-07-23T11:34:18Z</time>
      </trkpt>
      <trkpt lat="44.79334" lon="0.39512">
        <ele>112.61</ele>
        <time>2020-07-23T11:34:56Z</time>
      </trkpt>
      <trkpt lat="44.79335" lon="0.3951">
        <ele>112.61</ele>
        <time>2020-07-23T11:35:28Z</time>
      </trkpt>
      <trkpt lat="44.79333" lon="0.3951">
        <ele>112.61</ele>
        <time>2020-07-23T11:36:02Z</time>
      </trkpt>
      <trkpt lat="44.79334" lon="0.3951">
        <ele>112.61</ele>
        <time>2020-07-23T11:36:33Z</time>
      </trkpt>
      <trkpt lat="44.79333" lon="0.39512">
        <ele>113.09</ele>
        <time>2020-07-23T11:37:06Z</time>
      </trkpt>
      <trkpt lat="44.79335" lon="0.39513">
        <ele>113.09</ele>
        <time>2020-07-23T11:37:42Z</time>
      </trkpt>
      <trkpt lat="44.79335" lon="0.39512">
        <ele>112.61</ele>
        <time>2020-07-23T11:38:21Z</time>
      </trkpt>
      <trkpt lat="44.79336" lon="0.39511">
        <ele>112.61</ele>
        <time>2020-07-23T11:38:58Z</time>
      </trkpt>
      <trkpt lat="44.79335" lon="0.39512">
        <ele>112.61</ele>
        <time>2020-07-23T11:39:39Z</time>
      </trkpt>
      <trkpt lat="44.79333" lon="0.39512">
        <ele>112.61</ele>
        <time>2020-07-23T11:40:16Z</time>
      </trkpt>
      <trkpt lat="44.79334" lon="0.3951">
        <ele>112.61</ele>
        <time>2020-07-23T11:40:56Z</time>
      </trkpt>
      <trkpt lat="44.79335" lon="0.3951">
        <ele>113.09</ele>
        <time>2020-07-23T11:41:27Z</time>
      </trkpt>
      <trkpt lat="44.79336" lon="0.39511">
        <ele>113.09</ele>
        <time>2020-07-23T11:41:55Z</time>
      </trkpt>
      <trkpt lat="44.79334" lon="0.39512">
        <ele>113.09</ele>
        <time>2020-07-23T11:42:29Z</time>
      </trkpt>
      <trkpt lat="44.79335" lon="0.39513">
        <ele>113.09</ele>
        <time>2020-07-23T11:43:07Z</time>
      </trkpt>
      <trkpt lat="44.79335" lon="0.39513">
        <ele>113.09</ele>
        <time>2020-07-23T11:43:44Z</time>
      </trkpt>
      <trkpt lat="44.79335" lon="0.39512">
        <ele>113.57</ele>
        <time>2020-07-23T11:44:07Z</time>
      </trkpt>
      <trkpt lat="44.79335" lon="0.39514">
        <ele>113.57</ele>
        <time>2020-07-23T11:44:34Z</time>
      </trkpt>
      <trkpt lat="44.79334" lon="0.39516">
        <ele>113.57</ele>
        <time>2020-07-23T11:44:57Z</time>
      </trkpt>
      <trkpt lat="44.79335" lon="0.39514">
        <ele>113.57</ele>
        <time>2020-07-23T11:45:19Z</time>
      </trkpt>
      <trkpt lat="44.79334" lon="0.39514">
        <ele>113.57</ele>
        <time>2020-07-23T11:45:35Z</time>
      </trkpt>
      <trkpt lat="44.79336" lon="0.39514">
        <ele>114.53</ele>
        <time>2020-07-23T11:45:54Z</time>
      </trkpt>
      <trkpt lat="44.79337" lon="0.39513">
        <ele>114.53</ele>
        <time>2020-07-23T11:46:16Z</time>
      </trkpt>
      <trkpt lat="44.79336" lon="0.39512">
        <ele>113.09</ele>
        <time>2020-07-23T11:46:40Z</time>
      </trkpt>
      <trkpt lat="44.79335" lon="0.39513">
        <ele>113.09</ele>
        <time>2020-07-23T11:47:03Z</time>
      </trkpt>
      <trkpt lat="44.79334" lon="0.39514">
        <ele>112.61</ele>
        <time>2020-07-23T11:47:34Z</time>
      </trkpt>
      <trkpt lat="44.79334" lon="0.39514">
        <ele>112.61</ele>
        <time>2020-07-23T11:47:56Z</time>
      </trkpt>
      <trkpt lat="44.79335" lon="0.39513">
        <ele>112.61</ele>
        <time>2020-07-23T11:48:20Z</time>
      </trkpt>
      <trkpt lat="44.7933" lon="0.39512">
        <ele>112.61</ele>
        <time>2020-07-23T11:49:00Z</time>
      </trkpt>
      <trkpt lat="44.79334" lon="0.39513">
        <ele>112.61</ele>
        <time>2020-07-23T11:49:34Z</time>
      </trkpt>
      <trkpt lat="44.79336" lon="0.39513">
        <ele>112.61</ele>
        <time>2020-07-23T11:50:06Z</time>
      </trkpt>
      <trkpt lat="44.79334" lon="0.39513">
        <ele>112.61</ele>
        <time>2020-07-23T11:50:46Z</time>
      </trkpt>
      <trkpt lat="44.79335" lon="0.39515">
        <ele>112.13</ele>
        <time>2020-07-23T11:51:31Z</time>
      </trkpt>
      <trkpt lat="44.79334" lon="0.39514">
        <ele>112.13</ele>
        <time>2020-07-23T11:52:11Z</time>
      </trkpt>
      <trkpt lat="44.79335" lon="0.39515">
        <ele>113.57</ele>
        <time>2020-07-23T11:52:54Z</time>
      </trkpt>
      <trkpt lat="44.79335" lon="0.39514">
        <ele>113.09</ele>
        <time>2020-07-23T11:53:30Z</time>
      </trkpt>
      <trkpt lat="44.79335" lon="0.39514">
        <ele>113.09</ele>
        <time>2020-07-23T11:54:11Z</time>
      </trkpt>
      <trkpt lat="44.79334" lon="0.39513">
        <ele>114.05</ele>
        <time>2020-07-23T11:54:31Z</time>
      </trkpt>
      <trkpt lat="44.79334" lon="0.39513">
        <ele>114.53</ele>
        <time>2020-07-23T11:54:51Z</time>
      </trkpt>
      <trkpt lat="44.79341" lon="0.39511">
        <ele>114.05</ele>
        <time>2020-07-23T11:55:16Z</time>
      </trkpt>
      <trkpt lat="44.79337" lon="0.3951">
        <ele>114.05</ele>
        <time>2020-07-23T11:55:42Z</time>
      </trkpt>
      <trkpt lat="44.79334" lon="0.3951">
        <ele>114.05</ele>
        <time>2020-07-23T11:56:12Z</time>
      </trkpt>
      <trkpt lat="44.79334" lon="0.39501">
        <ele>114.05</ele>
        <time>2020-07-23T11:56:30Z</time>
      </trkpt>
      <trkpt lat="44.79329" lon="0.3949">
        <ele>114.05</ele>
        <time>2020-07-23T11:56:48Z</time>
      </trkpt>
      <trkpt lat="44.79328" lon="0.39491">
        <ele>112.13</ele>
        <time>2020-07-23T11:56:52Z</time>
      </trkpt>
      <trkpt lat="44.79321" lon="0.39501">
        <ele>110.21</ele>
        <time>2020-07-23T11:57:05Z</time>
      </trkpt>
      <trkpt lat="44.79312" lon="0.39506">
        <ele>108.77</ele>
        <time>2020-07-23T11:57:25Z</time>
      </trkpt>
      <trkpt lat="44.79304" lon="0.3951">
        <ele>105.4</ele>
        <time>2020-07-23T11:57:38Z</time>
      </trkpt>
      <trkpt lat="44.79304" lon="0.3951">
        <ele>105.4</ele>
        <time>2020-07-23T11:57:39Z</time>
      </trkpt>
      <trkpt lat="44.79294" lon="0.39518">
        <ele>102.04</ele>
        <time>2020-07-23T11:57:54Z</time>
      </trkpt>
      <trkpt lat="44.7928" lon="0.3953">
        <ele>99.15</ele>
        <time>2020-07-23T11:58:09Z</time>
      </trkpt>
      <trkpt lat="44.79264" lon="0.39549">
        <ele>95.31</ele>
        <time>2020-07-23T11:58:29Z</time>
      </trkpt>
      <trkpt lat="44.79263" lon="0.3955">
        <ele>95.31</ele>
        <time>2020-07-23T11:58:30Z</time>
      </trkpt>
      <trkpt lat="44.79251" lon="0.39566">
        <ele>92.42</ele>
        <time>2020-07-23T11:58:48Z</time>
      </trkpt>
      <trkpt lat="44.7924" lon="0.39582">
        <ele>90.5</ele>
        <time>2020-07-23T11:59:06Z</time>
      </trkpt>
      <trkpt lat="44.7923" lon="0.39596">
        <ele>87.62</ele>
        <time>2020-07-23T11:59:20Z</time>
      </trkpt>
      <trkpt lat="44.79224" lon="0.39604">
        <ele>86.66</ele>
        <time>2020-07-23T11:59:28Z</time>
      </trkpt>
      <trkpt lat="44.79218" lon="0.39612">
        <ele>83.29</ele>
        <time>2020-07-23T11:59:40Z</time>
      </trkpt>
      <trkpt lat="44.79203" lon="0.39636">
        <ele>81.37</ele>
        <time>2020-07-23T12:00:02Z</time>
      </trkpt>
      <trkpt lat="44.79189" lon="0.39641">
        <ele>79.93</ele>
        <time>2020-07-23T12:00:22Z</time>
      </trkpt>
      <trkpt lat="44.79187" lon="0.39639">
        <ele>79.93</ele>
        <time>2020-07-23T12:00:43Z</time>
      </trkpt>
      <trkpt lat="44.79185" lon="0.39652">
        <ele>79.93</ele>
        <time>2020-07-23T12:00:55Z</time>
      </trkpt>
      <trkpt lat="44.79181" lon="0.39666">
        <ele>81.85</ele>
        <time>2020-07-23T12:01:12Z</time>
      </trkpt>
      <trkpt lat="44.79176" lon="0.39678">
        <ele>82.81</ele>
        <time>2020-07-23T12:01:26Z</time>
      </trkpt>
      <trkpt lat="44.79171" lon="0.39687">
        <ele>82.81</ele>
        <time>2020-07-23T12:01:36Z</time>
      </trkpt>
      <trkpt lat="44.79162" lon="0.39699">
        <ele>85.21</ele>
        <time>2020-07-23T12:01:51Z</time>
      </trkpt>
      <trkpt lat="44.79154" lon="0.39704">
        <ele>84.25</ele>
        <time>2020-07-23T12:02:01Z</time>
      </trkpt>
      <trkpt lat="44.79152" lon="0.39706">
        <ele>85.69</ele>
        <time>2020-07-23T12:02:03Z</time>
      </trkpt>
      <trkpt lat="44.79134" lon="0.3972">
        <ele>87.62</ele>
        <time>2020-07-23T12:02:24Z</time>
      </trkpt>
      <trkpt lat="44.79118" lon="0.39732">
        <ele>89.54</ele>
        <time>2020-07-23T12:02:43Z</time>
      </trkpt>
      <trkpt lat="44.79103" lon="0.39741">
        <ele>90.98</ele>
        <time>2020-07-23T12:03:02Z</time>
      </trkpt>
      <trkpt lat="44.79085" lon="0.39756">
        <ele>92.9</ele>
        <time>2020-07-23T12:03:23Z</time>
      </trkpt>
      <trkpt lat="44.79068" lon="0.39766">
        <ele>95.31</ele>
        <time>2020-07-23T12:03:44Z</time>
      </trkpt>
      <trkpt lat="44.79052" lon="0.39777">
        <ele>97.23</ele>
        <time>2020-07-23T12:04:06Z</time>
      </trkpt>
      <trkpt lat="44.79034" lon="0.3979">
        <ele>99.63</ele>
        <time>2020-07-23T12:04:29Z</time>
      </trkpt>
      <trkpt lat="44.79021" lon="0.39805">
        <ele>102.04</ele>
        <time>2020-07-23T12:04:47Z</time>
      </trkpt>
      <trkpt lat="44.79019" lon="0.39827">
        <ele>103</ele>
        <time>2020-07-23T12:05:03Z</time>
      </trkpt>
      <trkpt lat="44.7902" lon="0.39846">
        <ele>103.96</ele>
        <time>2020-07-23T12:05:17Z</time>
      </trkpt>
      <trkpt lat="44.79018" lon="0.39866">
        <ele>105.4</ele>
        <time>2020-07-23T12:05:34Z</time>
      </trkpt>
      <trkpt lat="44.79013" lon="0.39865">
        <ele>106.36</ele>
        <time>2020-07-23T12:05:51Z</time>
      </trkpt>
      <trkpt lat="44.79012" lon="0.39866">
        <ele>106.36</ele>
        <time>2020-07-23T12:06:16Z</time>
      </trkpt>
      <trkpt lat="44.79009" lon="0.39867">
        <ele>105.88</ele>
        <time>2020-07-23T12:06:36Z</time>
      </trkpt>
      <trkpt lat="44.79011" lon="0.39866">
        <ele>105.88</ele>
        <time>2020-07-23T12:06:55Z</time>
      </trkpt>
      <trkpt lat="44.79014" lon="0.3986">
        <ele>104.44</ele>
        <time>2020-07-23T12:07:06Z</time>
      </trkpt>
      <trkpt lat="44.79018" lon="0.39852">
        <ele>103.96</ele>
        <time>2020-07-23T12:07:26Z</time>
      </trkpt>
      <trkpt lat="44.79019" lon="0.39851">
        <ele>103.96</ele>
        <time>2020-07-23T12:07:46Z</time>
      </trkpt>
      <trkpt lat="44.79009" lon="0.39864">
        <ele>105.4</ele>
        <time>2020-07-23T12:08:05Z</time>
      </trkpt>
      <trkpt lat="44.78993" lon="0.39872">
        <ele>107.81</ele>
        <time>2020-07-23T12:08:25Z</time>
      </trkpt>
      <trkpt lat="44.78982" lon="0.39879">
        <ele>108.29</ele>
        <time>2020-07-23T12:08:39Z</time>
      </trkpt>
      <trkpt lat="44.78968" lon="0.39897">
        <ele>110.21</ele>
        <time>2020-07-23T12:08:58Z</time>
      </trkpt>
      <trkpt lat="44.78964" lon="0.39902">
        <ele>110.21</ele>
        <time>2020-07-23T12:09:08Z</time>
      </trkpt>
      <trkpt lat="44.78947" lon="0.39926">
        <ele>111.65</ele>
        <time>2020-07-23T12:09:30Z</time>
      </trkpt>
      <trkpt lat="44.78934" lon="0.39939">
        <ele>112.13</ele>
        <time>2020-07-23T12:09:47Z</time>
      </trkpt>
      <trkpt lat="44.78917" lon="0.39956">
        <ele>112.61</ele>
        <time>2020-07-23T12:10:04Z</time>
      </trkpt>
      <trkpt lat="44.78898" lon="0.39974">
        <ele>114.05</ele>
        <time>2020-07-23T12:10:24Z</time>
      </trkpt>
      <trkpt lat="44.78882" lon="0.39989">
        <ele>114.53</ele>
        <time>2020-07-23T12:10:41Z</time>
      </trkpt>
      <trkpt lat="44.78869" lon="0.40001">
        <ele>115.01</ele>
        <time>2020-07-23T12:10:55Z</time>
      </trkpt>
      <trkpt lat="44.78853" lon="0.40019">
        <ele>116.46</ele>
        <time>2020-07-23T12:11:14Z</time>
      </trkpt>
      <trkpt lat="44.78843" lon="0.40027">
        <ele>115.98</ele>
        <time>2020-07-23T12:11:23Z</time>
      </trkpt>
      <trkpt lat="44.78824" lon="0.40038">
        <ele>115.98</ele>
        <time>2020-07-23T12:11:40Z</time>
      </trkpt>
      <trkpt lat="44.78802" lon="0.40053">
        <ele>115.5</ele>
        <time>2020-07-23T12:11:59Z</time>
      </trkpt>
      <trkpt lat="44.7878" lon="0.40068">
        <ele>115.5</ele>
        <time>2020-07-23T12:12:20Z</time>
      </trkpt>
      <trkpt lat="44.78756" lon="0.40086">
        <ele>115.01</ele>
        <time>2020-07-23T12:12:42Z</time>
      </trkpt>
      <trkpt lat="44.78743" lon="0.40097">
        <ele>114.53</ele>
        <time>2020-07-23T12:12:54Z</time>
      </trkpt>
      <trkpt lat="44.7872" lon="0.40113">
        <ele>115.5</ele>
        <time>2020-07-23T12:13:16Z</time>
      </trkpt>
      <trkpt lat="44.78699" lon="0.40139">
        <ele>114.53</ele>
        <time>2020-07-23T12:13:37Z</time>
      </trkpt>
      <trkpt lat="44.78685" lon="0.40164">
        <ele>115.5</ele>
        <time>2020-07-23T12:13:56Z</time>
      </trkpt>
      <trkpt lat="44.78683" lon="0.40166">
        <ele>114.05</ele>
        <time>2020-07-23T12:13:58Z</time>
      </trkpt>
      <trkpt lat="44.78677" lon="0.40173">
        <ele>115.01</ele>
        <time>2020-07-23T12:14:04Z</time>
      </trkpt>
      <trkpt lat="44.78671" lon="0.40182">
        <ele>113.57</ele>
        <time>2020-07-23T12:14:12Z</time>
      </trkpt>
      <trkpt lat="44.78669" lon="0.40185">
        <ele>115.01</ele>
        <time>2020-07-23T12:14:14Z</time>
      </trkpt>
      <trkpt lat="44.78653" lon="0.40197">
        <ele>115.01</ele>
        <time>2020-07-23T12:14:29Z</time>
      </trkpt>
      <trkpt lat="44.78641" lon="0.40163">
        <ele>113.57</ele>
        <time>2020-07-23T12:14:51Z</time>
      </trkpt>
      <trkpt lat="44.78643" lon="0.40152">
        <ele>113.09</ele>
        <time>2020-07-23T12:15:07Z</time>
      </trkpt>
      <trkpt lat="44.78639" lon="0.4015">
        <ele>113.09</ele>
        <time>2020-07-23T12:15:29Z</time>
      </trkpt>
      <trkpt lat="44.78631" lon="0.40118">
        <ele>112.13</ele>
        <time>2020-07-23T12:15:49Z</time>
      </trkpt>
      <trkpt lat="44.78624" lon="0.4011">
        <ele>112.13</ele>
        <time>2020-07-23T12:16:05Z</time>
      </trkpt>
      <trkpt lat="44.78624" lon="0.40104">
        <ele>112.61</ele>
        <time>2020-07-23T12:16:11Z</time>
      </trkpt>
      <trkpt lat="44.78614" lon="0.40079">
        <ele>110.69</ele>
        <time>2020-07-23T12:16:30Z</time>
      </trkpt>
      <trkpt lat="44.78605" lon="0.4005">
        <ele>108.29</ele>
        <time>2020-07-23T12:16:49Z</time>
      </trkpt>
      <trkpt lat="44.78597" lon="0.40037">
        <ele>106.84</ele>
        <time>2020-07-23T12:16:58Z</time>
      </trkpt>
      <trkpt lat="44.7859" lon="0.40013">
        <ele>105.4</ele>
        <time>2020-07-23T12:17:12Z</time>
      </trkpt>
      <trkpt lat="44.78586" lon="0.39992">
        <ele>103.96</ele>
        <time>2020-07-23T12:17:25Z</time>
      </trkpt>
      <trkpt lat="44.78586" lon="0.39982">
        <ele>104.44</ele>
        <time>2020-07-23T12:17:31Z</time>
      </trkpt>
      <trkpt lat="44.78586" lon="0.39975">
        <ele>103.48</ele>
        <time>2020-07-23T12:17:35Z</time>
      </trkpt>
      <trkpt lat="44.78592" lon="0.39937">
        <ele>100.6</ele>
        <time>2020-07-23T12:17:58Z</time>
      </trkpt>
      <trkpt lat="44.78593" lon="0.39935">
        <ele>100.6</ele>
        <time>2020-07-23T12:17:59Z</time>
      </trkpt>
      <trkpt lat="44.78601" lon="0.39897">
        <ele>99.15</ele>
        <time>2020-07-23T12:18:22Z</time>
      </trkpt>
      <trkpt lat="44.78606" lon="0.39873">
        <ele>97.23</ele>
        <time>2020-07-23T12:18:36Z</time>
      </trkpt>
      <trkpt lat="44.78614" lon="0.39833">
        <ele>95.79</ele>
        <time>2020-07-23T12:19:00Z</time>
      </trkpt>
      <trkpt lat="44.78613" lon="0.39799">
        <ele>94.35</ele>
        <time>2020-07-23T12:19:21Z</time>
      </trkpt>
      <trkpt lat="44.78612" lon="0.39797">
        <ele>94.83</ele>
        <time>2020-07-23T12:19:24Z</time>
      </trkpt>
      <trkpt lat="44.78611" lon="0.39768">
        <ele>93.39</ele>
        <time>2020-07-23T12:19:40Z</time>
      </trkpt>
      <trkpt lat="44.78608" lon="0.39753">
        <ele>92.42</ele>
        <time>2020-07-23T12:19:49Z</time>
      </trkpt>
      <trkpt lat="44.78603" lon="0.39721">
        <ele>91.46</ele>
        <time>2020-07-23T12:20:08Z</time>
      </trkpt>
      <trkpt lat="44.78595" lon="0.39689">
        <ele>89.54</ele>
        <time>2020-07-23T12:20:28Z</time>
      </trkpt>
      <trkpt lat="44.78589" lon="0.39651">
        <ele>88.1</ele>
        <time>2020-07-23T12:20:48Z</time>
      </trkpt>
      <trkpt lat="44.78588" lon="0.39642">
        <ele>89.06</ele>
        <time>2020-07-23T12:20:53Z</time>
      </trkpt>
      <trkpt lat="44.78588" lon="0.39637">
        <ele>87.14</ele>
        <time>2020-07-23T12:20:56Z</time>
      </trkpt>
      <trkpt lat="44.78587" lon="0.39616">
        <ele>86.66</ele>
        <time>2020-07-23T12:21:08Z</time>
      </trkpt>
      <trkpt lat="44.78585" lon="0.39578">
        <ele>86.66</ele>
        <time>2020-07-23T12:21:28Z</time>
      </trkpt>
      <trkpt lat="44.78585" lon="0.39577">
        <ele>86.66</ele>
        <time>2020-07-23T12:21:29Z</time>
      </trkpt>
      <trkpt lat="44.78584" lon="0.39564">
        <ele>84.25</ele>
        <time>2020-07-23T12:21:37Z</time>
      </trkpt>
      <trkpt lat="44.78579" lon="0.39533">
        <ele>82.81</ele>
        <time>2020-07-23T12:21:54Z</time>
      </trkpt>
      <trkpt lat="44.78574" lon="0.39499">
        <ele>81.85</ele>
        <time>2020-07-23T12:22:14Z</time>
      </trkpt>
      <trkpt lat="44.78567" lon="0.39458">
        <ele>79.93</ele>
        <time>2020-07-23T12:22:37Z</time>
      </trkpt>
      <trkpt lat="44.78554" lon="0.39432">
        <ele>78.48</ele>
        <time>2020-07-23T12:22:55Z</time>
      </trkpt>
      <trkpt lat="44.78541" lon="0.394">
        <ele>77.52</ele>
        <time>2020-07-23T12:23:16Z</time>
      </trkpt>
      <trkpt lat="44.78536" lon="0.39394">
        <ele>76.08</ele>
        <time>2020-07-23T12:23:21Z</time>
      </trkpt>
      <trkpt lat="44.78526" lon="0.39378">
        <ele>74.64</ele>
        <time>2020-07-23T12:23:33Z</time>
      </trkpt>
      <trkpt lat="44.78524" lon="0.39376">
        <ele>76.08</ele>
        <time>2020-07-23T12:23:35Z</time>
      </trkpt>
      <trkpt lat="44.7851" lon="0.39341">
        <ele>73.68</ele>
        <time>2020-07-23T12:23:58Z</time>
      </trkpt>
      <trkpt lat="44.78504" lon="0.39328">
        <ele>72.24</ele>
        <time>2020-07-23T12:24:06Z</time>
      </trkpt>
      <trkpt lat="44.78503" lon="0.39325">
        <ele>73.68</ele>
        <time>2020-07-23T12:24:08Z</time>
      </trkpt>
      <trkpt lat="44.78498" lon="0.39309">
        <ele>71.27</ele>
        <time>2020-07-23T12:24:18Z</time>
      </trkpt>
      <trkpt lat="44.78489" lon="0.39281">
        <ele>70.79</ele>
        <time>2020-07-23T12:24:34Z</time>
      </trkpt>
      <trkpt lat="44.78476" lon="0.39246">
        <ele>68.39</ele>
        <time>2020-07-23T12:24:57Z</time>
      </trkpt>
      <trkpt lat="44.78471" lon="0.39233">
        <ele>68.39</ele>
        <time>2020-07-23T12:25:06Z</time>
      </trkpt>
      <trkpt lat="44.78469" lon="0.39228">
        <ele>69.35</ele>
        <time>2020-07-23T12:25:10Z</time>
      </trkpt>
      <trkpt lat="44.78467" lon="0.39225">
        <ele>67.91</ele>
        <time>2020-07-23T12:25:12Z</time>
      </trkpt>
      <trkpt lat="44.7846" lon="0.39202">
        <ele>66.47</ele>
        <time>2020-07-23T12:25:23Z</time>
      </trkpt>
      <trkpt lat="44.78445" lon="0.39171">
        <ele>66.95</ele>
        <time>2020-07-23T12:25:45Z</time>
      </trkpt>
      <trkpt lat="44.78441" lon="0.39163">
        <ele>65.51</ele>
        <time>2020-07-23T12:25:50Z</time>
      </trkpt>
      <trkpt lat="44.7843" lon="0.39148">
        <ele>64.07</ele>
        <time>2020-07-23T12:26:02Z</time>
      </trkpt>
      <trkpt lat="44.78427" lon="0.39147">
        <ele>65.51</ele>
        <time>2020-07-23T12:26:04Z</time>
      </trkpt>
      <trkpt lat="44.78425" lon="0.39145">
        <ele>63.58</ele>
        <time>2020-07-23T12:26:07Z</time>
      </trkpt>
      <trkpt lat="44.78422" lon="0.39144">
        <ele>65.03</ele>
        <time>2020-07-23T12:26:09Z</time>
      </trkpt>
      <trkpt lat="44.78414" lon="0.39141">
        <ele>63.58</ele>
        <time>2020-07-23T12:26:16Z</time>
      </trkpt>
      <trkpt lat="44.7839" lon="0.39132">
        <ele>60.7</ele>
        <time>2020-07-23T12:26:36Z</time>
      </trkpt>
      <trkpt lat="44.78389" lon="0.39131">
        <ele>60.7</ele>
        <time>2020-07-23T12:26:37Z</time>
      </trkpt>
      <trkpt lat="44.7838" lon="0.3913">
        <ele>60.22</ele>
        <time>2020-07-23T12:26:45Z</time>
      </trkpt>
      <trkpt lat="44.78349" lon="0.39123">
        <ele>59.26</ele>
        <time>2020-07-23T12:27:06Z</time>
      </trkpt>
      <trkpt lat="44.78339" lon="0.3912">
        <ele>57.82</ele>
        <time>2020-07-23T12:27:15Z</time>
      </trkpt>
      <trkpt lat="44.78338" lon="0.3911">
        <ele>57.34</ele>
        <time>2020-07-23T12:27:26Z</time>
      </trkpt>
      <trkpt lat="44.7834" lon="0.39107">
        <ele>57.34</ele>
        <time>2020-07-23T12:27:52Z</time>
      </trkpt>
      <trkpt lat="44.78339" lon="0.39109">
        <ele>56.86</ele>
        <time>2020-07-23T12:28:21Z</time>
      </trkpt>
      <trkpt lat="44.7834" lon="0.3911">
        <ele>56.86</ele>
        <time>2020-07-23T12:28:49Z</time>
      </trkpt>
      <trkpt lat="44.78339" lon="0.39109">
        <ele>56.86</ele>
        <time>2020-07-23T12:29:07Z</time>
      </trkpt>
      <trkpt lat="44.78339" lon="0.39109">
        <ele>58.3</ele>
        <time>2020-07-23T12:29:10Z</time>
      </trkpt>
      <trkpt lat="44.78338" lon="0.39109">
        <ele>58.3</ele>
        <time>2020-07-23T12:29:29Z</time>
      </trkpt>
      <trkpt lat="44.78338" lon="0.39108">
        <ele>58.3</ele>
        <time>2020-07-23T12:29:32Z</time>
      </trkpt>
      <trkpt lat="44.78337" lon="0.39106">
        <ele>58.3</ele>
        <time>2020-07-23T12:29:34Z</time>
      </trkpt>
      <trkpt lat="44.78341" lon="0.39102">
        <ele>56.86</ele>
        <time>2020-07-23T12:29:39Z</time>
      </trkpt>
      <trkpt lat="44.78358" lon="0.39095">
        <ele>56.37</ele>
        <time>2020-07-23T12:29:55Z</time>
      </trkpt>
      <trkpt lat="44.7836" lon="0.39094">
        <ele>55.41</ele>
        <time>2020-07-23T12:29:57Z</time>
      </trkpt>
      <trkpt lat="44.78362" lon="0.39093">
        <ele>56.86</ele>
        <time>2020-07-23T12:29:59Z</time>
      </trkpt>
      <trkpt lat="44.78376" lon="0.39087">
        <ele>57.82</ele>
        <time>2020-07-23T12:30:11Z</time>
      </trkpt>
      <trkpt lat="44.78399" lon="0.39079">
        <ele>58.3</ele>
        <time>2020-07-23T12:30:30Z</time>
      </trkpt>
      <trkpt lat="44.78413" lon="0.39074">
        <ele>57.34</ele>
        <time>2020-07-23T12:30:42Z</time>
      </trkpt>
      <trkpt lat="44.78415" lon="0.39073">
        <ele>58.3</ele>
        <time>2020-07-23T12:30:44Z</time>
      </trkpt>
      <trkpt lat="44.78438" lon="0.39065">
        <ele>58.78</ele>
        <time>2020-07-23T12:31:03Z</time>
      </trkpt>
      <trkpt lat="44.7844" lon="0.39064">
        <ele>57.82</ele>
        <time>2020-07-23T12:31:05Z</time>
      </trkpt>
      <trkpt lat="44.78443" lon="0.39063">
        <ele>58.78</ele>
        <time>2020-07-23T12:31:07Z</time>
      </trkpt>
      <trkpt lat="44.78457" lon="0.39056">
        <ele>57.34</ele>
        <time>2020-07-23T12:31:19Z</time>
      </trkpt>
      <trkpt lat="44.78459" lon="0.39055">
        <ele>58.78</ele>
        <time>2020-07-23T12:31:21Z</time>
      </trkpt>
      <trkpt lat="44.78468" lon="0.39042">
        <ele>57.34</ele>
        <time>2020-07-23T12:31:32Z</time>
      </trkpt>
      <trkpt lat="44.78473" lon="0.39021">
        <ele>56.86</ele>
        <time>2020-07-23T12:31:51Z</time>
      </trkpt>
      <trkpt lat="44.78473" lon="0.39019">
        <ele>56.86</ele>
        <time>2020-07-23T12:32:15Z</time>
      </trkpt>
      <trkpt lat="44.78473" lon="0.39015">
        <ele>56.86</ele>
        <time>2020-07-23T12:32:42Z</time>
      </trkpt>
      <trkpt lat="44.78477" lon="0.39">
        <ele>57.34</ele>
        <time>2020-07-23T12:32:59Z</time>
      </trkpt>
      <trkpt lat="44.78479" lon="0.38995">
        <ele>55.89</ele>
        <time>2020-07-23T12:33:02Z</time>
      </trkpt>
      <trkpt lat="44.78483" lon="0.38974">
        <ele>55.41</ele>
        <time>2020-07-23T12:33:14Z</time>
      </trkpt>
      <trkpt lat="44.78491" lon="0.38942">
        <ele>54.93</ele>
        <time>2020-07-23T12:33:32Z</time>
      </trkpt>
      <trkpt lat="44.78493" lon="0.38939">
        <ele>56.37</ele>
        <time>2020-07-23T12:33:34Z</time>
      </trkpt>
      <trkpt lat="44.78497" lon="0.38928">
        <ele>56.37</ele>
        <time>2020-07-23T12:33:43Z</time>
      </trkpt>
      <trkpt lat="44.78499" lon="0.38925">
        <ele>54.45</ele>
        <time>2020-07-23T12:33:45Z</time>
      </trkpt>
      <trkpt lat="44.78503" lon="0.38917">
        <ele>53.97</ele>
        <time>2020-07-23T12:33:51Z</time>
      </trkpt>
      <trkpt lat="44.78523" lon="0.3889">
        <ele>54.93</ele>
        <time>2020-07-23T12:34:11Z</time>
      </trkpt>
      <trkpt lat="44.78543" lon="0.38864">
        <ele>53.49</ele>
        <time>2020-07-23T12:34:31Z</time>
      </trkpt>
      <trkpt lat="44.78559" lon="0.38843">
        <ele>53.97</ele>
        <time>2020-07-23T12:34:49Z</time>
      </trkpt>
      <trkpt lat="44.78561" lon="0.38841">
        <ele>52.53</ele>
        <time>2020-07-23T12:34:51Z</time>
      </trkpt>
      <trkpt lat="44.78563" lon="0.38838">
        <ele>53.97</ele>
        <time>2020-07-23T12:34:53Z</time>
      </trkpt>
      <trkpt lat="44.78584" lon="0.38809">
        <ele>52.05</ele>
        <time>2020-07-23T12:35:16Z</time>
      </trkpt>
      <trkpt lat="44.786" lon="0.38791">
        <ele>52.05</ele>
        <time>2020-07-23T12:35:30Z</time>
      </trkpt>
      <trkpt lat="44.78603" lon="0.38787">
        <ele>53.49</ele>
        <time>2020-07-23T12:35:33Z</time>
      </trkpt>
      <trkpt lat="44.78624" lon="0.38763">
        <ele>53.01</ele>
        <time>2020-07-23T12:35:52Z</time>
      </trkpt>
      <trkpt lat="44.78633" lon="0.38751">
        <ele>52.05</ele>
        <time>2020-07-23T12:36:03Z</time>
      </trkpt>
      <trkpt lat="44.78637" lon="0.38745">
        <ele>53.49</ele>
        <time>2020-07-23T12:36:07Z</time>
      </trkpt>
      <trkpt lat="44.78657" lon="0.38724">
        <ele>53.49</ele>
        <time>2020-07-23T12:36:26Z</time>
      </trkpt>
      <trkpt lat="44.7868" lon="0.38711">
        <ele>54.45</ele>
        <time>2020-07-23T12:36:47Z</time>
      </trkpt>
      <trkpt lat="44.78702" lon="0.38706">
        <ele>54.93</ele>
        <time>2020-07-23T12:37:05Z</time>
      </trkpt>
      <trkpt lat="44.78716" lon="0.38704">
        <ele>53.97</ele>
        <time>2020-07-23T12:37:14Z</time>
      </trkpt>
      <trkpt lat="44.78719" lon="0.38704">
        <ele>55.41</ele>
        <time>2020-07-23T12:37:16Z</time>
      </trkpt>
      <trkpt lat="44.78743" lon="0.3869">
        <ele>53.01</ele>
        <time>2020-07-23T12:37:35Z</time>
      </trkpt>
      <trkpt lat="44.78753" lon="0.38656">
        <ele>54.45</ele>
        <time>2020-07-23T12:37:55Z</time>
      </trkpt>
      <trkpt lat="44.78754" lon="0.38654">
        <ele>53.01</ele>
        <time>2020-07-23T12:37:57Z</time>
      </trkpt>
      <trkpt lat="44.78757" lon="0.38634">
        <ele>52.53</ele>
        <time>2020-07-23T12:38:09Z</time>
      </trkpt>
      <trkpt lat="44.78758" lon="0.3863">
        <ele>53.97</ele>
        <time>2020-07-23T12:38:11Z</time>
      </trkpt>
      <trkpt lat="44.78762" lon="0.38595">
        <ele>52.53</ele>
        <time>2020-07-23T12:38:31Z</time>
      </trkpt>
      <trkpt lat="44.78769" lon="0.38561">
        <ele>52.05</ele>
        <time>2020-07-23T12:38:49Z</time>
      </trkpt>
      <trkpt lat="44.78781" lon="0.38522">
        <ele>51.57</ele>
        <time>2020-07-23T12:39:09Z</time>
      </trkpt>
      <trkpt lat="44.78791" lon="0.38492">
        <ele>51.09</ele>
        <time>2020-07-23T12:39:28Z</time>
      </trkpt>
      <trkpt lat="44.78803" lon="0.38467">
        <ele>51.09</ele>
        <time>2020-07-23T12:39:45Z</time>
      </trkpt>
      <trkpt lat="44.78808" lon="0.38455">
        <ele>51.09</ele>
        <time>2020-07-23T12:39:53Z</time>
      </trkpt>
      <trkpt lat="44.78827" lon="0.38418">
        <ele>50.61</ele>
        <time>2020-07-23T12:40:15Z</time>
      </trkpt>
      <trkpt lat="44.78834" lon="0.38407">
        <ele>50.61</ele>
        <time>2020-07-23T12:40:21Z</time>
      </trkpt>
      <trkpt lat="44.78836" lon="0.38401">
        <ele>49.16</ele>
        <time>2020-07-23T12:40:24Z</time>
      </trkpt>
      <trkpt lat="44.78838" lon="0.38398">
        <ele>50.13</ele>
        <time>2020-07-23T12:40:26Z</time>
      </trkpt>
      <trkpt lat="44.78845" lon="0.38386">
        <ele>49.16</ele>
        <time>2020-07-23T12:40:35Z</time>
      </trkpt>
      <trkpt lat="44.78847" lon="0.38383">
        <ele>50.13</ele>
        <time>2020-07-23T12:40:37Z</time>
      </trkpt>
      <trkpt lat="44.78852" lon="0.3837">
        <ele>50.13</ele>
        <time>2020-07-23T12:40:48Z</time>
      </trkpt>
      <trkpt lat="44.78857" lon="0.38359">
        <ele>50.13</ele>
        <time>2020-07-23T12:40:55Z</time>
      </trkpt>
      <trkpt lat="44.78868" lon="0.3834">
        <ele>50.13</ele>
        <time>2020-07-23T12:41:08Z</time>
      </trkpt>
      <trkpt lat="44.78882" lon="0.3831">
        <ele>50.13</ele>
        <time>2020-07-23T12:41:27Z</time>
      </trkpt>
      <trkpt lat="44.78891" lon="0.38289">
        <ele>48.68</ele>
        <time>2020-07-23T12:41:41Z</time>
      </trkpt>
      <trkpt lat="44.78897" lon="0.38276">
        <ele>48.2</ele>
        <time>2020-07-23T12:41:49Z</time>
      </trkpt>
      <trkpt lat="44.78899" lon="0.38273">
        <ele>49.65</ele>
        <time>2020-07-23T12:41:51Z</time>
      </trkpt>
      <trkpt lat="44.78901" lon="0.38269">
        <ele>48.2</ele>
        <time>2020-07-23T12:41:54Z</time>
      </trkpt>
      <trkpt lat="44.78902" lon="0.38267">
        <ele>49.16</ele>
        <time>2020-07-23T12:41:56Z</time>
      </trkpt>
      <trkpt lat="44.78903" lon="0.38264">
        <ele>47.72</ele>
        <time>2020-07-23T12:41:58Z</time>
      </trkpt>
      <trkpt lat="44.78911" lon="0.38243">
        <ele>47.72</ele>
        <time>2020-07-23T12:42:12Z</time>
      </trkpt>
      <trkpt lat="44.78914" lon="0.38236">
        <ele>48.68</ele>
        <time>2020-07-23T12:42:17Z</time>
      </trkpt>
      <trkpt lat="44.78919" lon="0.38219">
        <ele>47.24</ele>
        <time>2020-07-23T12:42:27Z</time>
      </trkpt>
      <trkpt lat="44.78919" lon="0.38217">
        <ele>48.2</ele>
        <time>2020-07-23T12:42:28Z</time>
      </trkpt>
      <trkpt lat="44.78936" lon="0.38174">
        <ele>47.24</ele>
        <time>2020-07-23T12:42:53Z</time>
      </trkpt>
      <trkpt lat="44.7894" lon="0.38164">
        <ele>46.76</ele>
        <time>2020-07-23T12:42:59Z</time>
      </trkpt>
      <trkpt lat="44.78955" lon="0.38132">
        <ele>47.72</ele>
        <time>2020-07-23T12:43:15Z</time>
      </trkpt>
      <trkpt lat="44.78973" lon="0.38109">
        <ele>47.72</ele>
        <time>2020-07-23T12:43:32Z</time>
      </trkpt>
      <trkpt lat="44.78976" lon="0.38108">
        <ele>46.28</ele>
        <time>2020-07-23T12:43:34Z</time>
      </trkpt>
      <trkpt lat="44.78991" lon="0.38092">
        <ele>47.24</ele>
        <time>2020-07-23T12:43:50Z</time>
      </trkpt>
      <trkpt lat="44.78993" lon="0.38088">
        <ele>45.8</ele>
        <time>2020-07-23T12:43:53Z</time>
      </trkpt>
      <trkpt lat="44.7901" lon="0.3807">
        <ele>46.28</ele>
        <time>2020-07-23T12:44:10Z</time>
      </trkpt>
      <trkpt lat="44.79033" lon="0.38043">
        <ele>46.76</ele>
        <time>2020-07-23T12:44:32Z</time>
      </trkpt>
      <trkpt lat="44.79044" lon="0.38038">
        <ele>46.76</ele>
        <time>2020-07-23T12:44:54Z</time>
      </trkpt>
      <trkpt lat="44.79044" lon="0.38043">
        <ele>46.28</ele>
        <time>2020-07-23T12:45:19Z</time>
      </trkpt>
      <trkpt lat="44.79048" lon="0.38038">
        <ele>44.84</ele>
        <time>2020-07-23T12:45:26Z</time>
      </trkpt>
      <trkpt lat="44.79069" lon="0.3801">
        <ele>46.76</ele>
        <time>2020-07-23T12:45:48Z</time>
      </trkpt>
      <trkpt lat="44.79074" lon="0.38003">
        <ele>45.32</ele>
        <time>2020-07-23T12:45:54Z</time>
      </trkpt>
      <trkpt lat="44.79091" lon="0.37976">
        <ele>46.28</ele>
        <time>2020-07-23T12:46:14Z</time>
      </trkpt>
      <trkpt lat="44.79089" lon="0.37968">
        <ele>44.84</ele>
        <time>2020-07-23T12:46:33Z</time>
      </trkpt>
      <trkpt lat="44.79101" lon="0.37956">
        <ele>44.36</ele>
        <time>2020-07-23T12:46:49Z</time>
      </trkpt>
      <trkpt lat="44.79119" lon="0.37933">
        <ele>43.4</ele>
        <time>2020-07-23T12:47:09Z</time>
      </trkpt>
      <trkpt lat="44.79119" lon="0.37932">
        <ele>43.4</ele>
        <time>2020-07-23T12:47:10Z</time>
      </trkpt>
      <trkpt lat="44.79135" lon="0.379">
        <ele>44.36</ele>
        <time>2020-07-23T12:47:29Z</time>
      </trkpt>
      <trkpt lat="44.7914" lon="0.37887">
        <ele>42.92</ele>
        <time>2020-07-23T12:47:38Z</time>
      </trkpt>
      <trkpt lat="44.79146" lon="0.37868">
        <ele>42.44</ele>
        <time>2020-07-23T12:47:52Z</time>
      </trkpt>
      <trkpt lat="44.79147" lon="0.37864">
        <ele>43.88</ele>
        <time>2020-07-23T12:47:55Z</time>
      </trkpt>
      <trkpt lat="44.79149" lon="0.37857">
        <ele>42.44</ele>
        <time>2020-07-23T12:48:00Z</time>
      </trkpt>
      <trkpt lat="44.7916" lon="0.37826">
        <ele>42.44</ele>
        <time>2020-07-23T12:48:20Z</time>
      </trkpt>
      <trkpt lat="44.79175" lon="0.37792">
        <ele>42.92</ele>
        <time>2020-07-23T12:48:42Z</time>
      </trkpt>
      <trkpt lat="44.79179" lon="0.37781">
        <ele>41.47</ele>
        <time>2020-07-23T12:48:50Z</time>
      </trkpt>
      <trkpt lat="44.79195" lon="0.37755">
        <ele>40.99</ele>
        <time>2020-07-23T12:49:11Z</time>
      </trkpt>
      <trkpt lat="44.79207" lon="0.37729">
        <ele>41.95</ele>
        <time>2020-07-23T12:49:30Z</time>
      </trkpt>
      <trkpt lat="44.7921" lon="0.37721">
        <ele>41.95</ele>
        <time>2020-07-23T12:49:36Z</time>
      </trkpt>
      <trkpt lat="44.79216" lon="0.37711">
        <ele>40.51</ele>
        <time>2020-07-23T12:49:43Z</time>
      </trkpt>
      <trkpt lat="44.79218" lon="0.37708">
        <ele>41.95</ele>
        <time>2020-07-23T12:49:45Z</time>
      </trkpt>
      <trkpt lat="44.79222" lon="0.37701">
        <ele>40.03</ele>
        <time>2020-07-23T12:49:50Z</time>
      </trkpt>
      <trkpt lat="44.79235" lon="0.37677">
        <ele>40.03</ele>
        <time>2020-07-23T12:50:06Z</time>
      </trkpt>
      <trkpt lat="44.7925" lon="0.37651">
        <ele>41.47</ele>
        <time>2020-07-23T12:50:27Z</time>
      </trkpt>
      <trkpt lat="44.79265" lon="0.37629">
        <ele>41.47</ele>
        <time>2020-07-23T12:50:46Z</time>
      </trkpt>
      <trkpt lat="44.79279" lon="0.37616">
        <ele>40.99</ele>
        <time>2020-07-23T12:51:03Z</time>
      </trkpt>
      <trkpt lat="44.79288" lon="0.37607">
        <ele>40.99</ele>
        <time>2020-07-23T12:51:22Z</time>
      </trkpt>
      <trkpt lat="44.79297" lon="0.37602">
        <ele>40.99</ele>
        <time>2020-07-23T12:51:50Z</time>
      </trkpt>
      <trkpt lat="44.79296" lon="0.37601">
        <ele>40.51</ele>
        <time>2020-07-23T12:52:09Z</time>
      </trkpt>
      <trkpt lat="44.793" lon="0.37597">
        <ele>40.51</ele>
        <time>2020-07-23T12:52:27Z</time>
      </trkpt>
      <trkpt lat="44.79312" lon="0.37589">
        <ele>40.51</ele>
        <time>2020-07-23T12:52:44Z</time>
      </trkpt>
      <trkpt lat="44.79332" lon="0.37572">
        <ele>40.51</ele>
        <time>2020-07-23T12:53:07Z</time>
      </trkpt>
      <trkpt lat="44.79349" lon="0.37558">
        <ele>40.51</ele>
        <time>2020-07-23T12:53:29Z</time>
      </trkpt>
      <trkpt lat="44.79351" lon="0.37557">
        <ele>41.47</ele>
        <time>2020-07-23T12:53:31Z</time>
      </trkpt>
      <trkpt lat="44.79371" lon="0.37545">
        <ele>41.47</ele>
        <time>2020-07-23T12:53:53Z</time>
      </trkpt>
      <trkpt lat="44.79375" lon="0.37543">
        <ele>41.47</ele>
        <time>2020-07-23T12:53:57Z</time>
      </trkpt>
      <trkpt lat="44.79393" lon="0.37539">
        <ele>42.44</ele>
        <time>2020-07-23T12:54:11Z</time>
      </trkpt>
      <trkpt lat="44.79398" lon="0.37539">
        <ele>42.44</ele>
        <time>2020-07-23T12:54:28Z</time>
      </trkpt>
      <trkpt lat="44.79414" lon="0.37537">
        <ele>42.44</ele>
        <time>2020-07-23T12:54:49Z</time>
      </trkpt>
      <trkpt lat="44.79431" lon="0.37538">
        <ele>42.44</ele>
        <time>2020-07-23T12:55:11Z</time>
      </trkpt>
      <trkpt lat="44.79437" lon="0.37531">
        <ele>42.44</ele>
        <time>2020-07-23T12:55:36Z</time>
      </trkpt>
      <trkpt lat="44.79439" lon="0.37535">
        <ele>42.92</ele>
        <time>2020-07-23T12:55:59Z</time>
      </trkpt>
      <trkpt lat="44.79453" lon="0.37535">
        <ele>43.88</ele>
        <time>2020-07-23T12:56:19Z</time>
      </trkpt>
      <trkpt lat="44.79475" lon="0.37533">
        <ele>43.88</ele>
        <time>2020-07-23T12:56:38Z</time>
      </trkpt>
      <trkpt lat="44.79488" lon="0.37535">
        <ele>44.84</ele>
        <time>2020-07-23T12:56:48Z</time>
      </trkpt>
      <trkpt lat="44.79505" lon="0.37535">
        <ele>45.8</ele>
        <time>2020-07-23T12:57:06Z</time>
      </trkpt>
      <trkpt lat="44.79518" lon="0.37532">
        <ele>46.28</ele>
        <time>2020-07-23T12:57:28Z</time>
      </trkpt>
      <trkpt lat="44.79519" lon="0.3753">
        <ele>46.28</ele>
        <time>2020-07-23T12:57:52Z</time>
      </trkpt>
      <trkpt lat="44.7952" lon="0.37534">
        <ele>46.28</ele>
        <time>2020-07-23T12:58:20Z</time>
      </trkpt>
      <trkpt lat="44.79518" lon="0.37538">
        <ele>46.76</ele>
        <time>2020-07-23T12:58:42Z</time>
      </trkpt>
      <trkpt lat="44.79516" lon="0.37536">
        <ele>47.24</ele>
        <time>2020-07-23T12:59:07Z</time>
      </trkpt>
      <trkpt lat="44.7952" lon="0.37538">
        <ele>47.24</ele>
        <time>2020-07-23T12:59:40Z</time>
      </trkpt>
      <trkpt lat="44.79525" lon="0.37537">
        <ele>47.24</ele>
        <time>2020-07-23T13:00:03Z</time>
      </trkpt>
      <trkpt lat="44.79525" lon="0.37531">
        <ele>47.72</ele>
        <time>2020-07-23T13:00:29Z</time>
      </trkpt>
      <trkpt lat="44.79528" lon="0.37532">
        <ele>47.72</ele>
        <time>2020-07-23T13:00:56Z</time>
      </trkpt>
      <trkpt lat="44.79537" lon="0.37522">
        <ele>47.72</ele>
        <time>2020-07-23T13:01:21Z</time>
      </trkpt>
      <trkpt lat="44.79539" lon="0.37509">
        <ele>46.28</ele>
        <time>2020-07-23T13:01:29Z</time>
      </trkpt>
      <trkpt lat="44.79541" lon="0.37502">
        <ele>47.72</ele>
        <time>2020-07-23T13:01:33Z</time>
      </trkpt>
      <trkpt lat="44.79548" lon="0.37472">
        <ele>46.28</ele>
        <time>2020-07-23T13:01:55Z</time>
      </trkpt>
      <trkpt lat="44.79549" lon="0.3747">
        <ele>47.72</ele>
        <time>2020-07-23T13:02:06Z</time>
      </trkpt>
      <trkpt lat="44.79548" lon="0.37454">
        <ele>46.28</ele>
        <time>2020-07-23T13:02:14Z</time>
      </trkpt>
      <trkpt lat="44.79552" lon="0.3743">
        <ele>45.8</ele>
        <time>2020-07-23T13:02:27Z</time>
      </trkpt>
      <trkpt lat="44.79555" lon="0.37403">
        <ele>45.32</ele>
        <time>2020-07-23T13:02:42Z</time>
      </trkpt>
      <trkpt lat="44.79556" lon="0.37383">
        <ele>45.32</ele>
        <time>2020-07-23T13:02:50Z</time>
      </trkpt>
      <trkpt lat="44.79555" lon="0.37345">
        <ele>44.84</ele>
        <time>2020-07-23T13:03:12Z</time>
      </trkpt>
      <trkpt lat="44.7955" lon="0.3731">
        <ele>44.84</ele>
        <time>2020-07-23T13:03:34Z</time>
      </trkpt>
      <trkpt lat="44.79543" lon="0.3728">
        <ele>44.36</ele>
        <time>2020-07-23T13:03:57Z</time>
      </trkpt>
      <trkpt lat="44.79547" lon="0.37258">
        <ele>44.36</ele>
        <time>2020-07-23T13:04:13Z</time>
      </trkpt>
      <trkpt lat="44.79545" lon="0.37224">
        <ele>43.4</ele>
        <time>2020-07-23T13:04:32Z</time>
      </trkpt>
      <trkpt lat="44.79544" lon="0.37189">
        <ele>42.92</ele>
        <time>2020-07-23T13:04:53Z</time>
      </trkpt>
      <trkpt lat="44.79542" lon="0.37156">
        <ele>41.95</ele>
        <time>2020-07-23T13:05:11Z</time>
      </trkpt>
      <trkpt lat="44.79542" lon="0.37125">
        <ele>41.47</ele>
        <time>2020-07-23T13:05:29Z</time>
      </trkpt>
      <trkpt lat="44.79547" lon="0.37099">
        <ele>41.47</ele>
        <time>2020-07-23T13:05:49Z</time>
      </trkpt>
      <trkpt lat="44.79565" lon="0.37071">
        <ele>41.95</ele>
        <time>2020-07-23T13:06:10Z</time>
      </trkpt>
      <trkpt lat="44.79574" lon="0.3705">
        <ele>40.99</ele>
        <time>2020-07-23T13:06:25Z</time>
      </trkpt>
      <trkpt lat="44.79575" lon="0.37048">
        <ele>42.44</ele>
        <time>2020-07-23T13:06:27Z</time>
      </trkpt>
      <trkpt lat="44.79587" lon="0.37018">
        <ele>42.44</ele>
        <time>2020-07-23T13:06:49Z</time>
      </trkpt>
      <trkpt lat="44.79591" lon="0.37007">
        <ele>41.47</ele>
        <time>2020-07-23T13:06:57Z</time>
      </trkpt>
      <trkpt lat="44.79604" lon="0.36978">
        <ele>41.47</ele>
        <time>2020-07-23T13:07:20Z</time>
      </trkpt>
      <trkpt lat="44.79618" lon="0.36952">
        <ele>40.99</ele>
        <time>2020-07-23T13:07:39Z</time>
      </trkpt>
      <trkpt lat="44.79626" lon="0.36913">
        <ele>40.99</ele>
        <time>2020-07-23T13:07:59Z</time>
      </trkpt>
      <trkpt lat="44.79632" lon="0.36891">
        <ele>40.99</ele>
        <time>2020-07-23T13:08:18Z</time>
      </trkpt>
      <trkpt lat="44.79636" lon="0.36884">
        <ele>41.95</ele>
        <time>2020-07-23T13:08:25Z</time>
      </trkpt>
      <trkpt lat="44.79656" lon="0.36864">
        <ele>42.44</ele>
        <time>2020-07-23T13:08:46Z</time>
      </trkpt>
      <trkpt lat="44.79662" lon="0.36857">
        <ele>40.99</ele>
        <time>2020-07-23T13:08:54Z</time>
      </trkpt>
      <trkpt lat="44.79681" lon="0.36835">
        <ele>41.95</ele>
        <time>2020-07-23T13:09:17Z</time>
      </trkpt>
      <trkpt lat="44.79689" lon="0.36801">
        <ele>41.95</ele>
        <time>2020-07-23T13:09:39Z</time>
      </trkpt>
      <trkpt lat="44.79692" lon="0.36775">
        <ele>41.95</ele>
        <time>2020-07-23T13:09:57Z</time>
      </trkpt>
      <trkpt lat="44.79688" lon="0.36768">
        <ele>41.95</ele>
        <time>2020-07-23T13:10:02Z</time>
      </trkpt>
      <trkpt lat="44.79672" lon="0.36757">
        <ele>41.95</ele>
        <time>2020-07-23T13:10:22Z</time>
      </trkpt>
      <trkpt lat="44.79666" lon="0.36749">
        <ele>41.95</ele>
        <time>2020-07-23T13:10:41Z</time>
      </trkpt>
      <trkpt lat="44.79668" lon="0.36745">
        <ele>42.44</ele>
        <time>2020-07-23T13:11:07Z</time>
      </trkpt>
      <trkpt lat="44.79661" lon="0.36739">
        <ele>41.95</ele>
        <time>2020-07-23T13:11:28Z</time>
      </trkpt>
      <trkpt lat="44.79659" lon="0.36732">
        <ele>40.51</ele>
        <time>2020-07-23T13:11:34Z</time>
      </trkpt>
      <trkpt lat="44.79665" lon="0.36734">
        <ele>40.03</ele>
        <time>2020-07-23T13:11:45Z</time>
      </trkpt>
      <trkpt lat="44.79668" lon="0.36738">
        <ele>39.55</ele>
        <time>2020-07-23T13:12:09Z</time>
      </trkpt>
      <trkpt lat="44.79673" lon="0.36745">
        <ele>39.07</ele>
        <time>2020-07-23T13:12:36Z</time>
      </trkpt>
      <trkpt lat="44.79668" lon="0.36742">
        <ele>39.07</ele>
        <time>2020-07-23T13:12:55Z</time>
      </trkpt>
      <trkpt lat="44.79668" lon="0.3674">
        <ele>41.47</ele>
        <time>2020-07-23T13:13:14Z</time>
      </trkpt>
      <trkpt lat="44.79651" lon="0.36734">
        <ele>41.95</ele>
        <time>2020-07-23T13:13:33Z</time>
      </trkpt>
      <trkpt lat="44.79648" lon="0.36731">
        <ele>40.51</ele>
        <time>2020-07-23T13:13:36Z</time>
      </trkpt>
      <trkpt lat="44.79643" lon="0.36727">
        <ele>41.95</ele>
        <time>2020-07-23T13:13:39Z</time>
      </trkpt>
      <trkpt lat="44.79637" lon="0.36723">
        <ele>41.95</ele>
        <time>2020-07-23T13:13:44Z</time>
      </trkpt>
      <trkpt lat="44.79631" lon="0.36719">
        <ele>40.51</ele>
        <time>2020-07-23T13:13:50Z</time>
      </trkpt>
      <trkpt lat="44.79629" lon="0.36717">
        <ele>41.95</ele>
        <time>2020-07-23T13:13:52Z</time>
      </trkpt>
      <trkpt lat="44.79611" lon="0.36703">
        <ele>41.95</ele>
        <time>2020-07-23T13:14:09Z</time>
      </trkpt>
      <trkpt lat="44.79592" lon="0.36681">
        <ele>40.99</ele>
        <time>2020-07-23T13:14:28Z</time>
      </trkpt>
      <trkpt lat="44.79589" lon="0.36678">
        <ele>42.44</ele>
        <time>2020-07-23T13:14:30Z</time>
      </trkpt>
      <trkpt lat="44.79575" lon="0.36666">
        <ele>42.44</ele>
        <time>2020-07-23T13:14:43Z</time>
      </trkpt>
      <trkpt lat="44.79555" lon="0.36645">
        <ele>42.92</ele>
        <time>2020-07-23T13:15:05Z</time>
      </trkpt>
      <trkpt lat="44.7954" lon="0.3663">
        <ele>41.95</ele>
        <time>2020-07-23T13:15:21Z</time>
      </trkpt>
      <trkpt lat="44.79538" lon="0.36628">
        <ele>43.4</ele>
        <time>2020-07-23T13:15:23Z</time>
      </trkpt>
      <trkpt lat="44.79536" lon="0.36626">
        <ele>42.44</ele>
        <time>2020-07-23T13:15:25Z</time>
      </trkpt>
      <trkpt lat="44.79519" lon="0.36609">
        <ele>43.88</ele>
        <time>2020-07-23T13:15:43Z</time>
      </trkpt>
      <trkpt lat="44.79514" lon="0.36604">
        <ele>42.44</ele>
        <time>2020-07-23T13:15:48Z</time>
      </trkpt>
      <trkpt lat="44.79512" lon="0.36603">
        <ele>43.88</ele>
        <time>2020-07-23T13:15:50Z</time>
      </trkpt>
      <trkpt lat="44.795" lon="0.36593">
        <ele>43.88</ele>
        <time>2020-07-23T13:16:04Z</time>
      </trkpt>
      <trkpt lat="44.79481" lon="0.36573">
        <ele>44.36</ele>
        <time>2020-07-23T13:16:25Z</time>
      </trkpt>
      <trkpt lat="44.79462" lon="0.36557">
        <ele>45.32</ele>
        <time>2020-07-23T13:16:44Z</time>
      </trkpt>
      <trkpt lat="44.79448" lon="0.3654">
        <ele>45.8</ele>
        <time>2020-07-23T13:17:01Z</time>
      </trkpt>
      <trkpt lat="44.79447" lon="0.36535">
        <ele>45.8</ele>
        <time>2020-07-23T13:17:06Z</time>
      </trkpt>
      <trkpt lat="44.79454" lon="0.36516">
        <ele>45.32</ele>
        <time>2020-07-23T13:17:18Z</time>
      </trkpt>
      <trkpt lat="44.7946" lon="0.36487">
        <ele>44.36</ele>
        <time>2020-07-23T13:17:38Z</time>
      </trkpt>
      <trkpt lat="44.7946" lon="0.36483">
        <ele>45.8</ele>
        <time>2020-07-23T13:17:40Z</time>
      </trkpt>
      <trkpt lat="44.79448" lon="0.36456">
        <ele>45.32</ele>
        <time>2020-07-23T13:17:59Z</time>
      </trkpt>
      <trkpt lat="44.79441" lon="0.3644">
        <ele>43.88</ele>
        <time>2020-07-23T13:18:12Z</time>
      </trkpt>
      <trkpt lat="44.7944" lon="0.36434">
        <ele>44.84</ele>
        <time>2020-07-23T13:18:16Z</time>
      </trkpt>
      <trkpt lat="44.79429" lon="0.36401">
        <ele>44.84</ele>
        <time>2020-07-23T13:18:36Z</time>
      </trkpt>
      <trkpt lat="44.79419" lon="0.36385">
        <ele>42.92</ele>
        <time>2020-07-23T13:18:46Z</time>
      </trkpt>
      <trkpt lat="44.79417" lon="0.36382">
        <ele>44.84</ele>
        <time>2020-07-23T13:18:48Z</time>
      </trkpt>
      <trkpt lat="44.79409" lon="0.36375">
        <ele>43.4</ele>
        <time>2020-07-23T13:18:55Z</time>
      </trkpt>
      <trkpt lat="44.79404" lon="0.3637">
        <ele>44.84</ele>
        <time>2020-07-23T13:18:59Z</time>
      </trkpt>
      <trkpt lat="44.79379" lon="0.36345">
        <ele>44.84</ele>
        <time>2020-07-23T13:19:21Z</time>
      </trkpt>
      <trkpt lat="44.79357" lon="0.36325">
        <ele>45.32</ele>
        <time>2020-07-23T13:19:40Z</time>
      </trkpt>
      <trkpt lat="44.79337" lon="0.36308">
        <ele>45.8</ele>
        <time>2020-07-23T13:20:02Z</time>
      </trkpt>
      <trkpt lat="44.7932" lon="0.36289">
        <ele>47.24</ele>
        <time>2020-07-23T13:20:21Z</time>
      </trkpt>
      <trkpt lat="44.79316" lon="0.36284">
        <ele>47.24</ele>
        <time>2020-07-23T13:20:26Z</time>
      </trkpt>
      <trkpt lat="44.79296" lon="0.36261">
        <ele>45.8</ele>
        <time>2020-07-23T13:20:47Z</time>
      </trkpt>
      <trkpt lat="44.79272" lon="0.36239">
        <ele>44.84</ele>
        <time>2020-07-23T13:21:07Z</time>
      </trkpt>
      <trkpt lat="44.79269" lon="0.36237">
        <ele>46.28</ele>
        <time>2020-07-23T13:21:09Z</time>
      </trkpt>
      <trkpt lat="44.79261" lon="0.3623">
        <ele>44.84</ele>
        <time>2020-07-23T13:21:16Z</time>
      </trkpt>
      <trkpt lat="44.79254" lon="0.36227">
        <ele>45.8</ele>
        <time>2020-07-23T13:21:21Z</time>
      </trkpt>
      <trkpt lat="44.7923" lon="0.36212">
        <ele>46.76</ele>
        <time>2020-07-23T13:21:43Z</time>
      </trkpt>
      <trkpt lat="44.79206" lon="0.362">
        <ele>47.24</ele>
        <time>2020-07-23T13:22:02Z</time>
      </trkpt>
      <trkpt lat="44.79202" lon="0.36196">
        <ele>46.28</ele>
        <time>2020-07-23T13:22:06Z</time>
      </trkpt>
      <trkpt lat="44.79188" lon="0.36183">
        <ele>45.8</ele>
        <time>2020-07-23T13:22:20Z</time>
      </trkpt>
      <trkpt lat="44.79185" lon="0.36181">
        <ele>47.24</ele>
        <time>2020-07-23T13:22:23Z</time>
      </trkpt>
      <trkpt lat="44.79178" lon="0.36174">
        <ele>45.8</ele>
        <time>2020-07-23T13:22:29Z</time>
      </trkpt>
      <trkpt lat="44.79176" lon="0.36171">
        <ele>47.24</ele>
        <time>2020-07-23T13:22:31Z</time>
      </trkpt>
      <trkpt lat="44.79169" lon="0.36165">
        <ele>45.8</ele>
        <time>2020-07-23T13:22:38Z</time>
      </trkpt>
      <trkpt lat="44.79165" lon="0.36161">
        <ele>47.24</ele>
        <time>2020-07-23T13:22:41Z</time>
      </trkpt>
      <trkpt lat="44.79147" lon="0.36148">
        <ele>47.24</ele>
        <time>2020-07-23T13:22:58Z</time>
      </trkpt>
      <trkpt lat="44.79132" lon="0.36136">
        <ele>45.8</ele>
        <time>2020-07-23T13:23:11Z</time>
      </trkpt>
      <trkpt lat="44.79109" lon="0.36125">
        <ele>46.76</ele>
        <time>2020-07-23T13:23:29Z</time>
      </trkpt>
      <trkpt lat="44.79086" lon="0.36114">
        <ele>46.76</ele>
        <time>2020-07-23T13:23:47Z</time>
      </trkpt>
      <trkpt lat="44.79062" lon="0.36104">
        <ele>47.24</ele>
        <time>2020-07-23T13:24:07Z</time>
      </trkpt>
      <trkpt lat="44.79058" lon="0.36101">
        <ele>47.24</ele>
        <time>2020-07-23T13:24:10Z</time>
      </trkpt>
      <trkpt lat="44.79052" lon="0.36096">
        <ele>47.24</ele>
        <time>2020-07-23T13:24:24Z</time>
      </trkpt>
      <trkpt lat="44.79054" lon="0.36081">
        <ele>47.24</ele>
        <time>2020-07-23T13:24:45Z</time>
      </trkpt>
      <trkpt lat="44.79054" lon="0.36082">
        <ele>45.8</ele>
        <time>2020-07-23T13:24:53Z</time>
      </trkpt>
      <trkpt lat="44.79057" lon="0.36071">
        <ele>44.84</ele>
        <time>2020-07-23T13:25:04Z</time>
      </trkpt>
      <trkpt lat="44.79069" lon="0.36042">
        <ele>45.32</ele>
        <time>2020-07-23T13:25:26Z</time>
      </trkpt>
      <trkpt lat="44.79073" lon="0.36036">
        <ele>43.88</ele>
        <time>2020-07-23T13:25:31Z</time>
      </trkpt>
      <trkpt lat="44.79075" lon="0.36033">
        <ele>45.32</ele>
        <time>2020-07-23T13:25:33Z</time>
      </trkpt>
      <trkpt lat="44.79081" lon="0.36027">
        <ele>43.88</ele>
        <time>2020-07-23T13:25:38Z</time>
      </trkpt>
      <trkpt lat="44.79099" lon="0.36017">
        <ele>43.4</ele>
        <time>2020-07-23T13:25:55Z</time>
      </trkpt>
      <trkpt lat="44.79095" lon="0.35999">
        <ele>44.84</ele>
        <time>2020-07-23T13:26:10Z</time>
      </trkpt>
      <trkpt lat="44.79095" lon="0.35997">
        <ele>44.84</ele>
        <time>2020-07-23T13:26:11Z</time>
      </trkpt>
      <trkpt lat="44.79091" lon="0.35971">
        <ele>45.32</ele>
        <time>2020-07-23T13:26:30Z</time>
      </trkpt>
      <trkpt lat="44.79101" lon="0.35941">
        <ele>46.76</ele>
        <time>2020-07-23T13:26:52Z</time>
      </trkpt>
      <trkpt lat="44.79112" lon="0.35914">
        <ele>48.68</ele>
        <time>2020-07-23T13:27:12Z</time>
      </trkpt>
      <trkpt lat="44.79122" lon="0.35894">
        <ele>49.65</ele>
        <time>2020-07-23T13:27:28Z</time>
      </trkpt>
      <trkpt lat="44.79136" lon="0.35863">
        <ele>51.09</ele>
        <time>2020-07-23T13:27:52Z</time>
      </trkpt>
      <trkpt lat="44.79147" lon="0.35847">
        <ele>52.05</ele>
        <time>2020-07-23T13:28:13Z</time>
      </trkpt>
      <trkpt lat="44.79157" lon="0.35824">
        <ele>53.49</ele>
        <time>2020-07-23T13:28:35Z</time>
      </trkpt>
      <trkpt lat="44.79161" lon="0.35813">
        <ele>54.45</ele>
        <time>2020-07-23T13:28:52Z</time>
      </trkpt>
      <trkpt lat="44.79164" lon="0.3579">
        <ele>56.37</ele>
        <time>2020-07-23T13:29:11Z</time>
      </trkpt>
      <trkpt lat="44.79168" lon="0.35767">
        <ele>59.26</ele>
        <time>2020-07-23T13:29:31Z</time>
      </trkpt>
      <trkpt lat="44.79173" lon="0.35741">
        <ele>61.66</ele>
        <time>2020-07-23T13:29:54Z</time>
      </trkpt>
      <trkpt lat="44.79178" lon="0.35723">
        <ele>65.03</ele>
        <time>2020-07-23T13:30:10Z</time>
      </trkpt>
      <trkpt lat="44.79183" lon="0.35702">
        <ele>67.91</ele>
        <time>2020-07-23T13:30:31Z</time>
      </trkpt>
      <trkpt lat="44.79183" lon="0.35676">
        <ele>71.27</ele>
        <time>2020-07-23T13:30:52Z</time>
      </trkpt>
      <trkpt lat="44.79186" lon="0.35658">
        <ele>73.68</ele>
        <time>2020-07-23T13:31:12Z</time>
      </trkpt>
      <trkpt lat="44.79188" lon="0.35643">
        <ele>77.04</ele>
        <time>2020-07-23T13:31:27Z</time>
      </trkpt>
      <trkpt lat="44.79188" lon="0.35633">
        <ele>78.48</ele>
        <time>2020-07-23T13:31:40Z</time>
      </trkpt>
      <trkpt lat="44.79188" lon="0.35633">
        <ele>78.48</ele>
        <time>2020-07-23T13:31:57Z</time>
      </trkpt>
      <trkpt lat="44.79189" lon="0.35629">
        <ele>78.48</ele>
        <time>2020-07-23T13:32:19Z</time>
      </trkpt>
      <trkpt lat="44.79188" lon="0.35627">
        <ele>78.97</ele>
        <time>2020-07-23T13:32:40Z</time>
      </trkpt>
      <trkpt lat="44.79189" lon="0.35617">
        <ele>79.93</ele>
        <time>2020-07-23T13:33:01Z</time>
      </trkpt>
      <trkpt lat="44.79192" lon="0.35607">
        <ele>81.37</ele>
        <time>2020-07-23T13:33:31Z</time>
      </trkpt>
      <trkpt lat="44.79196" lon="0.356">
        <ele>81.37</ele>
        <time>2020-07-23T13:33:38Z</time>
      </trkpt>
      <trkpt lat="44.79199" lon="0.35578">
        <ele>84.25</ele>
        <time>2020-07-23T13:33:57Z</time>
      </trkpt>
      <trkpt lat="44.79202" lon="0.35567">
        <ele>86.18</ele>
        <time>2020-07-23T13:34:06Z</time>
      </trkpt>
      <trkpt lat="44.79206" lon="0.35552">
        <ele>86.66</ele>
        <time>2020-07-23T13:34:23Z</time>
      </trkpt>
      <trkpt lat="44.79211" lon="0.35527">
        <ele>89.54</ele>
        <time>2020-07-23T13:34:43Z</time>
      </trkpt>
      <trkpt lat="44.79217" lon="0.35501">
        <ele>91.46</ele>
        <time>2020-07-23T13:35:05Z</time>
      </trkpt>
      <trkpt lat="44.79225" lon="0.35474">
        <ele>93.87</ele>
        <time>2020-07-23T13:35:27Z</time>
      </trkpt>
      <trkpt lat="44.79232" lon="0.3545">
        <ele>95.31</ele>
        <time>2020-07-23T13:35:46Z</time>
      </trkpt>
      <trkpt lat="44.79237" lon="0.35427">
        <ele>96.27</ele>
        <time>2020-07-23T13:36:03Z</time>
      </trkpt>
      <trkpt lat="44.79243" lon="0.35397">
        <ele>97.23</ele>
        <time>2020-07-23T13:36:23Z</time>
      </trkpt>
      <trkpt lat="44.79248" lon="0.3538">
        <ele>98.19</ele>
        <time>2020-07-23T13:36:42Z</time>
      </trkpt>
      <trkpt lat="44.79253" lon="0.35363">
        <ele>98.67</ele>
        <time>2020-07-23T13:37:02Z</time>
      </trkpt>
      <trkpt lat="44.79261" lon="0.35334">
        <ele>100.6</ele>
        <time>2020-07-23T13:37:24Z</time>
      </trkpt>
      <trkpt lat="44.79263" lon="0.35321">
        <ele>101.08</ele>
        <time>2020-07-23T13:37:33Z</time>
      </trkpt>
      <trkpt lat="44.79269" lon="0.35304">
        <ele>102.04</ele>
        <time>2020-07-23T13:37:51Z</time>
      </trkpt>
      <trkpt lat="44.79278" lon="0.35294">
        <ele>103</ele>
        <time>2020-07-23T13:38:00Z</time>
      </trkpt>
      <trkpt lat="44.79287" lon="0.35286">
        <ele>101.08</ele>
        <time>2020-07-23T13:38:08Z</time>
      </trkpt>
      <trkpt lat="44.7929" lon="0.35282">
        <ele>102.52</ele>
        <time>2020-07-23T13:38:12Z</time>
      </trkpt>
      <trkpt lat="44.79298" lon="0.35273">
        <ele>101.56</ele>
        <time>2020-07-23T13:38:29Z</time>
      </trkpt>
      <trkpt lat="44.79303" lon="0.35277">
        <ele>103</ele>
        <time>2020-07-23T13:38:57Z</time>
      </trkpt>
      <trkpt lat="44.79299" lon="0.35278">
        <ele>101.56</ele>
        <time>2020-07-23T13:39:15Z</time>
      </trkpt>
      <trkpt lat="44.79297" lon="0.35276">
        <ele>102.52</ele>
        <time>2020-07-23T13:39:17Z</time>
      </trkpt>
      <trkpt lat="44.79302" lon="0.35269">
        <ele>102.52</ele>
        <time>2020-07-23T13:39:29Z</time>
      </trkpt>
      <trkpt lat="44.79322" lon="0.35247">
        <ele>103.48</ele>
        <time>2020-07-23T13:39:50Z</time>
      </trkpt>
      <trkpt lat="44.79339" lon="0.35228">
        <ele>103.48</ele>
        <time>2020-07-23T13:40:07Z</time>
      </trkpt>
      <trkpt lat="44.79356" lon="0.3522">
        <ele>103.48</ele>
        <time>2020-07-23T13:40:21Z</time>
      </trkpt>
      <trkpt lat="44.7936" lon="0.35218">
        <ele>103.48</ele>
        <time>2020-07-23T13:40:25Z</time>
      </trkpt>
      <trkpt lat="44.79371" lon="0.35206">
        <ele>103.96</ele>
        <time>2020-07-23T13:40:36Z</time>
      </trkpt>
      <trkpt lat="44.79385" lon="0.35196">
        <ele>103.96</ele>
        <time>2020-07-23T13:40:49Z</time>
      </trkpt>
      <trkpt lat="44.7941" lon="0.35199">
        <ele>104.44</ele>
        <time>2020-07-23T13:41:08Z</time>
      </trkpt>
      <trkpt lat="44.79433" lon="0.35185">
        <ele>104.44</ele>
        <time>2020-07-23T13:41:27Z</time>
      </trkpt>
      <trkpt lat="44.79452" lon="0.35174">
        <ele>104.44</ele>
        <time>2020-07-23T13:41:47Z</time>
      </trkpt>
      <trkpt lat="44.79459" lon="0.35168">
        <ele>105.4</ele>
        <time>2020-07-23T13:41:59Z</time>
      </trkpt>
      <trkpt lat="44.79463" lon="0.35164">
        <ele>103.96</ele>
        <time>2020-07-23T13:42:02Z</time>
      </trkpt>
      <trkpt lat="44.79481" lon="0.35136">
        <ele>104.44</ele>
        <time>2020-07-23T13:42:24Z</time>
      </trkpt>
      <trkpt lat="44.79497" lon="0.351">
        <ele>105.88</ele>
        <time>2020-07-23T13:42:46Z</time>
      </trkpt>
      <trkpt lat="44.79506" lon="0.35074">
        <ele>105.88</ele>
        <time>2020-07-23T13:43:02Z</time>
      </trkpt>
      <trkpt lat="44.79509" lon="0.35055">
        <ele>106.36</ele>
        <time>2020-07-23T13:43:16Z</time>
      </trkpt>
      <trkpt lat="44.79508" lon="0.35038">
        <ele>106.36</ele>
        <time>2020-07-23T13:43:27Z</time>
      </trkpt>
      <trkpt lat="44.79499" lon="0.35036">
        <ele>106.36</ele>
        <time>2020-07-23T13:43:46Z</time>
      </trkpt>
      <trkpt lat="44.795" lon="0.35033">
        <ele>106.36</ele>
        <time>2020-07-23T13:44:08Z</time>
      </trkpt>
      <trkpt lat="44.79501" lon="0.35034">
        <ele>106.36</ele>
        <time>2020-07-23T13:44:32Z</time>
      </trkpt>
      <trkpt lat="44.79498" lon="0.35031">
        <ele>106.36</ele>
        <time>2020-07-23T13:45:08Z</time>
      </trkpt>
      <trkpt lat="44.79499" lon="0.35036">
        <ele>106.36</ele>
        <time>2020-07-23T13:45:54Z</time>
      </trkpt>
      <trkpt lat="44.795" lon="0.35035">
        <ele>106.36</ele>
        <time>2020-07-23T13:46:13Z</time>
      </trkpt>
      <trkpt lat="44.795" lon="0.35032">
        <ele>106.36</ele>
        <time>2020-07-23T13:46:43Z</time>
      </trkpt>
      <trkpt lat="44.795" lon="0.35032">
        <ele>105.88</ele>
        <time>2020-07-23T13:47:18Z</time>
      </trkpt>
      <trkpt lat="44.79501" lon="0.35033">
        <ele>105.88</ele>
        <time>2020-07-23T13:48:00Z</time>
      </trkpt>
      <trkpt lat="44.795" lon="0.35034">
        <ele>105.88</ele>
        <time>2020-07-23T13:48:47Z</time>
      </trkpt>
      <trkpt lat="44.795" lon="0.35034">
        <ele>105.88</ele>
        <time>2020-07-23T13:49:38Z</time>
      </trkpt>
      <trkpt lat="44.79499" lon="0.35033">
        <ele>105.88</ele>
        <time>2020-07-23T13:50:11Z</time>
      </trkpt>
      <trkpt lat="44.795" lon="0.35034">
        <ele>105.88</ele>
        <time>2020-07-23T13:50:43Z</time>
      </trkpt>
      <trkpt lat="44.795" lon="0.35036">
        <ele>105.88</ele>
        <time>2020-07-23T13:51:22Z</time>
      </trkpt>
      <trkpt lat="44.795" lon="0.35034">
        <ele>105.88</ele>
        <time>2020-07-23T13:52:00Z</time>
      </trkpt>
      <trkpt lat="44.79499" lon="0.35034">
        <ele>105.88</ele>
        <time>2020-07-23T13:52:42Z</time>
      </trkpt>
      <trkpt lat="44.79499" lon="0.35036">
        <ele>105.88</ele>
        <time>2020-07-23T13:53:22Z</time>
      </trkpt>
      <trkpt lat="44.79497" lon="0.35034">
        <ele>105.88</ele>
        <time>2020-07-23T13:53:55Z</time>
      </trkpt>
      <trkpt lat="44.79498" lon="0.35034">
        <ele>105.88</ele>
        <time>2020-07-23T13:54:31Z</time>
      </trkpt>
      <trkpt lat="44.79499" lon="0.35035">
        <ele>105.88</ele>
        <time>2020-07-23T13:55:01Z</time>
      </trkpt>
      <trkpt lat="44.79501" lon="0.35034">
        <ele>106.36</ele>
        <time>2020-07-23T13:55:23Z</time>
      </trkpt>
      <trkpt lat="44.79501" lon="0.35033">
        <ele>106.36</ele>
        <time>2020-07-23T13:55:47Z</time>
      </trkpt>
      <trkpt lat="44.79502" lon="0.35035">
        <ele>106.36</ele>
        <time>2020-07-23T13:56:09Z</time>
      </trkpt>
      <trkpt lat="44.79499" lon="0.35033">
        <ele>106.36</ele>
        <time>2020-07-23T13:56:29Z</time>
      </trkpt>
      <trkpt lat="44.795" lon="0.35034">
        <ele>106.36</ele>
        <time>2020-07-23T13:56:52Z</time>
      </trkpt>
      <trkpt lat="44.79502" lon="0.35034">
        <ele>106.84</ele>
        <time>2020-07-23T13:57:15Z</time>
      </trkpt>
      <trkpt lat="44.79509" lon="0.35035">
        <ele>106.84</ele>
        <time>2020-07-23T13:57:28Z</time>
      </trkpt>
      <trkpt lat="44.79509" lon="0.35021">
        <ele>106.84</ele>
        <time>2020-07-23T13:57:43Z</time>
      </trkpt>
      <trkpt lat="44.79514" lon="0.35">
        <ele>106.84</ele>
        <time>2020-07-23T13:58:00Z</time>
      </trkpt>
      <trkpt lat="44.79518" lon="0.34972">
        <ele>106.36</ele>
        <time>2020-07-23T13:58:20Z</time>
      </trkpt>
      <trkpt lat="44.79527" lon="0.34947">
        <ele>106.84</ele>
        <time>2020-07-23T13:58:38Z</time>
      </trkpt>
      <trkpt lat="44.79533" lon="0.34935">
        <ele>106.36</ele>
        <time>2020-07-23T13:58:53Z</time>
      </trkpt>
      <trkpt lat="44.79543" lon="0.3491">
        <ele>106.84</ele>
        <time>2020-07-23T13:59:10Z</time>
      </trkpt>
      <trkpt lat="44.79551" lon="0.34882">
        <ele>107.32</ele>
        <time>2020-07-23T13:59:30Z</time>
      </trkpt>
      <trkpt lat="44.79564" lon="0.34858">
        <ele>108.29</ele>
        <time>2020-07-23T13:59:49Z</time>
      </trkpt>
      <trkpt lat="44.79576" lon="0.34836">
        <ele>109.25</ele>
        <time>2020-07-23T14:00:07Z</time>
      </trkpt>
      <trkpt lat="44.79588" lon="0.34806">
        <ele>110.21</ele>
        <time>2020-07-23T14:00:29Z</time>
      </trkpt>
      <trkpt lat="44.79599" lon="0.34784">
        <ele>110.69</ele>
        <time>2020-07-23T14:00:46Z</time>
      </trkpt>
      <trkpt lat="44.79603" lon="0.34779">
        <ele>110.69</ele>
        <time>2020-07-23T14:00:50Z</time>
      </trkpt>
      <trkpt lat="44.79619" lon="0.34754">
        <ele>110.69</ele>
        <time>2020-07-23T14:01:12Z</time>
      </trkpt>
      <trkpt lat="44.7964" lon="0.34729">
        <ele>111.65</ele>
        <time>2020-07-23T14:01:36Z</time>
      </trkpt>
      <trkpt lat="44.79643" lon="0.34725">
        <ele>110.21</ele>
        <time>2020-07-23T14:01:39Z</time>
      </trkpt>
      <trkpt lat="44.79661" lon="0.34709">
        <ele>111.17</ele>
        <time>2020-07-23T14:01:57Z</time>
      </trkpt>
      <trkpt lat="44.79683" lon="0.34691">
        <ele>113.09</ele>
        <time>2020-07-23T14:02:18Z</time>
      </trkpt>
      <trkpt lat="44.79697" lon="0.34688">
        <ele>113.57</ele>
        <time>2020-07-23T14:02:38Z</time>
      </trkpt>
      <trkpt lat="44.797" lon="0.3468">
        <ele>114.05</ele>
        <time>2020-07-23T14:02:56Z</time>
      </trkpt>
      <trkpt lat="44.79711" lon="0.34668">
        <ele>114.05</ele>
        <time>2020-07-23T14:03:09Z</time>
      </trkpt>
      <trkpt lat="44.79732" lon="0.34649">
        <ele>114.53</ele>
        <time>2020-07-23T14:03:31Z</time>
      </trkpt>
      <trkpt lat="44.79749" lon="0.34639">
        <ele>114.05</ele>
        <time>2020-07-23T14:03:47Z</time>
      </trkpt>
      <trkpt lat="44.79771" lon="0.34619">
        <ele>111.65</ele>
        <time>2020-07-23T14:04:07Z</time>
      </trkpt>
      <trkpt lat="44.79781" lon="0.34609">
        <ele>113.09</ele>
        <time>2020-07-23T14:04:24Z</time>
      </trkpt>
      <trkpt lat="44.79778" lon="0.34606">
        <ele>113.09</ele>
        <time>2020-07-23T14:04:45Z</time>
      </trkpt>
      <trkpt lat="44.79775" lon="0.34603">
        <ele>113.09</ele>
        <time>2020-07-23T14:05:08Z</time>
      </trkpt>
      <trkpt lat="44.79776" lon="0.34603">
        <ele>113.09</ele>
        <time>2020-07-23T14:05:36Z</time>
      </trkpt>
      <trkpt lat="44.79785" lon="0.34598">
        <ele>111.17</ele>
        <time>2020-07-23T14:05:54Z</time>
      </trkpt>
      <trkpt lat="44.79803" lon="0.34582">
        <ele>111.65</ele>
        <time>2020-07-23T14:06:09Z</time>
      </trkpt>
      <trkpt lat="44.79807" lon="0.34577">
        <ele>110.21</ele>
        <time>2020-07-23T14:06:14Z</time>
      </trkpt>
      <trkpt lat="44.79828" lon="0.34555">
        <ele>111.17</ele>
        <time>2020-07-23T14:06:33Z</time>
      </trkpt>
      <trkpt lat="44.79836" lon="0.34546">
        <ele>110.21</ele>
        <time>2020-07-23T14:06:42Z</time>
      </trkpt>
      <trkpt lat="44.79853" lon="0.34517">
        <ele>109.73</ele>
        <time>2020-07-23T14:07:02Z</time>
      </trkpt>
      <trkpt lat="44.79865" lon="0.34487">
        <ele>109.73</ele>
        <time>2020-07-23T14:07:20Z</time>
      </trkpt>
      <trkpt lat="44.79867" lon="0.34459">
        <ele>110.69</ele>
        <time>2020-07-23T14:07:36Z</time>
      </trkpt>
      <trkpt lat="44.79868" lon="0.34451">
        <ele>109.25</ele>
        <time>2020-07-23T14:07:40Z</time>
      </trkpt>
      <trkpt lat="44.79867" lon="0.34436">
        <ele>108.77</ele>
        <time>2020-07-23T14:07:48Z</time>
      </trkpt>
      <trkpt lat="44.79865" lon="0.34418">
        <ele>110.21</ele>
        <time>2020-07-23T14:07:59Z</time>
      </trkpt>
      <trkpt lat="44.79865" lon="0.34402">
        <ele>108.77</ele>
        <time>2020-07-23T14:08:09Z</time>
      </trkpt>
      <trkpt lat="44.79865" lon="0.34399">
        <ele>110.21</ele>
        <time>2020-07-23T14:08:11Z</time>
      </trkpt>
      <trkpt lat="44.7987" lon="0.34381">
        <ele>110.21</ele>
        <time>2020-07-23T14:08:26Z</time>
      </trkpt>
      <trkpt lat="44.79875" lon="0.34382">
        <ele>110.21</ele>
        <time>2020-07-23T14:08:49Z</time>
      </trkpt>
      <trkpt lat="44.79881" lon="0.34383">
        <ele>110.21</ele>
        <time>2020-07-23T14:09:24Z</time>
      </trkpt>
      <trkpt lat="44.79878" lon="0.34384">
        <ele>110.69</ele>
        <time>2020-07-23T14:09:54Z</time>
      </trkpt>
      <trkpt lat="44.79868" lon="0.34377">
        <ele>110.69</ele>
        <time>2020-07-23T14:10:19Z</time>
      </trkpt>
      <trkpt lat="44.7987" lon="0.34343">
        <ele>110.69</ele>
        <time>2020-07-23T14:10:40Z</time>
      </trkpt>
      <trkpt lat="44.79885" lon="0.34312">
        <ele>111.17</ele>
        <time>2020-07-23T14:11:01Z</time>
      </trkpt>
      <trkpt lat="44.79896" lon="0.34287">
        <ele>109.73</ele>
        <time>2020-07-23T14:11:22Z</time>
      </trkpt>
      <trkpt lat="44.79905" lon="0.34294">
        <ele>109.73</ele>
        <time>2020-07-23T14:11:39Z</time>
      </trkpt>
      <trkpt lat="44.79901" lon="0.34287">
        <ele>109.73</ele>
        <time>2020-07-23T14:12:02Z</time>
      </trkpt>
      <trkpt lat="44.79904" lon="0.34289">
        <ele>109.73</ele>
        <time>2020-07-23T14:12:31Z</time>
      </trkpt>
      <trkpt lat="44.79913" lon="0.34301">
        <ele>109.25</ele>
        <time>2020-07-23T14:12:48Z</time>
      </trkpt>
      <trkpt lat="44.79921" lon="0.34302">
        <ele>109.25</ele>
        <time>2020-07-23T14:13:10Z</time>
      </trkpt>
      <trkpt lat="44.79925" lon="0.34301">
        <ele>109.25</ele>
        <time>2020-07-23T14:13:37Z</time>
      </trkpt>
      <trkpt lat="44.79925" lon="0.34295">
        <ele>109.25</ele>
        <time>2020-07-23T14:13:59Z</time>
      </trkpt>
      <trkpt lat="44.79924" lon="0.34301">
        <ele>109.25</ele>
        <time>2020-07-23T14:14:21Z</time>
      </trkpt>
      <trkpt lat="44.79913" lon="0.34308">
        <ele>109.25</ele>
        <time>2020-07-23T14:14:45Z</time>
      </trkpt>
      <trkpt lat="44.79921" lon="0.34298">
        <ele>109.25</ele>
        <time>2020-07-23T14:15:08Z</time>
      </trkpt>
      <trkpt lat="44.79922" lon="0.34305">
        <ele>109.25</ele>
        <time>2020-07-23T14:15:37Z</time>
      </trkpt>
      <trkpt lat="44.79914" lon="0.34302">
        <ele>110.69</ele>
        <time>2020-07-23T14:15:58Z</time>
      </trkpt>
      <trkpt lat="44.79907" lon="0.34297">
        <ele>110.69</ele>
        <time>2020-07-23T14:16:18Z</time>
      </trkpt>
      <trkpt lat="44.79901" lon="0.3429">
        <ele>111.17</ele>
        <time>2020-07-23T14:16:40Z</time>
      </trkpt>
      <trkpt lat="44.79897" lon="0.34279">
        <ele>111.65</ele>
        <time>2020-07-23T14:16:57Z</time>
      </trkpt>
      <trkpt lat="44.79908" lon="0.34262">
        <ele>111.65</ele>
        <time>2020-07-23T14:17:17Z</time>
      </trkpt>
      <trkpt lat="44.79914" lon="0.3425">
        <ele>111.65</ele>
        <time>2020-07-23T14:17:41Z</time>
      </trkpt>
      <trkpt lat="44.79917" lon="0.34243">
        <ele>111.65</ele>
        <time>2020-07-23T14:18:04Z</time>
      </trkpt>
      <trkpt lat="44.79928" lon="0.34215">
        <ele>111.65</ele>
        <time>2020-07-23T14:18:25Z</time>
      </trkpt>
      <trkpt lat="44.79936" lon="0.34201">
        <ele>111.65</ele>
        <time>2020-07-23T14:18:44Z</time>
      </trkpt>
      <trkpt lat="44.79947" lon="0.34177">
        <ele>111.65</ele>
        <time>2020-07-23T14:19:05Z</time>
      </trkpt>
      <trkpt lat="44.79949" lon="0.34174">
        <ele>111.17</ele>
        <time>2020-07-23T14:19:08Z</time>
      </trkpt>
      <trkpt lat="44.79962" lon="0.34143">
        <ele>112.13</ele>
        <time>2020-07-23T14:19:30Z</time>
      </trkpt>
      <trkpt lat="44.79964" lon="0.34135">
        <ele>110.69</ele>
        <time>2020-07-23T14:19:35Z</time>
      </trkpt>
      <trkpt lat="44.79968" lon="0.34127">
        <ele>112.13</ele>
        <time>2020-07-23T14:19:42Z</time>
      </trkpt>
      <trkpt lat="44.79969" lon="0.34124">
        <ele>110.69</ele>
        <time>2020-07-23T14:19:44Z</time>
      </trkpt>
      <trkpt lat="44.79971" lon="0.34118">
        <ele>112.13</ele>
        <time>2020-07-23T14:19:47Z</time>
      </trkpt>
      <trkpt lat="44.79972" lon="0.34113">
        <ele>110.69</ele>
        <time>2020-07-23T14:19:50Z</time>
      </trkpt>
      <trkpt lat="44.79974" lon="0.34109">
        <ele>112.13</ele>
        <time>2020-07-23T14:19:52Z</time>
      </trkpt>
      <trkpt lat="44.79977" lon="0.34105">
        <ele>112.13</ele>
        <time>2020-07-23T14:19:56Z</time>
      </trkpt>
      <trkpt lat="44.79981" lon="0.34099">
        <ele>112.13</ele>
        <time>2020-07-23T14:20:00Z</time>
      </trkpt>
      <trkpt lat="44.79968" lon="0.34078">
        <ele>114.05</ele>
        <time>2020-07-23T14:20:18Z</time>
      </trkpt>
      <trkpt lat="44.79952" lon="0.34065">
        <ele>115.01</ele>
        <time>2020-07-23T14:20:35Z</time>
      </trkpt>
      <trkpt lat="44.79938" lon="0.34052">
        <ele>116.46</ele>
        <time>2020-07-23T14:20:57Z</time>
      </trkpt>
      <trkpt lat="44.79927" lon="0.34042">
        <ele>115.98</ele>
        <time>2020-07-23T14:21:10Z</time>
      </trkpt>
      <trkpt lat="44.7991" lon="0.34027">
        <ele>115.98</ele>
        <time>2020-07-23T14:21:28Z</time>
      </trkpt>
      <trkpt lat="44.79891" lon="0.34012">
        <ele>115.5</ele>
        <time>2020-07-23T14:21:48Z</time>
      </trkpt>
      <trkpt lat="44.79877" lon="0.34001">
        <ele>116.46</ele>
        <time>2020-07-23T14:22:09Z</time>
      </trkpt>
      <trkpt lat="44.79866" lon="0.33994">
        <ele>116.46</ele>
        <time>2020-07-23T14:22:33Z</time>
      </trkpt>
      <trkpt lat="44.79855" lon="0.33982">
        <ele>115.01</ele>
        <time>2020-07-23T14:22:46Z</time>
      </trkpt>
      <trkpt lat="44.79841" lon="0.3396">
        <ele>113.57</ele>
        <time>2020-07-23T14:23:01Z</time>
      </trkpt>
      <trkpt lat="44.79832" lon="0.33931">
        <ele>113.57</ele>
        <time>2020-07-23T14:23:18Z</time>
      </trkpt>
      <trkpt lat="44.7983" lon="0.33923">
        <ele>112.13</ele>
        <time>2020-07-23T14:23:22Z</time>
      </trkpt>
      <trkpt lat="44.79823" lon="0.33896">
        <ele>111.17</ele>
        <time>2020-07-23T14:23:37Z</time>
      </trkpt>
      <trkpt lat="44.79822" lon="0.33892">
        <ele>112.61</ele>
        <time>2020-07-23T14:23:40Z</time>
      </trkpt>
      <trkpt lat="44.79816" lon="0.33866">
        <ele>110.69</ele>
        <time>2020-07-23T14:23:56Z</time>
      </trkpt>
      <trkpt lat="44.79816" lon="0.33862">
        <ele>112.13</ele>
        <time>2020-07-23T14:23:58Z</time>
      </trkpt>
      <trkpt lat="44.79808" lon="0.33827">
        <ele>109.73</ele>
        <time>2020-07-23T14:24:15Z</time>
      </trkpt>
      <trkpt lat="44.79807" lon="0.33822">
        <ele>111.65</ele>
        <time>2020-07-23T14:24:18Z</time>
      </trkpt>
      <trkpt lat="44.79805" lon="0.33814">
        <ele>110.21</ele>
        <time>2020-07-23T14:24:23Z</time>
      </trkpt>
      <trkpt lat="44.79804" lon="0.33808">
        <ele>111.65</ele>
        <time>2020-07-23T14:24:26Z</time>
      </trkpt>
      <trkpt lat="44.79803" lon="0.33804">
        <ele>110.21</ele>
        <time>2020-07-23T14:24:28Z</time>
      </trkpt>
      <trkpt lat="44.79798" lon="0.3377">
        <ele>109.25</ele>
        <time>2020-07-23T14:24:47Z</time>
      </trkpt>
      <trkpt lat="44.79797" lon="0.33746">
        <ele>109.25</ele>
        <time>2020-07-23T14:25:00Z</time>
      </trkpt>
      <trkpt lat="44.79797" lon="0.33741">
        <ele>110.69</ele>
        <time>2020-07-23T14:25:02Z</time>
      </trkpt>
      <trkpt lat="44.798" lon="0.33725">
        <ele>108.77</ele>
        <time>2020-07-23T14:25:11Z</time>
      </trkpt>
      <trkpt lat="44.79802" lon="0.33715">
        <ele>109.73</ele>
        <time>2020-07-23T14:25:16Z</time>
      </trkpt>
      <trkpt lat="44.79805" lon="0.33706">
        <ele>108.77</ele>
        <time>2020-07-23T14:25:22Z</time>
      </trkpt>
      <trkpt lat="44.79817" lon="0.33693">
        <ele>107.81</ele>
        <time>2020-07-23T14:25:36Z</time>
      </trkpt>
      <trkpt lat="44.79824" lon="0.3369">
        <ele>107.81</ele>
        <time>2020-07-23T14:25:41Z</time>
      </trkpt>
      <trkpt lat="44.79839" lon="0.33671">
        <ele>108.77</ele>
        <time>2020-07-23T14:26:00Z</time>
      </trkpt>
      <trkpt lat="44.79839" lon="0.33641">
        <ele>108.29</ele>
        <time>2020-07-23T14:26:18Z</time>
      </trkpt>
      <trkpt lat="44.79838" lon="0.33632">
        <ele>107.32</ele>
        <time>2020-07-23T14:26:22Z</time>
      </trkpt>
      <trkpt lat="44.79837" lon="0.33625">
        <ele>107.32</ele>
        <time>2020-07-23T14:26:27Z</time>
      </trkpt>
      <trkpt lat="44.79838" lon="0.33593">
        <ele>106.36</ele>
        <time>2020-07-23T14:26:48Z</time>
      </trkpt>
      <trkpt lat="44.79836" lon="0.33588">
        <ele>108.29</ele>
        <time>2020-07-23T14:26:51Z</time>
      </trkpt>
      <trkpt lat="44.79836" lon="0.33584">
        <ele>108.29</ele>
        <time>2020-07-23T14:26:53Z</time>
      </trkpt>
      <trkpt lat="44.79834" lon="0.33554">
        <ele>107.81</ele>
        <time>2020-07-23T14:27:13Z</time>
      </trkpt>
      <trkpt lat="44.79834" lon="0.3355">
        <ele>106.36</ele>
        <time>2020-07-23T14:27:15Z</time>
      </trkpt>
      <trkpt lat="44.79834" lon="0.33546">
        <ele>107.81</ele>
        <time>2020-07-23T14:27:17Z</time>
      </trkpt>
      <trkpt lat="44.79833" lon="0.33512">
        <ele>106.84</ele>
        <time>2020-07-23T14:27:35Z</time>
      </trkpt>
      <trkpt lat="44.79833" lon="0.3349">
        <ele>108.29</ele>
        <time>2020-07-23T14:27:48Z</time>
      </trkpt>
      <trkpt lat="44.79832" lon="0.33485">
        <ele>106.84</ele>
        <time>2020-07-23T14:27:51Z</time>
      </trkpt>
      <trkpt lat="44.79833" lon="0.33471">
        <ele>108.29</ele>
        <time>2020-07-23T14:27:58Z</time>
      </trkpt>
      <trkpt lat="44.7984" lon="0.33434">
        <ele>107.32</ele>
        <time>2020-07-23T14:28:19Z</time>
      </trkpt>
      <trkpt lat="44.79843" lon="0.33429">
        <ele>107.32</ele>
        <time>2020-07-23T14:28:23Z</time>
      </trkpt>
      <trkpt lat="44.79858" lon="0.33394">
        <ele>107.32</ele>
        <time>2020-07-23T14:28:42Z</time>
      </trkpt>
      <trkpt lat="44.79861" lon="0.33388">
        <ele>107.32</ele>
        <time>2020-07-23T14:28:47Z</time>
      </trkpt>
      <trkpt lat="44.79865" lon="0.3338">
        <ele>106.36</ele>
        <time>2020-07-23T14:28:53Z</time>
      </trkpt>
      <trkpt lat="44.79867" lon="0.33354">
        <ele>106.36</ele>
        <time>2020-07-23T14:29:10Z</time>
      </trkpt>
      <trkpt lat="44.79868" lon="0.3335">
        <ele>105.88</ele>
        <time>2020-07-23T14:29:19Z</time>
      </trkpt>
      <trkpt lat="44.79869" lon="0.33327">
        <ele>103.96</ele>
        <time>2020-07-23T14:29:34Z</time>
      </trkpt>
      <trkpt lat="44.79875" lon="0.33306">
        <ele>100.6</ele>
        <time>2020-07-23T14:29:53Z</time>
      </trkpt>
      <trkpt lat="44.7988" lon="0.33285">
        <ele>97.23</ele>
        <time>2020-07-23T14:30:08Z</time>
      </trkpt>
      <trkpt lat="44.7989" lon="0.33272">
        <ele>93.87</ele>
        <time>2020-07-23T14:30:21Z</time>
      </trkpt>
      <trkpt lat="44.79906" lon="0.33254">
        <ele>90.02</ele>
        <time>2020-07-23T14:30:40Z</time>
      </trkpt>
      <trkpt lat="44.79907" lon="0.33253">
        <ele>90.02</ele>
        <time>2020-07-23T14:30:41Z</time>
      </trkpt>
      <trkpt lat="44.7992" lon="0.33234">
        <ele>86.66</ele>
        <time>2020-07-23T14:30:59Z</time>
      </trkpt>
      <trkpt lat="44.7993" lon="0.33218">
        <ele>84.25</ele>
        <time>2020-07-23T14:31:18Z</time>
      </trkpt>
      <trkpt lat="44.79946" lon="0.33198">
        <ele>80.89</ele>
        <time>2020-07-23T14:31:38Z</time>
      </trkpt>
      <trkpt lat="44.79961" lon="0.33187">
        <ele>78.97</ele>
        <time>2020-07-23T14:31:54Z</time>
      </trkpt>
      <trkpt lat="44.79976" lon="0.33179">
        <ele>76.08</ele>
        <time>2020-07-23T14:32:12Z</time>
      </trkpt>
      <trkpt lat="44.80001" lon="0.33167">
        <ele>76.08</ele>
        <time>2020-07-23T14:32:32Z</time>
      </trkpt>
      <trkpt lat="44.80005" lon="0.33166">
        <ele>74.64</ele>
        <time>2020-07-23T14:32:35Z</time>
      </trkpt>
      <trkpt lat="44.80011" lon="0.33157">
        <ele>76.08</ele>
        <time>2020-07-23T14:32:43Z</time>
      </trkpt>
      <trkpt lat="44.80018" lon="0.33125">
        <ele>77.52</ele>
        <time>2020-07-23T14:33:05Z</time>
      </trkpt>
      <trkpt lat="44.80022" lon="0.33108">
        <ele>80.89</ele>
        <time>2020-07-23T14:33:25Z</time>
      </trkpt>
      <trkpt lat="44.80025" lon="0.33077">
        <ele>83.29</ele>
        <time>2020-07-23T14:33:48Z</time>
      </trkpt>
      <trkpt lat="44.80026" lon="0.33053">
        <ele>85.21</ele>
        <time>2020-07-23T14:34:08Z</time>
      </trkpt>
      <trkpt lat="44.80027" lon="0.33031">
        <ele>89.06</ele>
        <time>2020-07-23T14:34:32Z</time>
      </trkpt>
      <trkpt lat="44.80028" lon="0.33027">
        <ele>87.62</ele>
        <time>2020-07-23T14:34:35Z</time>
      </trkpt>
      <trkpt lat="44.80027" lon="0.33009">
        <ele>90.98</ele>
        <time>2020-07-23T14:34:50Z</time>
      </trkpt>
      <trkpt lat="44.80031" lon="0.32996">
        <ele>93.39</ele>
        <time>2020-07-23T14:35:09Z</time>
      </trkpt>
      <trkpt lat="44.80029" lon="0.32977">
        <ele>96.75</ele>
        <time>2020-07-23T14:35:33Z</time>
      </trkpt>
      <trkpt lat="44.8003" lon="0.3296">
        <ele>99.63</ele>
        <time>2020-07-23T14:35:54Z</time>
      </trkpt>
      <trkpt lat="44.80031" lon="0.32935">
        <ele>102.52</ele>
        <time>2020-07-23T14:36:16Z</time>
      </trkpt>
      <trkpt lat="44.80033" lon="0.3291">
        <ele>104.44</ele>
        <time>2020-07-23T14:36:36Z</time>
      </trkpt>
      <trkpt lat="44.80033" lon="0.32882">
        <ele>106.84</ele>
        <time>2020-07-23T14:36:56Z</time>
      </trkpt>
      <trkpt lat="44.80032" lon="0.32856">
        <ele>109.25</ele>
        <time>2020-07-23T14:37:15Z</time>
      </trkpt>
      <trkpt lat="44.80033" lon="0.32838">
        <ele>109.73</ele>
        <time>2020-07-23T14:37:28Z</time>
      </trkpt>
      <trkpt lat="44.80033" lon="0.32817">
        <ele>110.69</ele>
        <time>2020-07-23T14:37:44Z</time>
      </trkpt>
      <trkpt lat="44.80034" lon="0.32795">
        <ele>112.61</ele>
        <time>2020-07-23T14:38:03Z</time>
      </trkpt>
      <trkpt lat="44.80034" lon="0.32773">
        <ele>115.01</ele>
        <time>2020-07-23T14:38:23Z</time>
      </trkpt>
      <trkpt lat="44.80035" lon="0.32766">
        <ele>115.01</ele>
        <time>2020-07-23T14:38:51Z</time>
      </trkpt>
      <trkpt lat="44.80034" lon="0.3276">
        <ele>115.5</ele>
        <time>2020-07-23T14:39:11Z</time>
      </trkpt>
      <trkpt lat="44.8002" lon="0.32744">
        <ele>116.94</ele>
        <time>2020-07-23T14:39:30Z</time>
      </trkpt>
      <trkpt lat="44.8001" lon="0.32727">
        <ele>117.9</ele>
        <time>2020-07-23T14:39:48Z</time>
      </trkpt>
      <trkpt lat="44.80011" lon="0.32698">
        <ele>118.86</ele>
        <time>2020-07-23T14:40:07Z</time>
      </trkpt>
      <trkpt lat="44.80007" lon="0.32663">
        <ele>118.86</ele>
        <time>2020-07-23T14:40:27Z</time>
      </trkpt>
      <trkpt lat="44.80007" lon="0.32653">
        <ele>120.3</ele>
        <time>2020-07-23T14:40:34Z</time>
      </trkpt>
      <trkpt lat="44.80009" lon="0.32632">
        <ele>120.3</ele>
        <time>2020-07-23T14:40:54Z</time>
      </trkpt>
      <trkpt lat="44.80008" lon="0.32623">
        <ele>120.3</ele>
        <time>2020-07-23T14:41:14Z</time>
      </trkpt>
      <trkpt lat="44.80013" lon="0.32616">
        <ele>120.78</ele>
        <time>2020-07-23T14:41:35Z</time>
      </trkpt>
      <trkpt lat="44.80018" lon="0.32611">
        <ele>121.26</ele>
        <time>2020-07-23T14:42:01Z</time>
      </trkpt>
      <trkpt lat="44.80022" lon="0.32623">
        <ele>121.26</ele>
        <time>2020-07-23T14:42:19Z</time>
      </trkpt>
      <trkpt lat="44.80029" lon="0.32624">
        <ele>121.26</ele>
        <time>2020-07-23T14:42:41Z</time>
      </trkpt>
      <trkpt lat="44.80031" lon="0.32624">
        <ele>120.78</ele>
        <time>2020-07-23T14:43:10Z</time>
      </trkpt>
      <trkpt lat="44.80046" lon="0.3262">
        <ele>121.74</ele>
        <time>2020-07-23T14:43:29Z</time>
      </trkpt>
      <trkpt lat="44.80061" lon="0.3261">
        <ele>120.78</ele>
        <time>2020-07-23T14:43:45Z</time>
      </trkpt>
      <trkpt lat="44.80077" lon="0.32599">
        <ele>122.22</ele>
        <time>2020-07-23T14:44:03Z</time>
      </trkpt>
      <trkpt lat="44.80094" lon="0.32597">
        <ele>121.74</ele>
        <time>2020-07-23T14:44:17Z</time>
      </trkpt>
      <trkpt lat="44.8012" lon="0.32601">
        <ele>120.78</ele>
        <time>2020-07-23T14:44:39Z</time>
      </trkpt>
      <trkpt lat="44.80136" lon="0.32599">
        <ele>120.78</ele>
        <time>2020-07-23T14:45:01Z</time>
      </trkpt>
      <trkpt lat="44.80138" lon="0.3261">
        <ele>120.78</ele>
        <time>2020-07-23T14:45:22Z</time>
      </trkpt>
      <trkpt lat="44.80146" lon="0.32602">
        <ele>120.78</ele>
        <time>2020-07-23T14:45:45Z</time>
      </trkpt>
      <trkpt lat="44.80157" lon="0.32591">
        <ele>120.78</ele>
        <time>2020-07-23T14:46:03Z</time>
      </trkpt>
      <trkpt lat="44.80169" lon="0.32601">
        <ele>119.82</ele>
        <time>2020-07-23T14:46:26Z</time>
      </trkpt>
      <trkpt lat="44.80167" lon="0.32626">
        <ele>119.34</ele>
        <time>2020-07-23T14:46:47Z</time>
      </trkpt>
      <trkpt lat="44.80168" lon="0.32634">
        <ele>117.42</ele>
        <time>2020-07-23T14:46:51Z</time>
      </trkpt>
      <trkpt lat="44.8017" lon="0.3266">
        <ele>116.46</ele>
        <time>2020-07-23T14:47:09Z</time>
      </trkpt>
      <trkpt lat="44.80167" lon="0.32664">
        <ele>116.46</ele>
        <time>2020-07-23T14:47:28Z</time>
      </trkpt>
      <trkpt lat="44.80168" lon="0.32661">
        <ele>115.98</ele>
        <time>2020-07-23T14:47:59Z</time>
      </trkpt>
      <trkpt lat="44.80172" lon="0.32672">
        <ele>115.98</ele>
        <time>2020-07-23T14:48:06Z</time>
      </trkpt>
      <trkpt lat="44.80178" lon="0.32696">
        <ele>112.61</ele>
        <time>2020-07-23T14:48:25Z</time>
      </trkpt>
      <trkpt lat="44.8019" lon="0.32706">
        <ele>111.65</ele>
        <time>2020-07-23T14:48:36Z</time>
      </trkpt>
      <trkpt lat="44.80203" lon="0.32707">
        <ele>111.65</ele>
        <time>2020-07-23T14:48:54Z</time>
      </trkpt>
      <trkpt lat="44.80225" lon="0.32703">
        <ele>110.21</ele>
        <time>2020-07-23T14:49:15Z</time>
      </trkpt>
      <trkpt lat="44.80243" lon="0.32699">
        <ele>109.73</ele>
        <time>2020-07-23T14:49:28Z</time>
      </trkpt>
      <trkpt lat="44.80275" lon="0.32697">
        <ele>106.84</ele>
        <time>2020-07-23T14:49:53Z</time>
      </trkpt>
      <trkpt lat="44.8028" lon="0.32698">
        <ele>108.77</ele>
        <time>2020-07-23T14:49:56Z</time>
      </trkpt>
      <trkpt lat="44.80285" lon="0.32699">
        <ele>107.32</ele>
        <time>2020-07-23T14:49:59Z</time>
      </trkpt>
      <trkpt lat="44.80308" lon="0.32705">
        <ele>106.84</ele>
        <time>2020-07-23T14:50:19Z</time>
      </trkpt>
      <trkpt lat="44.80312" lon="0.32707">
        <ele>105.4</ele>
        <time>2020-07-23T14:50:23Z</time>
      </trkpt>
      <trkpt lat="44.80337" lon="0.32712">
        <ele>104.44</ele>
        <time>2020-07-23T14:50:43Z</time>
      </trkpt>
      <trkpt lat="44.80358" lon="0.32715">
        <ele>104.44</ele>
        <time>2020-07-23T14:51:02Z</time>
      </trkpt>
      <trkpt lat="44.80378" lon="0.32724">
        <ele>103</ele>
        <time>2020-07-23T14:51:20Z</time>
      </trkpt>
      <trkpt lat="44.80381" lon="0.32724">
        <ele>102.04</ele>
        <time>2020-07-23T14:51:22Z</time>
      </trkpt>
      <trkpt lat="44.80385" lon="0.32726">
        <ele>102.04</ele>
        <time>2020-07-23T14:51:25Z</time>
      </trkpt>
      <trkpt lat="44.80411" lon="0.32738">
        <ele>100.6</ele>
        <time>2020-07-23T14:51:46Z</time>
      </trkpt>
      <trkpt lat="44.80431" lon="0.32746">
        <ele>100.6</ele>
        <time>2020-07-23T14:52:02Z</time>
      </trkpt>
      <trkpt lat="44.80455" lon="0.32756">
        <ele>100.6</ele>
        <time>2020-07-23T14:52:23Z</time>
      </trkpt>
      <trkpt lat="44.80456" lon="0.32756">
        <ele>100.6</ele>
        <time>2020-07-23T14:52:24Z</time>
      </trkpt>
      <trkpt lat="44.80465" lon="0.32756">
        <ele>99.15</ele>
        <time>2020-07-23T14:52:32Z</time>
      </trkpt>
      <trkpt lat="44.80486" lon="0.32761">
        <ele>98.67</ele>
        <time>2020-07-23T14:52:48Z</time>
      </trkpt>
      <trkpt lat="44.80501" lon="0.32768">
        <ele>99.63</ele>
        <time>2020-07-23T14:53:03Z</time>
      </trkpt>
      <trkpt lat="44.80522" lon="0.32777">
        <ele>99.63</ele>
        <time>2020-07-23T14:53:23Z</time>
      </trkpt>
      <trkpt lat="44.80523" lon="0.32782">
        <ele>98.19</ele>
        <time>2020-07-23T14:53:26Z</time>
      </trkpt>
      <trkpt lat="44.80524" lon="0.3279">
        <ele>98.19</ele>
        <time>2020-07-23T14:53:31Z</time>
      </trkpt>
      <trkpt lat="44.80543" lon="0.32801">
        <ele>99.63</ele>
        <time>2020-07-23T14:53:48Z</time>
      </trkpt>
      <trkpt lat="44.80561" lon="0.32802">
        <ele>99.63</ele>
        <time>2020-07-23T14:54:06Z</time>
      </trkpt>
      <trkpt lat="44.80589" lon="0.32802">
        <ele>100.6</ele>
        <time>2020-07-23T14:54:28Z</time>
      </trkpt>
      <trkpt lat="44.806" lon="0.32804">
        <ele>100.6</ele>
        <time>2020-07-23T14:54:36Z</time>
      </trkpt>
      <trkpt lat="44.80619" lon="0.32801">
        <ele>99.15</ele>
        <time>2020-07-23T14:54:52Z</time>
      </trkpt>
      <trkpt lat="44.80626" lon="0.32803">
        <ele>100.11</ele>
        <time>2020-07-23T14:55:07Z</time>
      </trkpt>
      <trkpt lat="44.8063" lon="0.32804">
        <ele>100.11</ele>
        <time>2020-07-23T14:55:24Z</time>
      </trkpt>
      <trkpt lat="44.80633" lon="0.32808">
        <ele>100.11</ele>
        <time>2020-07-23T14:55:30Z</time>
      </trkpt>
      <trkpt lat="44.80643" lon="0.32823">
        <ele>99.15</ele>
        <time>2020-07-23T14:55:42Z</time>
      </trkpt>
      <trkpt lat="44.80662" lon="0.32845">
        <ele>98.19</ele>
        <time>2020-07-23T14:56:02Z</time>
      </trkpt>
      <trkpt lat="44.80665" lon="0.32852">
        <ele>99.15</ele>
        <time>2020-07-23T14:56:07Z</time>
      </trkpt>
      <trkpt lat="44.80669" lon="0.32859">
        <ele>97.71</ele>
        <time>2020-07-23T14:56:12Z</time>
      </trkpt>
      <trkpt lat="44.80671" lon="0.32871">
        <ele>97.71</ele>
        <time>2020-07-23T14:56:20Z</time>
      </trkpt>
      <trkpt lat="44.80677" lon="0.32885">
        <ele>96.75</ele>
        <time>2020-07-23T14:56:39Z</time>
      </trkpt>
      <trkpt lat="44.80695" lon="0.32891">
        <ele>95.79</ele>
        <time>2020-07-23T14:56:57Z</time>
      </trkpt>
      <trkpt lat="44.80698" lon="0.32893">
        <ele>94.35</ele>
        <time>2020-07-23T14:57:00Z</time>
      </trkpt>
      <trkpt lat="44.80712" lon="0.32905">
        <ele>93.87</ele>
        <time>2020-07-23T14:57:17Z</time>
      </trkpt>
      <trkpt lat="44.80723" lon="0.32912">
        <ele>91.94</ele>
        <time>2020-07-23T14:57:33Z</time>
      </trkpt>
      <trkpt lat="44.80725" lon="0.32913">
        <ele>90.98</ele>
        <time>2020-07-23T14:57:35Z</time>
      </trkpt>
      <trkpt lat="44.8074" lon="0.3292">
        <ele>88.58</ele>
        <time>2020-07-23T14:57:53Z</time>
      </trkpt>
      <trkpt lat="44.80759" lon="0.32924">
        <ele>86.18</ele>
        <time>2020-07-23T14:58:12Z</time>
      </trkpt>
      <trkpt lat="44.80776" lon="0.32928">
        <ele>84.73</ele>
        <time>2020-07-23T14:58:33Z</time>
      </trkpt>
      <trkpt lat="44.80789" lon="0.32932">
        <ele>82.81</ele>
        <time>2020-07-23T14:58:50Z</time>
      </trkpt>
      <trkpt lat="44.80807" lon="0.32933">
        <ele>79.93</ele>
        <time>2020-07-23T14:59:09Z</time>
      </trkpt>
      <trkpt lat="44.80808" lon="0.32932">
        <ele>79.93</ele>
        <time>2020-07-23T14:59:10Z</time>
      </trkpt>
      <trkpt lat="44.80821" lon="0.32932">
        <ele>78.97</ele>
        <time>2020-07-23T14:59:19Z</time>
      </trkpt>
      <trkpt lat="44.80836" lon="0.32938">
        <ele>77.52</ele>
        <time>2020-07-23T14:59:31Z</time>
      </trkpt>
      <trkpt lat="44.80838" lon="0.32959">
        <ele>78.48</ele>
        <time>2020-07-23T14:59:45Z</time>
      </trkpt>
      <trkpt lat="44.80838" lon="0.32967">
        <ele>78.48</ele>
        <time>2020-07-23T15:00:01Z</time>
      </trkpt>
      <trkpt lat="44.80839" lon="0.32961">
        <ele>78</ele>
        <time>2020-07-23T15:00:17Z</time>
      </trkpt>
      <trkpt lat="44.80838" lon="0.32965">
        <ele>78.48</ele>
        <time>2020-07-23T15:00:39Z</time>
      </trkpt>
      <trkpt lat="44.80832" lon="0.3299">
        <ele>78.48</ele>
        <time>2020-07-23T15:00:57Z</time>
      </trkpt>
      <trkpt lat="44.80833" lon="0.33001">
        <ele>77.52</ele>
        <time>2020-07-23T15:01:11Z</time>
      </trkpt>
      <trkpt lat="44.80834" lon="0.33001">
        <ele>77.04</ele>
        <time>2020-07-23T15:01:42Z</time>
      </trkpt>
      <trkpt lat="44.80832" lon="0.33">
        <ele>77.04</ele>
        <time>2020-07-23T15:02:13Z</time>
      </trkpt>
      <trkpt lat="44.80833" lon="0.32982">
        <ele>77.04</ele>
        <time>2020-07-23T15:02:41Z</time>
      </trkpt>
      <trkpt lat="44.80836" lon="0.32955">
        <ele>77.52</ele>
        <time>2020-07-23T15:02:58Z</time>
      </trkpt>
      <trkpt lat="44.8084" lon="0.32944">
        <ele>77.52</ele>
        <time>2020-07-23T15:03:13Z</time>
      </trkpt>
      <trkpt lat="44.80844" lon="0.3293">
        <ele>75.6</ele>
        <time>2020-07-23T15:03:24Z</time>
      </trkpt>
      <trkpt lat="44.80842" lon="0.32947">
        <ele>76.56</ele>
        <time>2020-07-23T15:03:41Z</time>
      </trkpt>
      <trkpt lat="44.80841" lon="0.32955">
        <ele>76.56</ele>
        <time>2020-07-23T15:03:47Z</time>
      </trkpt>
      <trkpt lat="44.80839" lon="0.32961">
        <ele>78.48</ele>
        <time>2020-07-23T15:03:51Z</time>
      </trkpt>
      <trkpt lat="44.80838" lon="0.32965">
        <ele>77.04</ele>
        <time>2020-07-23T15:03:54Z</time>
      </trkpt>
      <trkpt lat="44.80835" lon="0.3299">
        <ele>77.04</ele>
        <time>2020-07-23T15:04:10Z</time>
      </trkpt>
      <trkpt lat="44.80842" lon="0.33002">
        <ele>77.04</ele>
        <time>2020-07-23T15:04:25Z</time>
      </trkpt>
      <trkpt lat="44.8086" lon="0.33004">
        <ele>74.64</ele>
        <time>2020-07-23T15:04:44Z</time>
      </trkpt>
      <trkpt lat="44.80873" lon="0.33006">
        <ele>73.68</ele>
        <time>2020-07-23T15:04:57Z</time>
      </trkpt>
      <trkpt lat="44.80896" lon="0.33007">
        <ele>70.79</ele>
        <time>2020-07-23T15:05:20Z</time>
      </trkpt>
      <trkpt lat="44.80908" lon="0.33008">
        <ele>69.35</ele>
        <time>2020-07-23T15:05:36Z</time>
      </trkpt>
      <trkpt lat="44.80909" lon="0.33009">
        <ele>68.87</ele>
        <time>2020-07-23T15:05:38Z</time>
      </trkpt>
      <trkpt lat="44.8093" lon="0.33012">
        <ele>65.03</ele>
        <time>2020-07-23T15:06:00Z</time>
      </trkpt>
      <trkpt lat="44.80931" lon="0.33012">
        <ele>65.03</ele>
        <time>2020-07-23T15:06:01Z</time>
      </trkpt>
      <trkpt lat="44.80946" lon="0.33013">
        <ele>64.07</ele>
        <time>2020-07-23T15:06:15Z</time>
      </trkpt>
      <trkpt lat="44.80961" lon="0.33013">
        <ele>62.14</ele>
        <time>2020-07-23T15:06:31Z</time>
      </trkpt>
      <trkpt lat="44.80978" lon="0.33014">
        <ele>59.26</ele>
        <time>2020-07-23T15:06:49Z</time>
      </trkpt>
      <trkpt lat="44.80989" lon="0.33017">
        <ele>57.34</ele>
        <time>2020-07-23T15:07:03Z</time>
      </trkpt>
      <trkpt lat="44.80992" lon="0.33017">
        <ele>56.37</ele>
        <time>2020-07-23T15:07:06Z</time>
      </trkpt>
      <trkpt lat="44.81012" lon="0.33019">
        <ele>53.97</ele>
        <time>2020-07-23T15:07:26Z</time>
      </trkpt>
      <trkpt lat="44.81024" lon="0.33021">
        <ele>52.05</ele>
        <time>2020-07-23T15:07:38Z</time>
      </trkpt>
      <trkpt lat="44.81038" lon="0.33019">
        <ele>52.05</ele>
        <time>2020-07-23T15:07:54Z</time>
      </trkpt>
      <trkpt lat="44.81041" lon="0.33009">
        <ele>51.57</ele>
        <time>2020-07-23T15:08:13Z</time>
      </trkpt>
      <trkpt lat="44.81044" lon="0.32994">
        <ele>51.09</ele>
        <time>2020-07-23T15:08:31Z</time>
      </trkpt>
      <trkpt lat="44.81043" lon="0.32981">
        <ele>51.57</ele>
        <time>2020-07-23T15:08:39Z</time>
      </trkpt>
      <trkpt lat="44.81043" lon="0.32963">
        <ele>50.13</ele>
        <time>2020-07-23T15:08:49Z</time>
      </trkpt>
      <trkpt lat="44.81042" lon="0.3296">
        <ele>51.57</ele>
        <time>2020-07-23T15:08:51Z</time>
      </trkpt>
      <trkpt lat="44.81041" lon="0.32945">
        <ele>52.53</ele>
        <time>2020-07-23T15:09:01Z</time>
      </trkpt>
      <trkpt lat="44.8104" lon="0.32927">
        <ele>51.09</ele>
        <time>2020-07-23T15:09:11Z</time>
      </trkpt>
      <trkpt lat="44.81038" lon="0.32916">
        <ele>53.01</ele>
        <time>2020-07-23T15:09:18Z</time>
      </trkpt>
      <trkpt lat="44.81037" lon="0.32897">
        <ele>52.53</ele>
        <time>2020-07-23T15:09:33Z</time>
      </trkpt>
      <trkpt lat="44.81038" lon="0.32868">
        <ele>53.01</ele>
        <time>2020-07-23T15:09:50Z</time>
      </trkpt>
      <trkpt lat="44.81038" lon="0.32867">
        <ele>53.01</ele>
        <time>2020-07-23T15:09:51Z</time>
      </trkpt>
      <trkpt lat="44.8104" lon="0.32865">
        <ele>50.61</ele>
        <time>2020-07-23T15:09:53Z</time>
      </trkpt>
      <trkpt lat="44.81042" lon="0.32862">
        <ele>52.05</ele>
        <time>2020-07-23T15:09:55Z</time>
      </trkpt>
      <trkpt lat="44.81041" lon="0.32832">
        <ele>52.53</ele>
        <time>2020-07-23T15:10:15Z</time>
      </trkpt>
      <trkpt lat="44.81044" lon="0.32814">
        <ele>51.09</ele>
        <time>2020-07-23T15:10:26Z</time>
      </trkpt>
      <trkpt lat="44.81044" lon="0.32811">
        <ele>52.53</ele>
        <time>2020-07-23T15:10:28Z</time>
      </trkpt>
      <trkpt lat="44.81052" lon="0.3279">
        <ele>52.53</ele>
        <time>2020-07-23T15:10:44Z</time>
      </trkpt>
      <trkpt lat="44.81057" lon="0.32794">
        <ele>51.09</ele>
        <time>2020-07-23T15:10:48Z</time>
      </trkpt>
      <trkpt lat="44.81079" lon="0.32802">
        <ele>49.16</ele>
        <time>2020-07-23T15:11:08Z</time>
      </trkpt>
      <trkpt lat="44.81101" lon="0.3281">
        <ele>47.72</ele>
        <time>2020-07-23T15:11:27Z</time>
      </trkpt>
      <trkpt lat="44.81121" lon="0.3282">
        <ele>46.76</ele>
        <time>2020-07-23T15:11:46Z</time>
      </trkpt>
      <trkpt lat="44.81143" lon="0.32829">
        <ele>46.76</ele>
        <time>2020-07-23T15:12:05Z</time>
      </trkpt>
      <trkpt lat="44.81155" lon="0.32833">
        <ele>46.28</ele>
        <time>2020-07-23T15:12:17Z</time>
      </trkpt>
      <trkpt lat="44.81157" lon="0.32839">
        <ele>46.28</ele>
        <time>2020-07-23T15:12:33Z</time>
      </trkpt>
    </trkseg>
  </trk>
</gpx>